Wetterdaten: Mittwoch, 11.02.2026
Datum Zeit Temp. I. Temp. A. Feuchte I. Feuchte A. Luftdruck Regen Wind Richtung Richtung Sonnenschein Solar Taupunkt Windchill Windböen
11.02.2026 00:00 21,7 °C 5,2 °C 47 % 81 % 990,4 hPa 0,0 l/m² 0,3 km/h (0 Bft) O-SO 103 ° 0 min 0 W/m² 2,2 °C 5,2 °C 3,2 km/h (1 Bft)
11.02.2026 00:01 21,7 °C 5,2 °C 47 % 81 % 990,3 hPa 0,0 l/m² 0,0 km/h (0 Bft) O-SO 109 ° 0 min 0 W/m² 2,2 °C 5,2 °C 0,0 km/h (0 Bft)
11.02.2026 00:02 21,7 °C 5,1 °C 47 % 81 % 990,3 hPa 0,0 l/m² 0,0 km/h (0 Bft) O-SO 109 ° 0 min 0 W/m² 2,1 °C 5,1 °C 0,0 km/h (0 Bft)
11.02.2026 00:04 21,7 °C 5,2 °C 47 % 81 % 990,3 hPa 0,0 l/m² 1,6 km/h (1 Bft) O-SO 105 ° 0 min 0 W/m² 2,2 °C 5,2 °C 6,4 km/h (2 Bft)
11.02.2026 00:06 21,7 °C 5,1 °C 47 % 81 % 990,2 hPa 0,0 l/m² 5,6 km/h (2 Bft) O 92 ° 0 min 0 W/m² 2,1 °C 5,1 °C 9,7 km/h (2 Bft)
11.02.2026 00:07 21,7 °C 5,1 °C 47 % 81 % 990,1 hPa 0,0 l/m² 4,7 km/h (1 Bft) O 98 ° 0 min 0 W/m² 2,1 °C 5,1 °C 6,4 km/h (2 Bft)
11.02.2026 00:08 21,7 °C 5,1 °C 47 % 81 % 990,3 hPa 0,0 l/m² 4,8 km/h (1 Bft) O-SO 111 ° 0 min 0 W/m² 2,1 °C 5,1 °C 6,4 km/h (2 Bft)
11.02.2026 00:09 21,7 °C 5,0 °C 47 % 82 % 990,3 hPa 0,0 l/m² 4,0 km/h (1 Bft) O 96 ° 0 min 0 W/m² 2,2 °C 5,0 °C 4,8 km/h (1 Bft)
11.02.2026 00:11 21,7 °C 5,0 °C 47 % 82 % 990,2 hPa 0,0 l/m² 0,6 km/h (0 Bft) O 97 ° 0 min 0 W/m² 2,2 °C 5,0 °C 4,8 km/h (1 Bft)
11.02.2026 00:14 21,8 °C 4,9 °C 47 % 82 % 990,2 hPa 0,0 l/m² 0,0 km/h (0 Bft) O-SO 104 ° 0 min 0 W/m² 2,1 °C 4,9 °C 0,0 km/h (0 Bft)
11.02.2026 00:15 21,7 °C 5,0 °C 47 % 82 % 990,2 hPa 0,0 l/m² 0,0 km/h (0 Bft) O-SO 102 ° 0 min 0 W/m² 2,2 °C 5,0 °C 0,0 km/h (0 Bft)
11.02.2026 00:16 21,7 °C 4,9 °C 47 % 82 % 990,2 hPa 0,0 l/m² 0,0 km/h (0 Bft) O-SO 102 ° 0 min 0 W/m² 2,1 °C 4,9 °C 0,0 km/h (0 Bft)
11.02.2026 00:18 21,7 °C 4,9 °C 47 % 82 % 990,1 hPa 0,0 l/m² 0,0 km/h (0 Bft) O-SO 102 ° 0 min 0 W/m² 2,1 °C 4,9 °C 0,0 km/h (0 Bft)
11.02.2026 00:20 21,7 °C 4,9 °C 47 % 82 % 990,1 hPa 0,0 l/m² 0,0 km/h (0 Bft) O 101 ° 0 min 0 W/m² 2,1 °C 4,9 °C 0,0 km/h (0 Bft)
11.02.2026 00:23 21,7 °C 4,8 °C 47 % 82 % 990,1 hPa 0,0 l/m² 0,0 km/h (0 Bft) O-SO 106 ° 0 min 0 W/m² 2,0 °C 4,8 °C 0,0 km/h (0 Bft)
11.02.2026 00:25 21,7 °C 4,8 °C 47 % 82 % 990,0 hPa 0,0 l/m² 0,5 km/h (0 Bft) O 85 ° 0 min 0 W/m² 2,0 °C 4,8 °C 4,8 km/h (1 Bft)
11.02.2026 00:27 21,7 °C 4,8 °C 47 % 82 % 990,0 hPa 0,0 l/m² 0,0 km/h (0 Bft) O 85 ° 0 min 0 W/m² 2,0 °C 4,8 °C 0,0 km/h (0 Bft)
11.02.2026 00:29 21,7 °C 4,8 °C 47 % 83 % 990,0 hPa 0,0 l/m² 0,0 km/h (0 Bft) O 94 ° 0 min 0 W/m² 2,2 °C 4,8 °C 0,0 km/h (0 Bft)
11.02.2026 00:31 21,7 °C 4,8 °C 47 % 83 % 990,0 hPa 0,0 l/m² 0,0 km/h (0 Bft) O-SO 121 ° 0 min 0 W/m² 2,2 °C 4,8 °C 0,0 km/h (0 Bft)
11.02.2026 00:32 21,7 °C 4,8 °C 47 % 82 % 990,0 hPa 0,0 l/m² 0,0 km/h (0 Bft) O-SO 121 ° 0 min 0 W/m² 2,0 °C 4,8 °C 0,0 km/h (0 Bft)
11.02.2026 00:33 21,7 °C 4,8 °C 47 % 83 % 989,9 hPa 0,0 l/m² 0,0 km/h (0 Bft) O-SO 121 ° 0 min 0 W/m² 2,2 °C 4,8 °C 0,0 km/h (0 Bft)
11.02.2026 00:34 21,7 °C 4,7 °C 47 % 82 % 989,9 hPa 0,0 l/m² 0,0 km/h (0 Bft) O-SO 121 ° 0 min 0 W/m² 1,9 °C 4,7 °C 0,0 km/h (0 Bft)
11.02.2026 00:36 21,7 °C 4,7 °C 47 % 83 % 989,8 hPa 0,0 l/m² 0,0 km/h (0 Bft) O-SO 109 ° 0 min 0 W/m² 2,1 °C 4,7 °C 0,0 km/h (0 Bft)
11.02.2026 00:38 21,8 °C 4,7 °C 47 % 83 % 989,9 hPa 0,0 l/m² 0,0 km/h (0 Bft) O-SO 109 ° 0 min 0 W/m² 2,1 °C 4,7 °C 0,0 km/h (0 Bft)
11.02.2026 00:40 21,8 °C 4,7 °C 47 % 83 % 989,8 hPa 0,0 l/m² 0,0 km/h (0 Bft) O-SO 110 ° 0 min 0 W/m² 2,1 °C 4,7 °C 0,0 km/h (0 Bft)
11.02.2026 00:43 21,8 °C 4,7 °C 47 % 83 % 989,7 hPa 0,0 l/m² 0,0 km/h (0 Bft) O-SO 110 ° 0 min 0 W/m² 2,1 °C 4,7 °C 0,0 km/h (0 Bft)
11.02.2026 00:46 21,8 °C 4,7 °C 47 % 83 % 989,8 hPa 0,0 l/m² 0,0 km/h (0 Bft) O-SO 110 ° 0 min 0 W/m² 2,1 °C 4,7 °C 0,0 km/h (0 Bft)
11.02.2026 00:48 21,8 °C 4,7 °C 47 % 83 % 989,7 hPa 0,0 l/m² 0,0 km/h (0 Bft) O-SO 110 ° 0 min 0 W/m² 2,1 °C 4,7 °C 0,0 km/h (0 Bft)
11.02.2026 00:50 21,8 °C 4,7 °C 47 % 83 % 989,7 hPa 0,0 l/m² 0,0 km/h (0 Bft) O-SO 110 ° 0 min 0 W/m² 2,1 °C 4,7 °C 0,0 km/h (0 Bft)
11.02.2026 00:53 21,8 °C 4,6 °C 47 % 83 % 989,7 hPa 0,0 l/m² 0,0 km/h (0 Bft) O-SO 110 ° 0 min 0 W/m² 2,0 °C 4,6 °C 0,0 km/h (0 Bft)
11.02.2026 00:55 21,8 °C 4,6 °C 47 % 83 % 989,6 hPa 0,0 l/m² 0,0 km/h (0 Bft) O-SO 110 ° 0 min 0 W/m² 2,0 °C 4,6 °C 0,0 km/h (0 Bft)
11.02.2026 00:57 21,8 °C 4,6 °C 47 % 83 % 989,6 hPa 0,0 l/m² 0,0 km/h (0 Bft) O-SO 109 ° 0 min 0 W/m² 2,0 °C 4,6 °C 0,0 km/h (0 Bft)
11.02.2026 00:59 21,8 °C 4,5 °C 47 % 83 % 989,6 hPa 0,0 l/m² 0,0 km/h (0 Bft) O-SO 109 ° 0 min 0 W/m² 1,9 °C 4,5 °C 0,0 km/h (0 Bft)
11.02.2026 01:01 21,8 °C 4,5 °C 47 % 83 % 989,6 hPa 0,0 l/m² 0,0 km/h (0 Bft) O-SO 109 ° 0 min 0 W/m² 1,9 °C 4,5 °C 0,0 km/h (0 Bft)
11.02.2026 01:02 21,8 °C 4,4 °C 47 % 83 % 989,6 hPa 0,0 l/m² 0,0 km/h (0 Bft) O-SO 110 ° 0 min 0 W/m² 1,8 °C 4,4 °C 0,0 km/h (0 Bft)
11.02.2026 01:03 21,8 °C 4,4 °C 47 % 83 % 989,6 hPa 0,0 l/m² 0,0 km/h (0 Bft) O-SO 109 ° 0 min 0 W/m² 1,8 °C 4,4 °C 0,0 km/h (0 Bft)
11.02.2026 01:04 21,8 °C 4,4 °C 47 % 83 % 989,6 hPa 0,0 l/m² 0,0 km/h (0 Bft) O-SO 110 ° 0 min 0 W/m² 1,8 °C 4,4 °C 0,0 km/h (0 Bft)
11.02.2026 01:06 21,8 °C 4,4 °C 47 % 83 % 989,6 hPa 0,0 l/m² 0,0 km/h (0 Bft) O-SO 110 ° 0 min 0 W/m² 1,8 °C 4,4 °C 0,0 km/h (0 Bft)
11.02.2026 01:08 21,8 °C 4,4 °C 47 % 83 % 989,7 hPa 0,0 l/m² 0,0 km/h (0 Bft) O-SO 109 ° 0 min 0 W/m² 1,8 °C 4,4 °C 0,0 km/h (0 Bft)
11.02.2026 01:10 21,8 °C 4,3 °C 47 % 83 % 989,5 hPa 0,0 l/m² 0,0 km/h (0 Bft) O-SO 110 ° 0 min 0 W/m² 1,7 °C 4,3 °C 0,0 km/h (0 Bft)
11.02.2026 01:13 21,8 °C 4,3 °C 47 % 83 % 989,5 hPa 0,0 l/m² 0,0 km/h (0 Bft) O-SO 109 ° 0 min 0 W/m² 1,7 °C 4,3 °C 0,0 km/h (0 Bft)
11.02.2026 01:15 21,8 °C 4,3 °C 47 % 83 % 989,5 hPa 0,0 l/m² 0,0 km/h (0 Bft) O-NO 77 ° 0 min 0 W/m² 1,7 °C 4,3 °C 0,0 km/h (0 Bft)
11.02.2026 01:17 21,8 °C 4,3 °C 47 % 83 % 989,4 hPa 0,0 l/m² 2,2 km/h (1 Bft) O 82 ° 0 min 0 W/m² 1,7 °C 4,3 °C 6,4 km/h (2 Bft)
11.02.2026 01:19 21,8 °C 4,3 °C 47 % 84 % 989,4 hPa 0,0 l/m² 4,5 km/h (1 Bft) O 80 ° 0 min 0 W/m² 1,8 °C 4,3 °C 6,4 km/h (2 Bft)
11.02.2026 01:21 21,8 °C 4,2 °C 47 % 84 % 989,4 hPa 0,0 l/m² 5,3 km/h (1 Bft) O-NO 74 ° 0 min 0 W/m² 1,7 °C 4,2 °C 6,4 km/h (2 Bft)
11.02.2026 01:22 21,8 °C 4,2 °C 47 % 84 % 989,4 hPa 0,0 l/m² 3,4 km/h (1 Bft) O-NO 71 ° 0 min 0 W/m² 1,7 °C 4,2 °C 6,4 km/h (2 Bft)
11.02.2026 01:23 21,8 °C 4,2 °C 47 % 84 % 989,4 hPa 0,0 l/m² 5,5 km/h (2 Bft) O-NO 64 ° 0 min 0 W/m² 1,7 °C 4,2 °C 6,4 km/h (2 Bft)
11.02.2026 01:24 21,8 °C 4,2 °C 47 % 84 % 989,3 hPa 0,0 l/m² 3,2 km/h (1 Bft) O-NO 65 ° 0 min 0 W/m² 1,7 °C 4,2 °C 4,8 km/h (1 Bft)
11.02.2026 01:26 21,8 °C 4,2 °C 47 % 84 % 989,4 hPa 0,0 l/m² 1,1 km/h (1 Bft) O-NO 68 ° 0 min 0 W/m² 1,7 °C 4,2 °C 6,4 km/h (2 Bft)
11.02.2026 01:28 21,8 °C 4,2 °C 47 % 84 % 989,3 hPa 0,0 l/m² 0,3 km/h (0 Bft) NO 46 ° 0 min 0 W/m² 1,7 °C 4,2 °C 3,2 km/h (1 Bft)
11.02.2026 01:30 21,8 °C 4,2 °C 47 % 84 % 989,3 hPa 0,0 l/m² 0,6 km/h (0 Bft) O-NO 60 ° 0 min 0 W/m² 1,7 °C 4,2 °C 6,4 km/h (2 Bft)
11.02.2026 01:33 21,8 °C 4,2 °C 47 % 84 % 989,3 hPa 0,0 l/m² 0,0 km/h (0 Bft) O-NO 65 ° 0 min 0 W/m² 1,7 °C 4,2 °C 0,0 km/h (0 Bft)
11.02.2026 01:35 21,8 °C 4,1 °C 47 % 84 % 989,3 hPa 0,0 l/m² 0,0 km/h (0 Bft) NO 53 ° 0 min 0 W/m² 1,6 °C 4,1 °C 0,0 km/h (0 Bft)
11.02.2026 01:37 21,8 °C 4,1 °C 47 % 84 % 989,2 hPa 0,0 l/m² 3,7 km/h (1 Bft) O-NO 65 ° 0 min 0 W/m² 1,6 °C 4,1 °C 8,0 km/h (2 Bft)
11.02.2026 01:39 21,8 °C 4,1 °C 47 % 85 % 989,2 hPa 0,0 l/m² 5,4 km/h (2 Bft) O-NO 67 ° 0 min 0 W/m² 1,8 °C 4,1 °C 8,0 km/h (2 Bft)
11.02.2026 01:41 21,8 °C 4,1 °C 47 % 85 % 989,2 hPa 0,0 l/m² 6,1 km/h (2 Bft) O-NO 76 ° 0 min 0 W/m² 1,8 °C 4,1 °C 8,0 km/h (2 Bft)
11.02.2026 01:44 21,8 °C 4,1 °C 47 % 85 % 989,1 hPa 0,0 l/m² 7,0 km/h (2 Bft) O-NO 75 ° 0 min 0 W/m² 1,8 °C 3,6 °C 11,3 km/h (2 Bft)
11.02.2026 01:46 21,8 °C 4,1 °C 47 % 85 % 989,1 hPa 0,0 l/m² 8,8 km/h (2 Bft) O 82 ° 0 min 0 W/m² 1,8 °C 2,0 °C 11,3 km/h (2 Bft)
11.02.2026 01:48 21,8 °C 4,1 °C 47 % 85 % 989,1 hPa 0,0 l/m² 7,3 km/h (2 Bft) O 87 ° 0 min 0 W/m² 1,8 °C 3,3 °C 11,3 km/h (2 Bft)
11.02.2026 01:50 21,8 °C 4,0 °C 47 % 85 % 989,1 hPa 0,0 l/m² 7,7 km/h (2 Bft) O 84 ° 0 min 0 W/m² 1,7 °C 2,8 °C 11,3 km/h (2 Bft)
11.02.2026 01:52 21,8 °C 4,0 °C 47 % 85 % 989,1 hPa 0,0 l/m² 6,6 km/h (2 Bft) O 79 ° 0 min 0 W/m² 1,7 °C 3,8 °C 8,0 km/h (2 Bft)
11.02.2026 01:53 21,8 °C 3,9 °C 47 % 85 % 989,1 hPa 0,0 l/m² 5,2 km/h (1 Bft) O-NO 74 ° 0 min 0 W/m² 1,6 °C 3,9 °C 8,0 km/h (2 Bft)
11.02.2026 01:54 21,8 °C 3,9 °C 47 % 85 % 989,1 hPa 0,0 l/m² 5,7 km/h (2 Bft) O 79 ° 0 min 0 W/m² 1,6 °C 3,9 °C 8,0 km/h (2 Bft)
11.02.2026 01:56 21,8 °C 3,9 °C 47 % 85 % 989,1 hPa 0,0 l/m² 1,9 km/h (1 Bft) O 80 ° 0 min 0 W/m² 1,6 °C 3,9 °C 6,4 km/h (2 Bft)
11.02.2026 01:58 21,8 °C 3,9 °C 47 % 85 % 989,1 hPa 0,0 l/m² 3,7 km/h (1 Bft) O 82 ° 0 min 0 W/m² 1,6 °C 3,9 °C 6,4 km/h (2 Bft)
11.02.2026 02:00 21,8 °C 3,9 °C 47 % 85 % 989,0 hPa 0,0 l/m² 5,9 km/h (2 Bft) O 87 ° 0 min 0 W/m² 1,6 °C 3,9 °C 8,0 km/h (2 Bft)
11.02.2026 02:02 21,8 °C 3,9 °C 47 % 86 % 989,1 hPa 0,0 l/m² 6,6 km/h (2 Bft) O 94 ° 0 min 0 W/m² 1,8 °C 3,7 °C 9,7 km/h (2 Bft)
11.02.2026 02:03 21,8 °C 3,9 °C 47 % 86 % 989,1 hPa 0,0 l/m² 6,5 km/h (2 Bft) O-SO 104 ° 0 min 0 W/m² 1,8 °C 3,8 °C 9,7 km/h (2 Bft)
11.02.2026 02:04 21,8 °C 3,9 °C 47 % 86 % 989,1 hPa 0,0 l/m² 3,7 km/h (1 Bft) O-SO 103 ° 0 min 0 W/m² 1,8 °C 3,9 °C 4,8 km/h (1 Bft)
11.02.2026 02:05 21,8 °C 3,9 °C 47 % 86 % 989,1 hPa 0,0 l/m² 4,3 km/h (1 Bft) O 96 ° 0 min 0 W/m² 1,8 °C 3,9 °C 4,8 km/h (1 Bft)
11.02.2026 02:06 21,8 °C 3,9 °C 47 % 86 % 989,0 hPa 0,0 l/m² 5,1 km/h (1 Bft) O 96 ° 0 min 0 W/m² 1,8 °C 3,9 °C 6,4 km/h (2 Bft)
11.02.2026 02:08 21,8 °C 3,9 °C 47 % 86 % 989,0 hPa 0,0 l/m² 2,4 km/h (1 Bft) O 84 ° 0 min 0 W/m² 1,8 °C 3,9 °C 4,8 km/h (1 Bft)
11.02.2026 02:09 21,8 °C 3,9 °C 47 % 86 % 989,0 hPa 0,0 l/m² 0,7 km/h (0 Bft) O 84 ° 0 min 0 W/m² 1,8 °C 3,9 °C 1,6 km/h (1 Bft)
11.02.2026 02:11 21,8 °C 3,9 °C 47 % 86 % 989,0 hPa 0,0 l/m² 2,1 km/h (1 Bft) O 86 ° 0 min 0 W/m² 1,8 °C 3,9 °C 6,4 km/h (2 Bft)
11.02.2026 02:13 21,8 °C 3,9 °C 47 % 86 % 988,9 hPa 0,0 l/m² 2,2 km/h (1 Bft) O 90 ° 0 min 0 W/m² 1,8 °C 3,9 °C 6,4 km/h (2 Bft)
11.02.2026 02:14 21,8 °C 3,9 °C 47 % 86 % 988,9 hPa 0,0 l/m² 4,4 km/h (1 Bft) O 87 ° 0 min 0 W/m² 1,8 °C 3,9 °C 6,4 km/h (2 Bft)
11.02.2026 02:15 21,8 °C 3,9 °C 47 % 86 % 988,9 hPa 0,0 l/m² 4,5 km/h (1 Bft) O 94 ° 0 min 0 W/m² 1,8 °C 3,9 °C 6,4 km/h (2 Bft)
11.02.2026 02:16 21,8 °C 3,9 °C 47 % 86 % 988,9 hPa 0,0 l/m² 5,1 km/h (1 Bft) O 88 ° 0 min 0 W/m² 1,8 °C 3,9 °C 6,4 km/h (2 Bft)
11.02.2026 02:17 21,8 °C 4,0 °C 47 % 86 % 988,9 hPa 0,0 l/m² 5,2 km/h (1 Bft) O 95 ° 0 min 0 W/m² 1,9 °C 4,0 °C 9,7 km/h (2 Bft)
11.02.2026 02:18 21,8 °C 4,0 °C 47 % 86 % 988,9 hPa 0,0 l/m² 5,9 km/h (2 Bft) O 94 ° 0 min 0 W/m² 1,9 °C 4,0 °C 6,4 km/h (2 Bft)
11.02.2026 02:19 21,8 °C 4,0 °C 47 % 87 % 988,9 hPa 0,0 l/m² 7,6 km/h (2 Bft) O 90 ° 0 min 0 W/m² 2,0 °C 2,9 °C 11,3 km/h (2 Bft)
11.02.2026 02:20 21,8 °C 4,1 °C 47 % 87 % 988,8 hPa 0,0 l/m² 6,8 km/h (2 Bft) O 86 ° 0 min 0 W/m² 2,1 °C 3,7 °C 9,7 km/h (2 Bft)
11.02.2026 02:22 21,8 °C 4,1 °C 47 % 87 % 988,8 hPa 0,0 l/m² 7,4 km/h (2 Bft) O-SO 102 ° 0 min 0 W/m² 2,1 °C 3,2 °C 11,3 km/h (2 Bft)
11.02.2026 02:23 21,8 °C 4,1 °C 47 % 87 % 988,8 hPa 0,0 l/m² 7,2 km/h (2 Bft) O 89 ° 0 min 0 W/m² 2,1 °C 3,4 °C 9,7 km/h (2 Bft)
11.02.2026 02:24 21,8 °C 4,1 °C 47 % 87 % 988,8 hPa 0,0 l/m² 7,8 km/h (2 Bft) O-SO 108 ° 0 min 0 W/m² 2,1 °C 2,8 °C 11,3 km/h (2 Bft)
11.02.2026 02:25 21,8 °C 4,2 °C 47 % 87 % 988,7 hPa 0,0 l/m² 5,9 km/h (2 Bft) O 97 ° 0 min 0 W/m² 2,2 °C 4,2 °C 9,7 km/h (2 Bft)
11.02.2026 02:26 21,8 °C 4,2 °C 47 % 87 % 988,7 hPa 0,0 l/m² 6,8 km/h (2 Bft) O 101 ° 0 min 0 W/m² 2,2 °C 3,8 °C 9,7 km/h (2 Bft)
11.02.2026 02:27 21,8 °C 4,2 °C 47 % 87 % 988,8 hPa 0,0 l/m² 5,0 km/h (1 Bft) O-SO 105 ° 0 min 0 W/m² 2,2 °C 4,2 °C 6,4 km/h (2 Bft)
11.02.2026 02:28 21,8 °C 4,2 °C 47 % 87 % 988,8 hPa 0,0 l/m² 4,7 km/h (1 Bft) O 96 ° 0 min 0 W/m² 2,2 °C 4,2 °C 6,4 km/h (2 Bft)
11.02.2026 02:29 21,8 °C 4,2 °C 47 % 87 % 988,6 hPa 0,0 l/m² 2,5 km/h (1 Bft) O-SO 107 ° 0 min 0 W/m² 2,2 °C 4,2 °C 4,8 km/h (1 Bft)
11.02.2026 02:31 21,8 °C 4,2 °C 47 % 87 % 988,7 hPa 0,0 l/m² 1,0 km/h (0 Bft) O-SO 123 ° 0 min 0 W/m² 2,2 °C 4,2 °C 6,4 km/h (2 Bft)
11.02.2026 02:33 21,8 °C 4,3 °C 47 % 87 % 988,6 hPa 0,0 l/m² 4,0 km/h (1 Bft) O-SO 111 ° 0 min 0 W/m² 2,3 °C 4,3 °C 6,4 km/h (2 Bft)
11.02.2026 02:34 21,8 °C 4,3 °C 47 % 87 % 988,6 hPa 0,0 l/m² 2,1 km/h (1 Bft) O-SO 107 ° 0 min 0 W/m² 2,3 °C 4,3 °C 6,4 km/h (2 Bft)
11.02.2026 02:35 21,8 °C 4,3 °C 47 % 87 % 988,6 hPa 0,0 l/m² 4,8 km/h (1 Bft) O-SO 107 ° 0 min 0 W/m² 2,3 °C 4,3 °C 6,4 km/h (2 Bft)
11.02.2026 02:36 21,8 °C 4,3 °C 47 % 87 % 988,6 hPa 0,0 l/m² 5,1 km/h (1 Bft) O-SO 110 ° 0 min 0 W/m² 2,3 °C 4,3 °C 9,7 km/h (2 Bft)
11.02.2026 02:37 21,8 °C 4,3 °C 47 % 87 % 988,5 hPa 0,0 l/m² 5,1 km/h (1 Bft) O-SO 109 ° 0 min 0 W/m² 2,3 °C 4,3 °C 6,4 km/h (2 Bft)
11.02.2026 02:38 21,8 °C 4,3 °C 47 % 87 % 988,5 hPa 0,0 l/m² 6,1 km/h (2 Bft) O-SO 108 ° 0 min 0 W/m² 2,3 °C 4,3 °C 11,3 km/h (2 Bft)
11.02.2026 02:39 21,8 °C 4,3 °C 47 % 87 % 988,5 hPa 0,0 l/m² 5,1 km/h (1 Bft) O-SO 119 ° 0 min 0 W/m² 2,3 °C 4,3 °C 9,7 km/h (2 Bft)
11.02.2026 02:41 21,8 °C 4,4 °C 47 % 87 % 988,5 hPa 0,0 l/m² 7,7 km/h (2 Bft) SO 125 ° 0 min 0 W/m² 2,4 °C 3,2 °C 12,9 km/h (3 Bft)
11.02.2026 02:43 21,8 °C 4,4 °C 47 % 87 % 988,5 hPa 0,0 l/m² 6,7 km/h (2 Bft) O-SO 109 ° 0 min 0 W/m² 2,4 °C 4,1 °C 12,9 km/h (3 Bft)
11.02.2026 02:44 21,8 °C 4,4 °C 47 % 87 % 988,5 hPa 0,0 l/m² 6,7 km/h (2 Bft) O-SO 119 ° 0 min 0 W/m² 2,4 °C 4,1 °C 9,7 km/h (2 Bft)
11.02.2026 02:45 21,8 °C 4,4 °C 47 % 87 % 988,4 hPa 0,0 l/m² 7,0 km/h (2 Bft) O-SO 109 ° 0 min 0 W/m² 2,4 °C 3,9 °C 9,7 km/h (2 Bft)
11.02.2026 02:46 21,8 °C 4,4 °C 47 % 87 % 988,5 hPa 0,0 l/m² 7,4 km/h (2 Bft) O-SO 119 ° 0 min 0 W/m² 2,4 °C 3,5 °C 11,3 km/h (2 Bft)
11.02.2026 02:47 21,8 °C 4,4 °C 47 % 87 % 988,4 hPa 0,0 l/m² 6,4 km/h (2 Bft) O-SO 104 ° 0 min 0 W/m² 2,4 °C 4,4 °C 9,7 km/h (2 Bft)
11.02.2026 02:48 21,8 °C 4,5 °C 47 % 87 % 988,5 hPa 0,0 l/m² 6,2 km/h (2 Bft) SO 128 ° 0 min 0 W/m² 2,5 °C 4,5 °C 9,7 km/h (2 Bft)
11.02.2026 02:49 21,8 °C 4,4 °C 47 % 87 % 988,4 hPa 0,0 l/m² 4,0 km/h (1 Bft) O-SO 108 ° 0 min 0 W/m² 2,4 °C 4,4 °C 6,4 km/h (2 Bft)
11.02.2026 02:51 21,8 °C 4,5 °C 47 % 87 % 988,4 hPa 0,0 l/m² 0,8 km/h (0 Bft) O-SO 117 ° 0 min 0 W/m² 2,5 °C 4,5 °C 9,7 km/h (2 Bft)
11.02.2026 02:53 21,8 °C 4,5 °C 47 % 87 % 988,3 hPa 0,0 l/m² 7,6 km/h (2 Bft) O-SO 111 ° 0 min 0 W/m² 2,5 °C 3,4 °C 12,9 km/h (3 Bft)
11.02.2026 02:54 21,8 °C 4,5 °C 47 % 87 % 988,3 hPa 0,0 l/m² 5,7 km/h (2 Bft) O 95 ° 0 min 0 W/m² 2,5 °C 4,5 °C 6,4 km/h (2 Bft)
11.02.2026 02:55 21,8 °C 4,6 °C 47 % 87 % 988,3 hPa 0,0 l/m² 4,9 km/h (1 Bft) O 99 ° 0 min 0 W/m² 2,6 °C 4,6 °C 6,4 km/h (2 Bft)
11.02.2026 02:56 21,8 °C 4,6 °C 47 % 87 % 988,2 hPa 0,0 l/m² 5,6 km/h (2 Bft) O-SO 109 ° 0 min 0 W/m² 2,6 °C 4,6 °C 9,7 km/h (2 Bft)
11.02.2026 02:57 21,8 °C 4,6 °C 47 % 87 % 988,2 hPa 0,0 l/m² 5,5 km/h (2 Bft) O 100 ° 0 min 0 W/m² 2,6 °C 4,6 °C 6,4 km/h (2 Bft)
11.02.2026 02:58 21,7 °C 4,6 °C 47 % 87 % 988,2 hPa 0,0 l/m² 5,0 km/h (1 Bft) O 94 ° 0 min 0 W/m² 2,6 °C 4,6 °C 9,7 km/h (2 Bft)
11.02.2026 02:59 21,8 °C 4,6 °C 47 % 87 % 988,2 hPa 0,0 l/m² 4,5 km/h (1 Bft) O-SO 105 ° 0 min 0 W/m² 2,6 °C 4,6 °C 6,4 km/h (2 Bft)
11.02.2026 03:01 21,7 °C 4,6 °C 47 % 87 % 988,2 hPa 0,0 l/m² 7,0 km/h (2 Bft) O 100 ° 0 min 0 W/m² 2,6 °C 4,1 °C 11,3 km/h (2 Bft)
11.02.2026 03:03 21,8 °C 4,6 °C 47 % 87 % 988,1 hPa 0,0 l/m² 4,7 km/h (1 Bft) O-SO 105 ° 0 min 0 W/m² 2,6 °C 4,6 °C 9,7 km/h (2 Bft)
11.02.2026 03:04 21,7 °C 4,6 °C 47 % 87 % 988,2 hPa 0,0 l/m² 0,0 km/h (0 Bft) O-SO 110 ° 0 min 0 W/m² 2,6 °C 4,6 °C 0,0 km/h (0 Bft)
11.02.2026 03:05 21,7 °C 4,6 °C 47 % 87 % 988,2 hPa 0,0 l/m² 4,2 km/h (1 Bft) O-SO 103 ° 0 min 0 W/m² 2,6 °C 4,6 °C 9,7 km/h (2 Bft)
11.02.2026 03:06 21,7 °C 4,6 °C 47 % 87 % 988,2 hPa 0,0 l/m² 2,6 km/h (1 Bft) O-SO 103 ° 0 min 0 W/m² 2,6 °C 4,6 °C 4,8 km/h (1 Bft)
11.02.2026 03:07 21,7 °C 4,6 °C 47 % 87 % 988,1 hPa 0,0 l/m² 3,0 km/h (1 Bft) O-SO 114 ° 0 min 0 W/m² 2,6 °C 4,6 °C 6,4 km/h (2 Bft)
11.02.2026 03:08 21,7 °C 4,6 °C 47 % 87 % 988,1 hPa 0,0 l/m² 0,0 km/h (0 Bft) O 101 ° 0 min 0 W/m² 2,6 °C 4,6 °C 0,0 km/h (0 Bft)
11.02.2026 03:09 21,7 °C 4,6 °C 47 % 87 % 988,0 hPa 0,0 l/m² 3,5 km/h (1 Bft) O-SO 110 ° 0 min 0 W/m² 2,6 °C 4,6 °C 6,4 km/h (2 Bft)
11.02.2026 03:11 21,8 °C 4,6 °C 47 % 87 % 988,1 hPa 0,0 l/m² 2,9 km/h (1 Bft) O-SO 109 ° 0 min 0 W/m² 2,6 °C 4,6 °C 6,4 km/h (2 Bft)
11.02.2026 03:13 21,7 °C 4,6 °C 47 % 87 % 988,0 hPa 0,0 l/m² 4,4 km/h (1 Bft) O-SO 106 ° 0 min 0 W/m² 2,6 °C 4,6 °C 9,7 km/h (2 Bft)
11.02.2026 03:14 21,8 °C 4,6 °C 47 % 87 % 988,0 hPa 0,0 l/m² 0,2 km/h (0 Bft) O-SO 105 ° 0 min 0 W/m² 2,6 °C 4,6 °C 3,2 km/h (1 Bft)
11.02.2026 03:15 21,7 °C 4,6 °C 47 % 87 % 988,0 hPa 0,0 l/m² 0,0 km/h (0 Bft) O-SO 104 ° 0 min 0 W/m² 2,6 °C 4,6 °C 0,0 km/h (0 Bft)
11.02.2026 03:16 21,8 °C 4,6 °C 47 % 87 % 988,0 hPa 0,0 l/m² 0,0 km/h (0 Bft) O-SO 104 ° 0 min 0 W/m² 2,6 °C 4,6 °C 0,0 km/h (0 Bft)
11.02.2026 03:17 21,7 °C 4,6 °C 47 % 87 % 988,0 hPa 0,0 l/m² 0,0 km/h (0 Bft) O-SO 105 ° 0 min 0 W/m² 2,6 °C 4,6 °C 0,0 km/h (0 Bft)
11.02.2026 03:18 21,7 °C 4,6 °C 47 % 87 % 988,0 hPa 0,0 l/m² 0,0 km/h (0 Bft) O-SO 105 ° 0 min 0 W/m² 2,6 °C 4,6 °C 0,0 km/h (0 Bft)
11.02.2026 03:19 21,7 °C 4,6 °C 47 % 87 % 987,9 hPa 0,0 l/m² 0,9 km/h (0 Bft) O-SO 116 ° 0 min 0 W/m² 2,6 °C 4,6 °C 4,8 km/h (1 Bft)
11.02.2026 03:21 21,7 °C 4,5 °C 47 % 87 % 988,0 hPa 0,0 l/m² 1,4 km/h (1 Bft) O 101 ° 0 min 0 W/m² 2,5 °C 4,5 °C 4,8 km/h (1 Bft)
11.02.2026 03:23 21,7 °C 4,5 °C 47 % 87 % 987,9 hPa 0,0 l/m² 3,6 km/h (1 Bft) O-SO 103 ° 0 min 0 W/m² 2,5 °C 4,5 °C 9,7 km/h (2 Bft)
11.02.2026 03:24 21,7 °C 4,5 °C 47 % 87 % 987,8 hPa 0,0 l/m² 4,1 km/h (1 Bft) O-SO 107 ° 0 min 0 W/m² 2,5 °C 4,5 °C 4,8 km/h (1 Bft)
11.02.2026 03:25 21,7 °C 4,5 °C 47 % 87 % 987,9 hPa 0,0 l/m² 5,1 km/h (1 Bft) O-SO 105 ° 0 min 0 W/m² 2,5 °C 4,5 °C 9,7 km/h (2 Bft)
11.02.2026 03:26 21,7 °C 4,5 °C 47 % 87 % 987,9 hPa 0,0 l/m² 1,0 km/h (0 Bft) O-SO 111 ° 0 min 0 W/m² 2,5 °C 4,5 °C 6,4 km/h (2 Bft)
11.02.2026 03:27 21,7 °C 4,4 °C 47 % 87 % 987,8 hPa 0,0 l/m² 0,1 km/h (0 Bft) O-SO 114 ° 0 min 0 W/m² 2,4 °C 4,4 °C 1,6 km/h (1 Bft)
11.02.2026 03:28 21,7 °C 4,4 °C 47 % 87 % 987,8 hPa 0,0 l/m² 1,3 km/h (1 Bft) O-SO 117 ° 0 min 0 W/m² 2,4 °C 4,4 °C 4,8 km/h (1 Bft)
11.02.2026 03:29 21,7 °C 4,4 °C 47 % 87 % 987,8 hPa 0,0 l/m² 0,9 km/h (0 Bft) O-SO 109 ° 0 min 0 W/m² 2,4 °C 4,4 °C 3,2 km/h (1 Bft)
11.02.2026 03:31 21,7 °C 4,4 °C 47 % 87 % 987,8 hPa 0,0 l/m² 0,5 km/h (0 Bft) O-SO 109 ° 0 min 0 W/m² 2,4 °C 4,4 °C 3,2 km/h (1 Bft)
11.02.2026 03:33 21,7 °C 4,4 °C 47 % 87 % 987,7 hPa 0,0 l/m² 1,0 km/h (0 Bft) O-SO 114 ° 0 min 0 W/m² 2,4 °C 4,4 °C 4,8 km/h (1 Bft)
11.02.2026 03:34 21,7 °C 4,4 °C 47 % 87 % 987,8 hPa 0,0 l/m² 0,7 km/h (0 Bft) O-SO 114 ° 0 min 0 W/m² 2,4 °C 4,4 °C 4,8 km/h (1 Bft)
11.02.2026 03:35 21,7 °C 4,3 °C 47 % 87 % 987,6 hPa 0,0 l/m² 0,3 km/h (0 Bft) O-SO 105 ° 0 min 0 W/m² 2,3 °C 4,3 °C 1,6 km/h (1 Bft)
11.02.2026 03:36 21,7 °C 4,3 °C 47 % 87 % 987,6 hPa 0,0 l/m² 0,4 km/h (0 Bft) O-SO 105 ° 0 min 0 W/m² 2,3 °C 4,3 °C 1,6 km/h (1 Bft)
11.02.2026 03:37 21,7 °C 4,3 °C 47 % 87 % 987,7 hPa 0,0 l/m² 0,7 km/h (0 Bft) O-SO 105 ° 0 min 0 W/m² 2,3 °C 4,3 °C 3,2 km/h (1 Bft)
11.02.2026 03:38 21,7 °C 4,3 °C 47 % 87 % 987,7 hPa 0,0 l/m² 3,8 km/h (1 Bft) O-SO 104 ° 0 min 0 W/m² 2,3 °C 4,3 °C 4,8 km/h (1 Bft)
11.02.2026 03:39 21,7 °C 4,3 °C 47 % 87 % 987,7 hPa 0,0 l/m² 1,4 km/h (1 Bft) O-SO 111 ° 0 min 0 W/m² 2,3 °C 4,3 °C 3,2 km/h (1 Bft)
11.02.2026 03:41 21,7 °C 4,3 °C 47 % 87 % 987,7 hPa 0,0 l/m² 0,0 km/h (0 Bft) O-SO 111 ° 0 min 0 W/m² 2,3 °C 4,3 °C 0,0 km/h (0 Bft)
11.02.2026 03:43 21,7 °C 4,3 °C 47 % 87 % 987,7 hPa 0,0 l/m² 0,0 km/h (0 Bft) O-SO 111 ° 0 min 0 W/m² 2,3 °C 4,3 °C 0,0 km/h (0 Bft)
11.02.2026 03:44 21,7 °C 4,3 °C 47 % 87 % 987,6 hPa 0,0 l/m² 0,0 km/h (0 Bft) O-SO 111 ° 0 min 0 W/m² 2,3 °C 4,3 °C 0,0 km/h (0 Bft)
11.02.2026 03:46 21,7 °C 4,3 °C 47 % 87 % 987,7 hPa 0,0 l/m² 0,0 km/h (0 Bft) O-SO 111 ° 0 min 0 W/m² 2,3 °C 4,3 °C 0,0 km/h (0 Bft)
11.02.2026 03:47 21,7 °C 4,3 °C 47 % 87 % 987,6 hPa 0,0 l/m² 0,0 km/h (0 Bft) O-SO 111 ° 0 min 0 W/m² 2,3 °C 4,3 °C 0,0 km/h (0 Bft)
11.02.2026 03:48 21,7 °C 4,3 °C 47 % 87 % 987,6 hPa 0,0 l/m² 0,0 km/h (0 Bft) O-SO 111 ° 0 min 0 W/m² 2,3 °C 4,3 °C 0,0 km/h (0 Bft)
11.02.2026 03:49 21,7 °C 4,3 °C 47 % 87 % 987,5 hPa 0,0 l/m² 3,2 km/h (1 Bft) O 82 ° 0 min 0 W/m² 2,3 °C 4,3 °C 4,8 km/h (1 Bft)
11.02.2026 03:51 21,8 °C 4,3 °C 47 % 87 % 987,6 hPa 0,0 l/m² 3,8 km/h (1 Bft) O 92 ° 0 min 0 W/m² 2,3 °C 4,3 °C 4,8 km/h (1 Bft)
11.02.2026 03:53 21,7 °C 4,2 °C 47 % 87 % 987,6 hPa 0,0 l/m² 1,5 km/h (1 Bft) O-NO 72 ° 0 min 0 W/m² 2,2 °C 4,2 °C 4,8 km/h (1 Bft)
11.02.2026 03:54 21,7 °C 4,2 °C 47 % 87 % 987,6 hPa 0,0 l/m² 1,3 km/h (1 Bft) O-NO 76 ° 0 min 0 W/m² 2,2 °C 4,2 °C 4,8 km/h (1 Bft)
11.02.2026 03:55 21,7 °C 4,2 °C 47 % 87 % 987,5 hPa 0,0 l/m² 1,0 km/h (0 Bft) O-NO 69 ° 0 min 0 W/m² 2,2 °C 4,2 °C 4,8 km/h (1 Bft)
11.02.2026 03:56 21,7 °C 4,2 °C 47 % 87 % 987,5 hPa 0,0 l/m² 1,9 km/h (1 Bft) O-NO 76 ° 0 min 0 W/m² 2,2 °C 4,2 °C 4,8 km/h (1 Bft)
11.02.2026 03:57 21,7 °C 4,2 °C 47 % 87 % 987,5 hPa 0,0 l/m² 0,7 km/h (0 Bft) O 80 ° 0 min 0 W/m² 2,2 °C 4,2 °C 4,8 km/h (1 Bft)
11.02.2026 03:58 21,7 °C 4,3 °C 47 % 87 % 987,5 hPa 0,0 l/m² 0,5 km/h (0 Bft) O-NO 72 ° 0 min 0 W/m² 2,3 °C 4,3 °C 1,6 km/h (1 Bft)
11.02.2026 03:59 21,7 °C 4,3 °C 47 % 87 % 987,5 hPa 0,0 l/m² 1,1 km/h (1 Bft) O 80 ° 0 min 0 W/m² 2,3 °C 4,3 °C 6,4 km/h (2 Bft)
11.02.2026 04:03 21,8 °C 4,3 °C 47 % 88 % 987,5 hPa 0,0 l/m² 2,1 km/h (1 Bft) O 91 ° 0 min 0 W/m² 2,5 °C 4,3 °C 9,7 km/h (2 Bft)
11.02.2026 04:04 21,8 °C 4,3 °C 47 % 88 % 987,5 hPa 0,0 l/m² 0,9 km/h (0 Bft) O 80 ° 0 min 0 W/m² 2,5 °C 4,3 °C 4,8 km/h (1 Bft)
11.02.2026 04:05 21,7 °C 4,3 °C 47 % 88 % 987,5 hPa 0,0 l/m² 3,8 km/h (1 Bft) O 95 ° 0 min 0 W/m² 2,5 °C 4,3 °C 6,4 km/h (2 Bft)
11.02.2026 04:06 21,7 °C 4,3 °C 47 % 88 % 987,4 hPa 0,0 l/m² 3,8 km/h (1 Bft) O 84 ° 0 min 0 W/m² 2,5 °C 4,3 °C 4,8 km/h (1 Bft)
11.02.2026 04:08 21,7 °C 4,3 °C 47 % 88 % 987,4 hPa 0,0 l/m² 3,9 km/h (1 Bft) O-NO 74 ° 0 min 0 W/m² 2,5 °C 4,3 °C 6,4 km/h (2 Bft)
11.02.2026 04:09 21,7 °C 4,3 °C 47 % 88 % 987,3 hPa 0,0 l/m² 5,7 km/h (2 Bft) O-SO 102 ° 0 min 0 W/m² 2,5 °C 4,3 °C 6,4 km/h (2 Bft)
11.02.2026 04:11 21,7 °C 4,3 °C 47 % 88 % 987,3 hPa 0,0 l/m² 5,7 km/h (2 Bft) O-SO 102 ° 0 min 0 W/m² 2,5 °C 4,3 °C 9,7 km/h (2 Bft)
11.02.2026 04:13 21,7 °C 4,3 °C 47 % 88 % 987,4 hPa 0,0 l/m² 6,1 km/h (2 Bft) O 95 ° 0 min 0 W/m² 2,5 °C 4,3 °C 9,7 km/h (2 Bft)
11.02.2026 04:14 21,8 °C 4,3 °C 47 % 88 % 987,3 hPa 0,0 l/m² 6,5 km/h (2 Bft) O 94 ° 0 min 0 W/m² 2,5 °C 4,2 °C 9,7 km/h (2 Bft)
11.02.2026 04:15 21,8 °C 4,3 °C 47 % 88 % 987,3 hPa 0,0 l/m² 8,0 km/h (2 Bft) O 98 ° 0 min 0 W/m² 2,5 °C 2,9 °C 12,9 km/h (3 Bft)
11.02.2026 04:16 21,8 °C 4,3 °C 47 % 88 % 987,3 hPa 0,0 l/m² 7,0 km/h (2 Bft) O-SO 104 ° 0 min 0 W/m² 2,5 °C 3,8 °C 9,7 km/h (2 Bft)
11.02.2026 04:17 21,8 °C 4,3 °C 47 % 88 % 987,3 hPa 0,0 l/m² 6,9 km/h (2 Bft) O 100 ° 0 min 0 W/m² 2,5 °C 3,9 °C 9,7 km/h (2 Bft)
11.02.2026 04:18 21,8 °C 4,3 °C 47 % 88 % 987,3 hPa 0,0 l/m² 5,8 km/h (2 Bft) O-SO 107 ° 0 min 0 W/m² 2,5 °C 4,3 °C 9,7 km/h (2 Bft)
11.02.2026 04:19 21,8 °C 4,3 °C 47 % 88 % 987,2 hPa 0,0 l/m² 5,2 km/h (1 Bft) O-SO 119 ° 0 min 0 W/m² 2,5 °C 4,3 °C 9,7 km/h (2 Bft)
11.02.2026 04:21 21,8 °C 4,3 °C 47 % 88 % 987,3 hPa 0,0 l/m² 4,0 km/h (1 Bft) O 96 ° 0 min 0 W/m² 2,5 °C 4,3 °C 9,7 km/h (2 Bft)
11.02.2026 04:23 21,8 °C 4,2 °C 47 % 88 % 987,4 hPa 0,0 l/m² 4,9 km/h (1 Bft) O 86 ° 0 min 0 W/m² 2,4 °C 4,2 °C 9,7 km/h (2 Bft)
11.02.2026 04:24 21,8 °C 4,3 °C 47 % 88 % 987,4 hPa 0,0 l/m² 0,7 km/h (0 Bft) O 101 ° 0 min 0 W/m² 2,5 °C 4,3 °C 4,8 km/h (1 Bft)
11.02.2026 04:25 21,8 °C 4,3 °C 47 % 88 % 987,4 hPa 0,0 l/m² 0,0 km/h (0 Bft) O-SO 107 ° 0 min 0 W/m² 2,5 °C 4,3 °C 0,0 km/h (0 Bft)
11.02.2026 04:26 21,8 °C 4,3 °C 47 % 88 % 987,4 hPa 0,0 l/m² 4,6 km/h (1 Bft) O-SO 105 ° 0 min 0 W/m² 2,5 °C 4,3 °C 6,4 km/h (2 Bft)
11.02.2026 04:27 21,7 °C 4,3 °C 47 % 88 % 987,3 hPa 0,0 l/m² 0,1 km/h (0 Bft) O 84 ° 0 min 0 W/m² 2,5 °C 4,3 °C 1,6 km/h (1 Bft)
11.02.2026 04:28 21,8 °C 4,3 °C 47 % 88 % 987,3 hPa 0,0 l/m² 1,3 km/h (1 Bft) O 87 ° 0 min 0 W/m² 2,5 °C 4,3 °C 4,8 km/h (1 Bft)
11.02.2026 04:29 21,8 °C 4,3 °C 47 % 88 % 987,3 hPa 0,0 l/m² 4,2 km/h (1 Bft) O 100 ° 0 min 0 W/m² 2,5 °C 4,3 °C 6,4 km/h (2 Bft)
11.02.2026 04:31 21,8 °C 4,3 °C 47 % 88 % 987,3 hPa 0,0 l/m² 4,8 km/h (1 Bft) O-SO 106 ° 0 min 0 W/m² 2,5 °C 4,3 °C 9,7 km/h (2 Bft)
11.02.2026 04:33 21,8 °C 4,3 °C 47 % 88 % 987,3 hPa 0,0 l/m² 5,8 km/h (2 Bft) O 87 ° 0 min 0 W/m² 2,5 °C 4,3 °C 9,7 km/h (2 Bft)
11.02.2026 04:34 21,7 °C 4,3 °C 47 % 88 % 987,3 hPa 0,0 l/m² 4,6 km/h (1 Bft) O 88 ° 0 min 0 W/m² 2,5 °C 4,3 °C 9,7 km/h (2 Bft)
11.02.2026 04:35 21,8 °C 4,3 °C 47 % 88 % 987,3 hPa 0,0 l/m² 4,5 km/h (1 Bft) O 88 ° 0 min 0 W/m² 2,5 °C 4,3 °C 4,8 km/h (1 Bft)
11.02.2026 04:36 21,8 °C 4,3 °C 47 % 88 % 987,3 hPa 0,0 l/m² 5,8 km/h (2 Bft) O 86 ° 0 min 0 W/m² 2,5 °C 4,3 °C 6,4 km/h (2 Bft)
11.02.2026 04:37 21,8 °C 4,3 °C 47 % 88 % 987,2 hPa 0,0 l/m² 6,7 km/h (2 Bft) O 86 ° 0 min 0 W/m² 2,5 °C 4,0 °C 8,0 km/h (2 Bft)
11.02.2026 04:38 21,8 °C 4,3 °C 47 % 88 % 987,3 hPa 0,0 l/m² 6,9 km/h (2 Bft) O 84 ° 0 min 0 W/m² 2,5 °C 3,9 °C 9,7 km/h (2 Bft)
11.02.2026 04:39 21,8 °C 4,3 °C 47 % 88 % 987,3 hPa 0,0 l/m² 7,2 km/h (2 Bft) O 84 ° 0 min 0 W/m² 2,5 °C 3,6 °C 9,7 km/h (2 Bft)
11.02.2026 04:41 21,8 °C 4,3 °C 47 % 88 % 987,3 hPa 0,0 l/m² 8,3 km/h (2 Bft) O-SO 111 ° 0 min 0 W/m² 2,5 °C 2,6 °C 11,3 km/h (2 Bft)
11.02.2026 04:43 21,8 °C 4,4 °C 47 % 88 % 987,2 hPa 0,0 l/m² 7,3 km/h (2 Bft) O 84 ° 0 min 0 W/m² 2,6 °C 3,6 °C 11,3 km/h (2 Bft)
11.02.2026 04:44 21,8 °C 4,3 °C 47 % 88 % 987,1 hPa 0,0 l/m² 7,7 km/h (2 Bft) O 101 ° 0 min 0 W/m² 2,5 °C 3,1 °C 9,7 km/h (2 Bft)
11.02.2026 04:45 21,8 °C 4,4 °C 47 % 88 % 987,2 hPa 0,0 l/m² 6,4 km/h (2 Bft) O-SO 107 ° 0 min 0 W/m² 2,6 °C 4,4 °C 9,7 km/h (2 Bft)
11.02.2026 04:46 21,8 °C 4,3 °C 47 % 88 % 987,2 hPa 0,0 l/m² 5,4 km/h (2 Bft) O 101 ° 0 min 0 W/m² 2,5 °C 4,3 °C 6,4 km/h (2 Bft)
11.02.2026 04:47 21,8 °C 4,3 °C 47 % 88 % 987,2 hPa 0,0 l/m² 7,7 km/h (2 Bft) O 94 ° 0 min 0 W/m² 2,5 °C 3,1 °C 11,3 km/h (2 Bft)
11.02.2026 04:48 21,8 °C 4,4 °C 47 % 88 % 987,2 hPa 0,0 l/m² 6,0 km/h (2 Bft) O 94 ° 0 min 0 W/m² 2,6 °C 4,4 °C 6,4 km/h (2 Bft)
11.02.2026 04:49 21,8 °C 4,3 °C 47 % 88 % 987,2 hPa 0,0 l/m² 7,2 km/h (2 Bft) O 101 ° 0 min 0 W/m² 2,5 °C 3,6 °C 9,7 km/h (2 Bft)
11.02.2026 04:51 21,8 °C 4,4 °C 47 % 88 % 987,1 hPa 0,0 l/m² 7,3 km/h (2 Bft) O 98 ° 0 min 0 W/m² 2,6 °C 3,6 °C 11,3 km/h (2 Bft)
11.02.2026 04:53 21,8 °C 4,4 °C 47 % 88 % 987,0 hPa 0,0 l/m² 7,1 km/h (2 Bft) O-SO 103 ° 0 min 0 W/m² 2,6 °C 3,8 °C 11,3 km/h (2 Bft)
11.02.2026 04:54 21,8 °C 4,4 °C 47 % 89 % 987,0 hPa 0,0 l/m² 7,4 km/h (2 Bft) O-SO 103 ° 0 min 0 W/m² 2,7 °C 3,5 °C 12,9 km/h (3 Bft)
11.02.2026 04:55 21,8 °C 4,4 °C 47 % 89 % 987,0 hPa 0,0 l/m² 7,1 km/h (2 Bft) O 95 ° 0 min 0 W/m² 2,7 °C 3,8 °C 9,7 km/h (2 Bft)
11.02.2026 04:56 21,8 °C 4,4 °C 47 % 89 % 987,0 hPa 0,0 l/m² 5,1 km/h (1 Bft) O 90 ° 0 min 0 W/m² 2,7 °C 4,4 °C 6,4 km/h (2 Bft)
11.02.2026 04:57 21,8 °C 4,4 °C 48 % 89 % 987,0 hPa 0,0 l/m² 6,2 km/h (2 Bft) O-SO 105 ° 0 min 0 W/m² 2,7 °C 4,4 °C 9,7 km/h (2 Bft)
11.02.2026 04:58 21,8 °C 4,4 °C 48 % 89 % 987,0 hPa 0,0 l/m² 4,1 km/h (1 Bft) O-SO 103 ° 0 min 0 W/m² 2,7 °C 4,4 °C 6,4 km/h (2 Bft)
11.02.2026 04:59 21,8 °C 4,5 °C 48 % 89 % 987,0 hPa 0,0 l/m² 1,5 km/h (1 Bft) O-SO 106 ° 0 min 0 W/m² 2,8 °C 4,5 °C 9,7 km/h (2 Bft)
11.02.2026 05:01 21,8 °C 4,5 °C 48 % 89 % 987,0 hPa 0,0 l/m² 2,3 km/h (1 Bft) O 94 ° 0 min 0 W/m² 2,8 °C 4,5 °C 9,7 km/h (2 Bft)
11.02.2026 05:03 21,8 °C 4,4 °C 48 % 89 % 986,9 hPa 0,0 l/m² 7,1 km/h (2 Bft) O 88 ° 0 min 0 W/m² 2,7 °C 3,8 °C 11,3 km/h (2 Bft)
11.02.2026 05:04 21,8 °C 4,4 °C 48 % 89 % 986,9 hPa 0,0 l/m² 6,9 km/h (2 Bft) O 88 ° 0 min 0 W/m² 2,7 °C 4,0 °C 9,7 km/h (2 Bft)
11.02.2026 05:05 21,8 °C 4,4 °C 48 % 89 % 986,9 hPa 0,0 l/m² 8,3 km/h (2 Bft) O 88 ° 0 min 0 W/m² 2,7 °C 2,7 °C 11,3 km/h (2 Bft)
11.02.2026 05:06 21,8 °C 4,5 °C 48 % 89 % 986,9 hPa 0,0 l/m² 9,1 km/h (2 Bft) O 101 ° 0 min 0 W/m² 2,8 °C 2,2 °C 11,3 km/h (2 Bft)
11.02.2026 05:07 21,8 °C 4,5 °C 48 % 89 % 986,9 hPa 0,0 l/m² 9,9 km/h (2 Bft) O 90 ° 0 min 0 W/m² 2,8 °C 1,6 °C 11,3 km/h (2 Bft)
11.02.2026 05:08 21,8 °C 4,5 °C 48 % 89 % 986,8 hPa 0,0 l/m² 8,6 km/h (2 Bft) O 85 ° 0 min 0 W/m² 2,8 °C 2,6 °C 11,3 km/h (2 Bft)
11.02.2026 05:09 21,8 °C 4,6 °C 48 % 89 % 986,8 hPa 0,0 l/m² 7,8 km/h (2 Bft) O 83 ° 0 min 0 W/m² 2,9 °C 3,4 °C 11,3 km/h (2 Bft)
11.02.2026 05:11 21,8 °C 4,6 °C 48 % 89 % 986,9 hPa 0,0 l/m² 8,0 km/h (2 Bft) O 97 ° 0 min 0 W/m² 2,9 °C 3,2 °C 11,3 km/h (2 Bft)
11.02.2026 05:13 21,8 °C 4,6 °C 48 % 89 % 986,9 hPa 0,0 l/m² 6,7 km/h (2 Bft) O 96 ° 0 min 0 W/m² 2,9 °C 4,3 °C 9,7 km/h (2 Bft)
11.02.2026 05:14 21,8 °C 4,5 °C 47 % 89 % 986,9 hPa 0,0 l/m² 6,3 km/h (2 Bft) O 94 ° 0 min 0 W/m² 2,8 °C 4,5 °C 9,7 km/h (2 Bft)
11.02.2026 05:15 21,8 °C 4,6 °C 47 % 89 % 987,0 hPa 0,0 l/m² 5,8 km/h (2 Bft) O-SO 113 ° 0 min 0 W/m² 2,9 °C 4,6 °C 6,4 km/h (2 Bft)
11.02.2026 05:16 21,8 °C 4,6 °C 47 % 89 % 987,0 hPa 0,0 l/m² 2,9 km/h (1 Bft) O-SO 110 ° 0 min 0 W/m² 2,9 °C 4,6 °C 4,8 km/h (1 Bft)
11.02.2026 05:17 21,8 °C 4,5 °C 47 % 89 % 987,0 hPa 0,0 l/m² 0,0 km/h (0 Bft) SO 131 ° 0 min 0 W/m² 2,8 °C 4,5 °C 0,0 km/h (0 Bft)
11.02.2026 05:18 21,8 °C 4,5 °C 47 % 89 % 987,0 hPa 0,0 l/m² 0,0 km/h (0 Bft) SO 136 ° 0 min 0 W/m² 2,8 °C 4,5 °C 0,0 km/h (0 Bft)
11.02.2026 05:19 21,8 °C 4,5 °C 47 % 89 % 987,1 hPa 0,0 l/m² 0,0 km/h (0 Bft) SO 136 ° 0 min 0 W/m² 2,8 °C 4,5 °C 0,0 km/h (0 Bft)
11.02.2026 05:21 21,8 °C 4,4 °C 47 % 89 % 987,1 hPa 0,0 l/m² 0,0 km/h (0 Bft) S-SO 167 ° 0 min 0 W/m² 2,7 °C 4,4 °C 0,0 km/h (0 Bft)
11.02.2026 05:23 21,8 °C 4,4 °C 47 % 89 % 987,0 hPa 0,0 l/m² 0,0 km/h (0 Bft) S-SO 167 ° 0 min 0 W/m² 2,7 °C 4,4 °C 0,0 km/h (0 Bft)
11.02.2026 05:24 21,8 °C 4,4 °C 47 % 89 % 987,0 hPa 0,0 l/m² 0,0 km/h (0 Bft) S-SO 166 ° 0 min 0 W/m² 2,7 °C 4,4 °C 0,0 km/h (0 Bft)
11.02.2026 05:25 21,8 °C 4,4 °C 47 % 89 % 987,0 hPa 0,0 l/m² 0,0 km/h (0 Bft) S-SO 165 ° 0 min 0 W/m² 2,7 °C 4,4 °C 0,0 km/h (0 Bft)
11.02.2026 05:26 21,8 °C 4,4 °C 47 % 89 % 987,0 hPa 0,0 l/m² 0,0 km/h (0 Bft) O-SO 119 ° 0 min 0 W/m² 2,7 °C 4,4 °C 0,0 km/h (0 Bft)
11.02.2026 05:27 21,8 °C 4,4 °C 47 % 89 % 986,9 hPa 0,0 l/m² 0,0 km/h (0 Bft) O-SO 119 ° 0 min 0 W/m² 2,7 °C 4,4 °C 0,0 km/h (0 Bft)
11.02.2026 05:28 21,8 °C 4,4 °C 47 % 89 % 986,9 hPa 0,0 l/m² 0,1 km/h (0 Bft) O-NO 67 ° 0 min 0 W/m² 2,7 °C 4,4 °C 1,6 km/h (1 Bft)
11.02.2026 05:29 21,8 °C 4,4 °C 47 % 89 % 987,0 hPa 0,0 l/m² 0,0 km/h (0 Bft) O-NO 66 ° 0 min 0 W/m² 2,7 °C 4,4 °C 0,0 km/h (0 Bft)
11.02.2026 05:31 21,8 °C 4,4 °C 47 % 89 % 986,9 hPa 0,0 l/m² 0,0 km/h (0 Bft) O 96 ° 0 min 0 W/m² 2,7 °C 4,4 °C 0,0 km/h (0 Bft)
11.02.2026 05:33 21,8 °C 4,4 °C 47 % 89 % 986,9 hPa 0,0 l/m² 0,0 km/h (0 Bft) O 92 ° 0 min 0 W/m² 2,7 °C 4,4 °C 0,0 km/h (0 Bft)
11.02.2026 05:34 21,8 °C 4,4 °C 47 % 89 % 986,9 hPa 0,0 l/m² 0,0 km/h (0 Bft) O 92 ° 0 min 0 W/m² 2,7 °C 4,4 °C 0,0 km/h (0 Bft)
11.02.2026 05:35 21,8 °C 4,4 °C 47 % 89 % 986,9 hPa 0,0 l/m² 0,0 km/h (0 Bft) O 92 ° 0 min 0 W/m² 2,7 °C 4,4 °C 0,0 km/h (0 Bft)
11.02.2026 05:36 21,8 °C 4,4 °C 47 % 89 % 986,9 hPa 0,0 l/m² 0,0 km/h (0 Bft) O 93 ° 0 min 0 W/m² 2,7 °C 4,4 °C 0,0 km/h (0 Bft)
11.02.2026 05:37 21,8 °C 4,4 °C 47 % 89 % 986,9 hPa 0,0 l/m² 0,0 km/h (0 Bft) O 93 ° 0 min 0 W/m² 2,7 °C 4,4 °C 0,0 km/h (0 Bft)
11.02.2026 05:38 21,8 °C 4,4 °C 47 % 89 % 986,9 hPa 0,0 l/m² 0,0 km/h (0 Bft) O 93 ° 0 min 0 W/m² 2,7 °C 4,4 °C 0,0 km/h (0 Bft)
11.02.2026 05:39 21,8 °C 4,4 °C 47 % 89 % 986,9 hPa 0,0 l/m² 0,0 km/h (0 Bft) O 93 ° 0 min 0 W/m² 2,7 °C 4,4 °C 0,0 km/h (0 Bft)
11.02.2026 05:41 21,8 °C 4,4 °C 47 % 89 % 986,9 hPa 0,0 l/m² 0,0 km/h (0 Bft) O 93 ° 0 min 0 W/m² 2,7 °C 4,4 °C 0,0 km/h (0 Bft)
11.02.2026 05:43 21,8 °C 4,3 °C 47 % 89 % 986,8 hPa 0,0 l/m² 0,0 km/h (0 Bft) O 93 ° 0 min 0 W/m² 2,7 °C 4,3 °C 0,0 km/h (0 Bft)
11.02.2026 05:44 21,8 °C 4,3 °C 47 % 89 % 986,9 hPa 0,0 l/m² 0,0 km/h (0 Bft) O 93 ° 0 min 0 W/m² 2,7 °C 4,3 °C 0,0 km/h (0 Bft)
11.02.2026 05:45 21,8 °C 4,3 °C 47 % 89 % 986,9 hPa 0,0 l/m² 0,0 km/h (0 Bft) O 93 ° 0 min 0 W/m² 2,7 °C 4,3 °C 0,0 km/h (0 Bft)
11.02.2026 05:46 21,8 °C 4,3 °C 47 % 89 % 986,8 hPa 0,0 l/m² 0,0 km/h (0 Bft) O 93 ° 0 min 0 W/m² 2,7 °C 4,3 °C 0,0 km/h (0 Bft)
11.02.2026 05:47 21,8 °C 4,3 °C 47 % 89 % 986,8 hPa 0,0 l/m² 0,0 km/h (0 Bft) O 93 ° 0 min 0 W/m² 2,7 °C 4,3 °C 0,0 km/h (0 Bft)
11.02.2026 05:48 21,8 °C 4,3 °C 47 % 89 % 986,9 hPa 0,0 l/m² 0,0 km/h (0 Bft) O 93 ° 0 min 0 W/m² 2,7 °C 4,3 °C 0,0 km/h (0 Bft)
11.02.2026 05:49 21,8 °C 4,3 °C 47 % 89 % 986,8 hPa 0,0 l/m² 0,0 km/h (0 Bft) O 93 ° 0 min 0 W/m² 2,7 °C 4,3 °C 0,0 km/h (0 Bft)
11.02.2026 05:51 21,8 °C 4,3 °C 47 % 89 % 986,8 hPa 0,0 l/m² 0,0 km/h (0 Bft) O 93 ° 0 min 0 W/m² 2,7 °C 4,3 °C 0,0 km/h (0 Bft)
11.02.2026 05:53 21,8 °C 4,3 °C 47 % 89 % 986,8 hPa 0,0 l/m² 0,0 km/h (0 Bft) O-SO 121 ° 0 min 0 W/m² 2,7 °C 4,3 °C 0,0 km/h (0 Bft)
11.02.2026 05:54 21,8 °C 4,3 °C 47 % 89 % 986,8 hPa 0,0 l/m² 0,0 km/h (0 Bft) O-SO 121 ° 0 min 0 W/m² 2,7 °C 4,3 °C 0,0 km/h (0 Bft)
11.02.2026 05:55 21,8 °C 4,3 °C 47 % 89 % 986,8 hPa 0,0 l/m² 0,0 km/h (0 Bft) SO 128 ° 0 min 0 W/m² 2,7 °C 4,3 °C 0,0 km/h (0 Bft)
11.02.2026 05:56 21,8 °C 4,3 °C 47 % 89 % 986,8 hPa 0,0 l/m² 1,9 km/h (1 Bft) O-SO 113 ° 0 min 0 W/m² 2,7 °C 4,3 °C 6,4 km/h (2 Bft)
11.02.2026 05:57 21,8 °C 4,3 °C 47 % 89 % 986,7 hPa 0,0 l/m² 1,8 km/h (1 Bft) O-SO 123 ° 0 min 0 W/m² 2,7 °C 4,3 °C 4,8 km/h (1 Bft)
11.02.2026 05:58 21,8 °C 4,2 °C 47 % 89 % 986,7 hPa 0,0 l/m² 0,0 km/h (0 Bft) O-SO 109 ° 0 min 0 W/m² 2,6 °C 4,2 °C 0,0 km/h (0 Bft)
11.02.2026 05:59 21,8 °C 4,2 °C 47 % 89 % 986,7 hPa 0,0 l/m² 5,1 km/h (1 Bft) O-SO 107 ° 0 min 0 W/m² 2,6 °C 4,2 °C 6,4 km/h (2 Bft)
11.02.2026 06:00 21,8 °C 4,2 °C 47 % 89 % 986,7 hPa 0,0 l/m² 4,8 km/h (1 Bft) O-SO 117 ° 0 min 0 W/m² 2,6 °C 4,2 °C 6,4 km/h (2 Bft)
11.02.2026 06:02 21,8 °C 4,2 °C 47 % 89 % 986,7 hPa 0,0 l/m² 6,4 km/h (2 Bft) O-SO 116 ° 0 min 0 W/m² 2,6 °C 4,2 °C 9,7 km/h (2 Bft)
11.02.2026 06:03 21,8 °C 4,2 °C 47 % 89 % 986,7 hPa 0,0 l/m² 6,7 km/h (2 Bft) O-SO 110 ° 0 min 0 W/m² 2,6 °C 3,9 °C 11,3 km/h (2 Bft)
11.02.2026 06:04 21,8 °C 4,2 °C 47 % 89 % 986,6 hPa 0,0 l/m² 7,5 km/h (2 Bft) O-SO 123 ° 0 min 0 W/m² 2,6 °C 3,2 °C 11,3 km/h (2 Bft)
11.02.2026 06:05 21,8 °C 4,2 °C 47 % 89 % 986,6 hPa 0,0 l/m² 6,1 km/h (2 Bft) O 89 ° 0 min 0 W/m² 2,6 °C 4,2 °C 9,7 km/h (2 Bft)
11.02.2026 06:06 21,8 °C 4,2 °C 47 % 89 % 986,6 hPa 0,0 l/m² 5,5 km/h (2 Bft) O-SO 112 ° 0 min 0 W/m² 2,6 °C 4,2 °C 6,4 km/h (2 Bft)
11.02.2026 06:08 21,8 °C 4,2 °C 47 % 89 % 986,6 hPa 0,0 l/m² 6,6 km/h (2 Bft) O 98 ° 0 min 0 W/m² 2,6 °C 4,0 °C 9,7 km/h (2 Bft)
11.02.2026 06:09 21,8 °C 4,2 °C 47 % 89 % 986,6 hPa 0,0 l/m² 5,2 km/h (1 Bft) O-SO 110 ° 0 min 0 W/m² 2,6 °C 4,2 °C 6,4 km/h (2 Bft)
11.02.2026 06:11 21,8 °C 4,1 °C 47 % 89 % 986,5 hPa 0,0 l/m² 6,4 km/h (2 Bft) O-SO 105 ° 0 min 0 W/m² 2,5 °C 4,1 °C 9,7 km/h (2 Bft)
11.02.2026 06:13 21,7 °C 4,1 °C 47 % 89 % 986,5 hPa 0,0 l/m² 6,0 km/h (2 Bft) O-SO 113 ° 0 min 0 W/m² 2,5 °C 4,1 °C 9,7 km/h (2 Bft)
11.02.2026 06:14 21,7 °C 4,1 °C 47 % 89 % 986,5 hPa 0,0 l/m² 5,2 km/h (1 Bft) O-SO 120 ° 0 min 0 W/m² 2,5 °C 4,1 °C 6,4 km/h (2 Bft)
11.02.2026 06:15 21,7 °C 4,1 °C 47 % 89 % 986,6 hPa 0,0 l/m² 5,3 km/h (1 Bft) O-SO 113 ° 0 min 0 W/m² 2,5 °C 4,1 °C 6,4 km/h (2 Bft)
11.02.2026 06:16 21,7 °C 4,1 °C 47 % 89 % 986,5 hPa 0,0 l/m² 3,0 km/h (1 Bft) O-SO 118 ° 0 min 0 W/m² 2,5 °C 4,1 °C 6,4 km/h (2 Bft)
11.02.2026 06:17 21,8 °C 4,1 °C 47 % 89 % 986,5 hPa 0,0 l/m² 0,2 km/h (0 Bft) O-SO 118 ° 0 min 0 W/m² 2,5 °C 4,1 °C 1,6 km/h (1 Bft)
11.02.2026 06:18 21,8 °C 4,1 °C 47 % 89 % 986,5 hPa 0,0 l/m² 0,4 km/h (0 Bft) O-SO 117 ° 0 min 0 W/m² 2,5 °C 4,1 °C 3,2 km/h (1 Bft)
11.02.2026 06:19 21,7 °C 4,1 °C 47 % 89 % 986,5 hPa 0,0 l/m² 0,0 km/h (0 Bft) O-SO 117 ° 0 min 0 W/m² 2,5 °C 4,1 °C 0,0 km/h (0 Bft)
11.02.2026 06:21 21,7 °C 4,1 °C 47 % 89 % 986,5 hPa 0,0 l/m² 0,0 km/h (0 Bft) SO 137 ° 0 min 0 W/m² 2,5 °C 4,1 °C 0,0 km/h (0 Bft)
11.02.2026 06:23 21,7 °C 4,0 °C 47 % 89 % 986,5 hPa 0,0 l/m² 0,0 km/h (0 Bft) SO 138 ° 0 min 0 W/m² 2,4 °C 4,0 °C 0,0 km/h (0 Bft)
11.02.2026 06:24 21,7 °C 3,9 °C 47 % 89 % 986,5 hPa 0,0 l/m² 0,0 km/h (0 Bft) SO 138 ° 0 min 0 W/m² 2,3 °C 3,9 °C 0,0 km/h (0 Bft)
11.02.2026 06:25 21,7 °C 4,0 °C 47 % 89 % 986,3 hPa 0,0 l/m² 0,0 km/h (0 Bft) SO 138 ° 0 min 0 W/m² 2,4 °C 4,0 °C 0,0 km/h (0 Bft)
11.02.2026 06:26 21,7 °C 3,9 °C 47 % 89 % 986,3 hPa 0,0 l/m² 0,0 km/h (0 Bft) SO 138 ° 0 min 0 W/m² 2,3 °C 3,9 °C 0,0 km/h (0 Bft)
11.02.2026 06:27 21,8 °C 3,9 °C 47 % 89 % 986,4 hPa 0,0 l/m² 0,0 km/h (0 Bft) SO 138 ° 0 min 0 W/m² 2,3 °C 3,9 °C 0,0 km/h (0 Bft)
11.02.2026 06:28 21,7 °C 3,9 °C 47 % 89 % 986,4 hPa 0,0 l/m² 0,0 km/h (0 Bft) SO 138 ° 0 min 0 W/m² 2,3 °C 3,9 °C 0,0 km/h (0 Bft)
11.02.2026 06:29 21,7 °C 3,9 °C 47 % 89 % 986,3 hPa 0,0 l/m² 0,0 km/h (0 Bft) SO 138 ° 0 min 0 W/m² 2,3 °C 3,9 °C 0,0 km/h (0 Bft)
11.02.2026 06:31 21,8 °C 3,9 °C 47 % 89 % 986,4 hPa 0,0 l/m² 0,0 km/h (0 Bft) SO 134 ° 0 min 0 W/m² 2,3 °C 3,9 °C 0,0 km/h (0 Bft)
11.02.2026 06:33 21,7 °C 3,9 °C 47 % 89 % 986,2 hPa 0,0 l/m² 0,0 km/h (0 Bft) O-SO 118 ° 0 min 0 W/m² 2,3 °C 3,9 °C 0,0 km/h (0 Bft)
11.02.2026 06:34 21,7 °C 3,9 °C 47 % 89 % 986,3 hPa 0,0 l/m² 0,0 km/h (0 Bft) O-SO 118 ° 0 min 0 W/m² 2,3 °C 3,9 °C 0,0 km/h (0 Bft)
11.02.2026 06:35 21,7 °C 3,8 °C 47 % 89 % 986,2 hPa 0,0 l/m² 0,0 km/h (0 Bft) O-SO 116 ° 0 min 0 W/m² 2,2 °C 3,8 °C 0,0 km/h (0 Bft)
11.02.2026 06:36 21,7 °C 3,8 °C 47 % 89 % 986,3 hPa 0,0 l/m² 0,0 km/h (0 Bft) O-SO 114 ° 0 min 0 W/m² 2,2 °C 3,8 °C 0,0 km/h (0 Bft)
11.02.2026 06:37 21,7 °C 3,8 °C 47 % 89 % 986,3 hPa 0,0 l/m² 0,0 km/h (0 Bft) O-SO 109 ° 0 min 0 W/m² 2,2 °C 3,8 °C 0,0 km/h (0 Bft)
11.02.2026 06:38 21,7 °C 3,8 °C 47 % 89 % 986,2 hPa 0,0 l/m² 0,3 km/h (0 Bft) O-NO 73 ° 0 min 0 W/m² 2,2 °C 3,8 °C 1,6 km/h (1 Bft)
11.02.2026 06:39 21,7 °C 3,8 °C 47 % 89 % 986,2 hPa 0,0 l/m² 0,0 km/h (0 Bft) O 80 ° 0 min 0 W/m² 2,2 °C 3,8 °C 0,0 km/h (0 Bft)
11.02.2026 06:41 21,7 °C 3,8 °C 47 % 89 % 986,1 hPa 0,0 l/m² 0,1 km/h (0 Bft) O 80 ° 0 min 0 W/m² 2,2 °C 3,8 °C 1,6 km/h (1 Bft)
11.02.2026 06:42 21,8 °C 3,8 °C 47 % 89 % 986,1 hPa 0,0 l/m² 0,0 km/h (0 Bft) O 80 ° 0 min 0 W/m² 2,2 °C 3,8 °C 0,0 km/h (0 Bft)
11.02.2026 06:43 21,7 °C 3,8 °C 47 % 89 % 986,2 hPa 0,0 l/m² 0,0 km/h (0 Bft) O 80 ° 0 min 0 W/m² 2,2 °C 3,8 °C 0,0 km/h (0 Bft)
11.02.2026 06:44 21,7 °C 3,8 °C 47 % 89 % 986,1 hPa 0,0 l/m² 4,4 km/h (1 Bft) O 81 ° 0 min 0 W/m² 2,2 °C 3,8 °C 6,4 km/h (2 Bft)
11.02.2026 06:46 21,7 °C 3,8 °C 47 % 89 % 986,1 hPa 0,0 l/m² 6,5 km/h (2 Bft) O 87 ° 0 min 0 W/m² 2,2 °C 3,7 °C 8,0 km/h (2 Bft)
11.02.2026 06:47 21,7 °C 3,8 °C 47 % 89 % 986,1 hPa 0,0 l/m² 5,2 km/h (1 Bft) O 93 ° 0 min 0 W/m² 2,2 °C 3,8 °C 6,4 km/h (2 Bft)
11.02.2026 06:48 21,7 °C 3,8 °C 47 % 89 % 986,1 hPa 0,0 l/m² 4,5 km/h (1 Bft) O 94 ° 0 min 0 W/m² 2,2 °C 3,8 °C 4,8 km/h (1 Bft)
11.02.2026 06:49 21,7 °C 3,8 °C 47 % 89 % 986,1 hPa 0,0 l/m² 3,1 km/h (1 Bft) O 94 ° 0 min 0 W/m² 2,2 °C 3,8 °C 4,8 km/h (1 Bft)
11.02.2026 06:51 21,7 °C 3,8 °C 47 % 89 % 986,0 hPa 0,0 l/m² 0,3 km/h (0 Bft) O 94 ° 0 min 0 W/m² 2,2 °C 3,8 °C 3,2 km/h (1 Bft)
11.02.2026 06:53 21,8 °C 3,7 °C 47 % 89 % 986,0 hPa 0,0 l/m² 2,0 km/h (1 Bft) O 83 ° 0 min 0 W/m² 2,1 °C 3,7 °C 6,4 km/h (2 Bft)
11.02.2026 06:54 21,8 °C 3,7 °C 47 % 89 % 986,0 hPa 0,0 l/m² 4,2 km/h (1 Bft) O-NO 67 ° 0 min 0 W/m² 2,1 °C 3,7 °C 4,8 km/h (1 Bft)
11.02.2026 06:55 21,8 °C 3,7 °C 47 % 89 % 986,0 hPa 0,0 l/m² 1,8 km/h (1 Bft) O 86 ° 0 min 0 W/m² 2,1 °C 3,7 °C 9,7 km/h (2 Bft)
11.02.2026 06:56 21,8 °C 3,7 °C 47 % 89 % 986,1 hPa 0,0 l/m² 6,1 km/h (2 Bft) O 84 ° 0 min 0 W/m² 2,1 °C 3,7 °C 8,0 km/h (2 Bft)
11.02.2026 06:57 21,8 °C 3,7 °C 47 % 89 % 986,1 hPa 0,0 l/m² 8,6 km/h (2 Bft) O 90 ° 0 min 0 W/m² 2,1 °C 1,7 °C 11,3 km/h (2 Bft)
11.02.2026 06:58 21,8 °C 3,7 °C 47 % 89 % 986,1 hPa 0,0 l/m² 7,3 km/h (2 Bft) O 96 ° 0 min 0 W/m² 2,1 °C 2,9 °C 9,7 km/h (2 Bft)
11.02.2026 06:59 21,8 °C 3,7 °C 47 % 90 % 986,0 hPa 0,0 l/m² 5,7 km/h (2 Bft) O 94 ° 0 min 0 W/m² 2,2 °C 3,7 °C 6,4 km/h (2 Bft)
11.02.2026 07:01 21,7 °C 3,7 °C 47 % 90 % 985,9 hPa 0,0 l/m² 6,6 km/h (2 Bft) O 96 ° 0 min 0 W/m² 2,2 °C 3,5 °C 9,7 km/h (2 Bft)
11.02.2026 07:03 21,8 °C 3,7 °C 47 % 89 % 986,0 hPa 0,0 l/m² 6,3 km/h (2 Bft) O 93 ° 0 min 0 W/m² 2,1 °C 3,7 °C 9,7 km/h (2 Bft)
11.02.2026 07:04 21,8 °C 3,7 °C 47 % 90 % 986,0 hPa 0,0 l/m² 7,7 km/h (2 Bft) O 90 ° 0 min 0 W/m² 2,2 °C 2,5 °C 9,7 km/h (2 Bft)
11.02.2026 07:05 21,8 °C 3,7 °C 47 % 90 % 986,0 hPa 0,0 l/m² 8,0 km/h (2 Bft) O 98 ° 0 min 0 W/m² 2,2 °C 2,2 °C 9,7 km/h (2 Bft)
11.02.2026 07:06 21,8 °C 3,7 °C 47 % 90 % 986,0 hPa 0,0 l/m² 7,0 km/h (2 Bft) O 96 ° 0 min 0 W/m² 2,2 °C 3,1 °C 9,7 km/h (2 Bft)
11.02.2026 07:07 21,7 °C 3,7 °C 47 % 90 % 986,0 hPa 0,0 l/m² 6,5 km/h (2 Bft) O 98 ° 0 min 0 W/m² 2,2 °C 3,6 °C 9,7 km/h (2 Bft)
11.02.2026 07:08 21,8 °C 3,6 °C 47 % 90 % 986,0 hPa 0,0 l/m² 6,2 km/h (2 Bft) O 101 ° 0 min 0 W/m² 2,1 °C 3,6 °C 9,7 km/h (2 Bft)
11.02.2026 07:09 21,7 °C 3,6 °C 47 % 90 % 986,0 hPa 0,0 l/m² 5,3 km/h (1 Bft) O 101 ° 0 min 0 W/m² 2,1 °C 3,6 °C 6,4 km/h (2 Bft)
11.02.2026 07:11 21,7 °C 3,6 °C 47 % 90 % 986,0 hPa 0,0 l/m² 4,9 km/h (1 Bft) O-SO 103 ° 0 min 0 W/m² 2,1 °C 3,6 °C 6,4 km/h (2 Bft)
11.02.2026 07:13 21,7 °C 3,6 °C 47 % 90 % 985,9 hPa 0,0 l/m² 6,7 km/h (2 Bft) O 92 ° 0 min 0 W/m² 2,1 °C 3,3 °C 11,3 km/h (2 Bft)
11.02.2026 07:14 21,7 °C 3,6 °C 47 % 90 % 985,9 hPa 0,0 l/m² 8,1 km/h (2 Bft) O-SO 103 ° 0 min 0 W/m² 2,1 °C 2,0 °C 11,3 km/h (2 Bft)
11.02.2026 07:15 21,7 °C 3,6 °C 47 % 90 % 986,0 hPa 0,0 l/m² 6,6 km/h (2 Bft) O 94 ° 0 min 0 W/m² 2,1 °C 3,4 °C 9,7 km/h (2 Bft)
11.02.2026 07:16 21,7 °C 3,6 °C 47 % 90 % 985,9 hPa 0,0 l/m² 6,2 km/h (2 Bft) O 100 ° 0 min 0 W/m² 2,1 °C 3,6 °C 6,4 km/h (2 Bft)
11.02.2026 07:17 21,7 °C 3,6 °C 47 % 90 % 986,0 hPa 0,0 l/m² 6,4 km/h (2 Bft) O 91 ° 0 min 0 W/m² 2,1 °C 3,6 °C 9,7 km/h (2 Bft)
11.02.2026 07:18 21,7 °C 3,6 °C 47 % 90 % 986,0 hPa 0,0 l/m² 6,8 km/h (2 Bft) O 99 ° 0 min 0 W/m² 2,1 °C 3,2 °C 9,7 km/h (2 Bft)
11.02.2026 07:19 21,7 °C 3,7 °C 47 % 90 % 985,9 hPa 0,0 l/m² 6,1 km/h (2 Bft) O 94 ° 0 min 0 W/m² 2,2 °C 3,7 °C 6,4 km/h (2 Bft)
11.02.2026 07:21 21,7 °C 3,7 °C 46 % 90 % 985,9 hPa 0,0 l/m² 7,1 km/h (2 Bft) O 86 ° 0 min 0 W/m² 2,2 °C 3,1 °C 11,3 km/h (2 Bft)
11.02.2026 07:23 21,7 °C 3,7 °C 46 % 90 % 985,8 hPa 0,0 l/m² 7,4 km/h (2 Bft) O 84 ° 0 min 0 W/m² 2,2 °C 2,8 °C 11,3 km/h (2 Bft)
11.02.2026 07:24 21,7 °C 3,8 °C 46 % 90 % 985,8 hPa 0,0 l/m² 6,7 km/h (2 Bft) O 84 ° 0 min 0 W/m² 2,3 °C 3,5 °C 9,7 km/h (2 Bft)
11.02.2026 07:25 21,7 °C 3,8 °C 46 % 90 % 985,8 hPa 0,0 l/m² 7,3 km/h (2 Bft) O 84 ° 0 min 0 W/m² 2,3 °C 3,0 °C 8,0 km/h (2 Bft)
11.02.2026 07:26 21,7 °C 3,8 °C 46 % 90 % 985,8 hPa 0,0 l/m² 7,8 km/h (2 Bft) O 90 ° 0 min 0 W/m² 2,3 °C 2,5 °C 11,3 km/h (2 Bft)
11.02.2026 07:27 21,7 °C 3,8 °C 46 % 90 % 985,9 hPa 0,0 l/m² 6,9 km/h (2 Bft) O 82 ° 0 min 0 W/m² 2,3 °C 3,3 °C 11,3 km/h (2 Bft)
11.02.2026 07:28 21,7 °C 3,8 °C 46 % 90 % 985,8 hPa 0,0 l/m² 7,7 km/h (2 Bft) O 101 ° 0 min 0 W/m² 2,3 °C 2,6 °C 11,3 km/h (2 Bft)
11.02.2026 07:29 21,7 °C 3,8 °C 46 % 90 % 985,9 hPa 0,0 l/m² 7,7 km/h (2 Bft) O 81 ° 0 min 0 W/m² 2,3 °C 2,6 °C 9,7 km/h (2 Bft)
11.02.2026 07:31 21,7 °C 3,8 °C 46 % 90 % 985,8 hPa 0,0 l/m² 7,8 km/h (2 Bft) O 91 ° 0 min 0 W/m² 2,3 °C 2,5 °C 11,3 km/h (2 Bft)
11.02.2026 07:33 21,7 °C 3,8 °C 46 % 90 % 985,8 hPa 0,0 l/m² 6,8 km/h (2 Bft) O 101 ° 0 min 0 W/m² 2,3 °C 3,4 °C 11,3 km/h (2 Bft)
11.02.2026 07:34 21,7 °C 3,8 °C 46 % 90 % 985,8 hPa 0,0 l/m² 5,8 km/h (2 Bft) O 90 ° 0 min 5 W/m² 2,3 °C 3,8 °C 9,7 km/h (2 Bft)
11.02.2026 07:35 21,7 °C 3,8 °C 46 % 90 % 985,8 hPa 0,0 l/m² 7,2 km/h (2 Bft) O 86 ° 0 min 5 W/m² 2,3 °C 3,1 °C 9,7 km/h (2 Bft)
11.02.2026 07:36 21,7 °C 3,8 °C 46 % 90 % 985,8 hPa 0,0 l/m² 7,8 km/h (2 Bft) O 96 ° 0 min 5 W/m² 2,3 °C 2,5 °C 9,7 km/h (2 Bft)
11.02.2026 07:37 21,7 °C 3,7 °C 46 % 90 % 985,8 hPa 0,0 l/m² 6,5 km/h (2 Bft) O 90 ° 0 min 5 W/m² 2,2 °C 3,6 °C 9,7 km/h (2 Bft)
11.02.2026 07:38 21,7 °C 3,7 °C 46 % 90 % 985,8 hPa 0,0 l/m² 6,6 km/h (2 Bft) O 99 ° 0 min 5 W/m² 2,2 °C 3,5 °C 9,7 km/h (2 Bft)
11.02.2026 07:39 21,7 °C 3,7 °C 46 % 90 % 985,9 hPa 0,0 l/m² 5,1 km/h (1 Bft) O 86 ° 0 min 7 W/m² 2,2 °C 3,7 °C 6,4 km/h (2 Bft)
11.02.2026 07:41 21,7 °C 3,7 °C 46 % 90 % 985,8 hPa 0,0 l/m² 5,3 km/h (1 Bft) O 90 ° 0 min 7 W/m² 2,2 °C 3,7 °C 6,4 km/h (2 Bft)
11.02.2026 07:43 21,6 °C 3,7 °C 46 % 90 % 985,8 hPa 0,0 l/m² 4,9 km/h (1 Bft) O 82 ° 0 min 11 W/m² 2,2 °C 3,7 °C 6,4 km/h (2 Bft)
11.02.2026 07:44 21,6 °C 3,7 °C 46 % 90 % 985,8 hPa 0,0 l/m² 5,3 km/h (1 Bft) O 91 ° 0 min 11 W/m² 2,2 °C 3,7 °C 6,4 km/h (2 Bft)
11.02.2026 07:45 21,6 °C 3,7 °C 46 % 90 % 985,8 hPa 0,0 l/m² 6,8 km/h (2 Bft) O 88 ° 0 min 11 W/m² 2,2 °C 3,3 °C 9,7 km/h (2 Bft)
11.02.2026 07:46 21,6 °C 3,7 °C 46 % 90 % 985,8 hPa 0,0 l/m² 5,5 km/h (2 Bft) O 80 ° 0 min 11 W/m² 2,2 °C 3,7 °C 6,4 km/h (2 Bft)
11.02.2026 07:47 21,6 °C 3,7 °C 46 % 90 % 985,8 hPa 0,0 l/m² 5,1 km/h (1 Bft) O 83 ° 0 min 11 W/m² 2,2 °C 3,7 °C 6,4 km/h (2 Bft)
11.02.2026 07:48 21,6 °C 3,6 °C 46 % 90 % 985,8 hPa 0,0 l/m² 4,5 km/h (1 Bft) O-NO 77 ° 0 min 12 W/m² 2,1 °C 3,6 °C 6,4 km/h (2 Bft)
11.02.2026 07:49 21,6 °C 3,7 °C 46 % 90 % 985,8 hPa 0,0 l/m² 0,3 km/h (0 Bft) O 87 ° 0 min 12 W/m² 2,2 °C 3,7 °C 3,2 km/h (1 Bft)
11.02.2026 07:51 21,6 °C 3,6 °C 46 % 90 % 985,7 hPa 0,0 l/m² 1,6 km/h (1 Bft) O 79 ° 0 min 12 W/m² 2,1 °C 3,6 °C 4,8 km/h (1 Bft)
11.02.2026 07:53 21,6 °C 3,6 °C 46 % 90 % 985,7 hPa 0,0 l/m² 0,0 km/h (0 Bft) O-NO 72 ° 0 min 14 W/m² 2,1 °C 3,6 °C 0,0 km/h (0 Bft)
11.02.2026 07:54 21,6 °C 3,6 °C 46 % 90 % 985,7 hPa 0,0 l/m² 1,8 km/h (1 Bft) O-NO 67 ° 0 min 16 W/m² 2,1 °C 3,6 °C 4,8 km/h (1 Bft)
11.02.2026 07:55 21,6 °C 3,6 °C 46 % 90 % 985,7 hPa 0,0 l/m² 1,9 km/h (1 Bft) O-NO 77 ° 0 min 16 W/m² 2,1 °C 3,6 °C 6,4 km/h (2 Bft)
11.02.2026 07:56 21,6 °C 3,6 °C 46 % 90 % 985,7 hPa 0,0 l/m² 0,0 km/h (0 Bft) O-NO 65 ° 0 min 18 W/m² 2,1 °C 3,6 °C 0,0 km/h (0 Bft)
11.02.2026 07:57 21,6 °C 3,6 °C 46 % 90 % 985,7 hPa 0,0 l/m² 1,7 km/h (1 Bft) NO 53 ° 0 min 19 W/m² 2,1 °C 3,6 °C 6,4 km/h (2 Bft)
11.02.2026 07:58 21,6 °C 3,6 °C 46 % 90 % 985,7 hPa 0,0 l/m² 0,2 km/h (0 Bft) O-NO 57 ° 0 min 19 W/m² 2,1 °C 3,6 °C 1,6 km/h (1 Bft)
11.02.2026 07:59 21,7 °C 3,6 °C 46 % 90 % 985,7 hPa 0,0 l/m² 0,0 km/h (0 Bft) O-NO 57 ° 0 min 21 W/m² 2,1 °C 3,6 °C 0,0 km/h (0 Bft)
11.02.2026 08:01 21,6 °C 3,6 °C 46 % 90 % 985,8 hPa 0,0 l/m² 0,0 km/h (0 Bft) O-NO 60 ° 0 min 25 W/m² 2,1 °C 3,6 °C 0,0 km/h (0 Bft)
11.02.2026 08:03 21,6 °C 3,6 °C 46 % 90 % 985,8 hPa 0,0 l/m² 0,9 km/h (0 Bft) O-NO 61 ° 0 min 26 W/m² 2,1 °C 3,6 °C 4,8 km/h (1 Bft)
11.02.2026 08:04 21,6 °C 3,6 °C 46 % 90 % 985,7 hPa 0,0 l/m² 1,5 km/h (1 Bft) O-NO 65 ° 0 min 28 W/m² 2,1 °C 3,6 °C 4,8 km/h (1 Bft)
11.02.2026 08:05 21,6 °C 3,6 °C 46 % 90 % 985,8 hPa 0,0 l/m² 0,3 km/h (0 Bft) O-NO 69 ° 0 min 30 W/m² 2,1 °C 3,6 °C 1,6 km/h (1 Bft)
11.02.2026 08:06 21,6 °C 3,6 °C 46 % 90 % 985,8 hPa 0,0 l/m² 0,0 km/h (0 Bft) O-NO 61 ° 0 min 33 W/m² 2,1 °C 3,6 °C 0,0 km/h (0 Bft)
11.02.2026 08:08 21,6 °C 3,6 °C 46 % 90 % 985,8 hPa 0,0 l/m² 0,0 km/h (0 Bft) O-NO 67 ° 0 min 37 W/m² 2,1 °C 3,6 °C 0,0 km/h (0 Bft)
11.02.2026 08:09 21,6 °C 3,6 °C 46 % 90 % 985,8 hPa 0,0 l/m² 0,0 km/h (0 Bft) O-NO 63 ° 0 min 39 W/m² 2,1 °C 3,6 °C 0,0 km/h (0 Bft)
11.02.2026 08:11 21,6 °C 3,6 °C 46 % 90 % 985,8 hPa 0,0 l/m² 0,0 km/h (0 Bft) O-NO 63 ° 0 min 40 W/m² 2,1 °C 3,6 °C 0,0 km/h (0 Bft)
11.02.2026 08:13 21,6 °C 3,6 °C 46 % 90 % 985,7 hPa 0,0 l/m² 0,0 km/h (0 Bft) O-NO 66 ° 0 min 49 W/m² 2,1 °C 3,6 °C 0,0 km/h (0 Bft)
11.02.2026 08:14 21,6 °C 3,5 °C 46 % 90 % 985,8 hPa 0,0 l/m² 0,0 km/h (0 Bft) O-NO 66 ° 1 min 56 W/m² 2,0 °C 3,5 °C 0,0 km/h (0 Bft)
11.02.2026 08:15 21,6 °C 3,4 °C 46 % 90 % 985,8 hPa 0,0 l/m² 0,0 km/h (0 Bft) O-NO 66 ° 1 min 63 W/m² 1,9 °C 3,4 °C 0,0 km/h (0 Bft)
11.02.2026 08:16 21,6 °C 3,4 °C 46 % 90 % 985,8 hPa 0,0 l/m² 0,0 km/h (0 Bft) O-NO 72 ° 1 min 67 W/m² 1,9 °C 3,4 °C 0,0 km/h (0 Bft)
11.02.2026 08:17 21,6 °C 3,4 °C 46 % 90 % 985,7 hPa 0,0 l/m² 0,0 km/h (0 Bft) O-NO 72 ° 1 min 72 W/m² 1,9 °C 3,4 °C 0,0 km/h (0 Bft)
11.02.2026 08:18 21,6 °C 3,4 °C 46 % 90 % 985,7 hPa 0,0 l/m² 0,0 km/h (0 Bft) O-NO 72 ° 1 min 74 W/m² 1,9 °C 3,4 °C 0,0 km/h (0 Bft)
11.02.2026 08:19 21,6 °C 3,3 °C 46 % 90 % 985,7 hPa 0,0 l/m² 0,0 km/h (0 Bft) O-NO 72 ° 1 min 77 W/m² 1,8 °C 3,3 °C 0,0 km/h (0 Bft)
11.02.2026 08:21 21,6 °C 3,3 °C 46 % 90 % 985,8 hPa 0,0 l/m² 0,0 km/h (0 Bft) O 90 ° 2 min 77 W/m² 1,8 °C 3,3 °C 0,0 km/h (0 Bft)
11.02.2026 08:23 21,6 °C 3,3 °C 46 % 90 % 985,7 hPa 0,0 l/m² 0,0 km/h (0 Bft) O 84 ° 2 min 83 W/m² 1,8 °C 3,3 °C 0,0 km/h (0 Bft)
11.02.2026 08:24 21,7 °C 3,3 °C 46 % 90 % 985,7 hPa 0,0 l/m² 0,0 km/h (0 Bft) O 84 ° 1 min 98 W/m² 1,8 °C 3,3 °C 0,0 km/h (0 Bft)
11.02.2026 08:25 21,7 °C 3,3 °C 46 % 90 % 985,7 hPa 0,0 l/m² 0,0 km/h (0 Bft) O 85 ° 1 min 102 W/m² 1,8 °C 3,3 °C 0,0 km/h (0 Bft)
11.02.2026 08:26 21,7 °C 3,3 °C 46 % 90 % 985,8 hPa 0,0 l/m² 1,2 km/h (1 Bft) O 87 ° 1 min 104 W/m² 1,8 °C 3,3 °C 6,4 km/h (2 Bft)
11.02.2026 08:27 21,7 °C 3,3 °C 46 % 90 % 985,8 hPa 0,0 l/m² 6,2 km/h (2 Bft) O 89 ° 1 min 98 W/m² 1,8 °C 3,3 °C 6,4 km/h (2 Bft)
11.02.2026 08:28 21,7 °C 3,4 °C 46 % 90 % 985,8 hPa 0,0 l/m² 6,0 km/h (2 Bft) O 94 ° 1 min 109 W/m² 1,9 °C 3,4 °C 6,4 km/h (2 Bft)
11.02.2026 08:29 21,7 °C 3,4 °C 46 % 91 % 985,7 hPa 0,0 l/m² 5,8 km/h (2 Bft) O 92 ° 1 min 121 W/m² 2,1 °C 3,4 °C 6,4 km/h (2 Bft)
11.02.2026 08:31 21,7 °C 3,6 °C 46 % 91 % 985,7 hPa 0,0 l/m² 5,6 km/h (2 Bft) O 88 ° 2 min 97 W/m² 2,3 °C 3,6 °C 8,0 km/h (2 Bft)
11.02.2026 08:33 21,7 °C 3,6 °C 46 % 91 % 985,7 hPa 0,0 l/m² 6,4 km/h (2 Bft) O 81 ° 2 min 111 W/m² 2,3 °C 3,6 °C 11,3 km/h (2 Bft)
11.02.2026 08:34 21,7 °C 3,7 °C 46 % 91 % 985,6 hPa 0,0 l/m² 7,6 km/h (2 Bft) O 94 ° 1 min 116 W/m² 2,4 °C 2,6 °C 11,3 km/h (2 Bft)
11.02.2026 08:35 21,7 °C 3,8 °C 46 % 91 % 985,6 hPa 0,0 l/m² 8,5 km/h (2 Bft) O 89 ° 1 min 123 W/m² 2,5 °C 1,9 °C 11,3 km/h (2 Bft)
11.02.2026 08:36 21,7 °C 3,8 °C 46 % 91 % 985,6 hPa 0,0 l/m² 8,3 km/h (2 Bft) O 90 ° 1 min 125 W/m² 2,5 °C 2,1 °C 11,3 km/h (2 Bft)
11.02.2026 08:37 21,7 °C 3,9 °C 46 % 91 % 985,6 hPa 0,0 l/m² 9,3 km/h (2 Bft) O 90 ° 1 min 127 W/m² 2,6 °C 1,4 °C 11,3 km/h (2 Bft)
11.02.2026 08:38 21,7 °C 3,9 °C 46 % 91 % 985,6 hPa 0,0 l/m² 7,7 km/h (2 Bft) O 85 ° 1 min 132 W/m² 2,6 °C 2,7 °C 11,3 km/h (2 Bft)
11.02.2026 08:39 21,7 °C 4,0 °C 46 % 91 % 985,5 hPa 0,0 l/m² 6,9 km/h (2 Bft) O 90 ° 1 min 142 W/m² 2,7 °C 3,5 °C 11,3 km/h (2 Bft)
11.02.2026 08:41 21,7 °C 4,1 °C 46 % 91 % 985,5 hPa 0,0 l/m² 7,3 km/h (2 Bft) O 94 ° 2 min 176 W/m² 2,8 °C 3,3 °C 9,7 km/h (2 Bft)
11.02.2026 08:43 21,7 °C 4,2 °C 46 % 91 % 985,5 hPa 0,0 l/m² 8,7 km/h (2 Bft) O 90 ° 2 min 186 W/m² 2,9 °C 2,2 °C 12,9 km/h (3 Bft)
11.02.2026 08:44 21,7 °C 4,3 °C 46 % 91 % 985,4 hPa 0,0 l/m² 9,7 km/h (2 Bft) O 93 ° 1 min 185 W/m² 3,0 °C 1,5 °C 11,3 km/h (2 Bft)
11.02.2026 08:45 21,7 °C 4,3 °C 46 % 91 % 985,5 hPa 0,0 l/m² 9,7 km/h (2 Bft) O 91 ° 1 min 179 W/m² 3,0 °C 1,5 °C 11,3 km/h (2 Bft)
11.02.2026 08:46 21,7 °C 4,4 °C 46 % 91 % 985,5 hPa 0,0 l/m² 9,3 km/h (2 Bft) O 92 ° 1 min 163 W/m² 3,1 °C 1,9 °C 11,3 km/h (2 Bft)
11.02.2026 08:47 21,7 °C 4,4 °C 46 % 91 % 985,4 hPa 0,0 l/m² 9,6 km/h (2 Bft) O 94 ° 1 min 104 W/m² 3,1 °C 1,7 °C 11,3 km/h (2 Bft)
11.02.2026 08:48 21,7 °C 4,5 °C 46 % 91 % 985,5 hPa 0,0 l/m² 8,7 km/h (2 Bft) O 93 ° 1 min 97 W/m² 3,2 °C 2,5 °C 11,3 km/h (2 Bft)
11.02.2026 08:49 21,7 °C 4,6 °C 46 % 91 % 985,4 hPa 0,0 l/m² 10,1 km/h (2 Bft) O 99 ° 1 min 91 W/m² 3,3 °C 1,6 °C 12,9 km/h (3 Bft)
11.02.2026 08:51 21,7 °C 4,6 °C 46 % 91 % 985,5 hPa 0,0 l/m² 8,3 km/h (2 Bft) O 96 ° 2 min 97 W/m² 3,3 °C 2,9 °C 11,3 km/h (2 Bft)
11.02.2026 08:53 21,7 °C 4,7 °C 46 % 91 % 985,5 hPa 0,0 l/m² 8,4 km/h (2 Bft) O-SO 105 ° 2 min 97 W/m² 3,4 °C 3,0 °C 11,3 km/h (2 Bft)
11.02.2026 08:54 21,7 °C 4,7 °C 46 % 91 % 985,4 hPa 0,0 l/m² 9,2 km/h (2 Bft) O 95 ° 1 min 98 W/m² 3,4 °C 2,3 °C 11,3 km/h (2 Bft)
11.02.2026 08:55 21,7 °C 4,7 °C 46 % 91 % 985,5 hPa 0,0 l/m² 7,1 km/h (2 Bft) O 86 ° 1 min 102 W/m² 3,4 °C 4,1 °C 9,7 km/h (2 Bft)
11.02.2026 08:56 21,7 °C 4,7 °C 46 % 91 % 985,5 hPa 0,0 l/m² 7,8 km/h (2 Bft) O 89 ° 1 min 90 W/m² 3,4 °C 3,5 °C 9,7 km/h (2 Bft)
11.02.2026 08:57 21,7 °C 4,8 °C 46 % 91 % 985,5 hPa 0,0 l/m² 8,8 km/h (2 Bft) O 95 ° 1 min 90 W/m² 3,5 °C 2,7 °C 11,3 km/h (2 Bft)
11.02.2026 08:58 21,7 °C 4,8 °C 46 % 91 % 985,5 hPa 0,0 l/m² 7,2 km/h (2 Bft) O 96 ° 1 min 91 W/m² 3,5 °C 4,1 °C 11,3 km/h (2 Bft)
11.02.2026 08:59 21,7 °C 4,8 °C 46 % 91 % 985,4 hPa 0,0 l/m² 5,8 km/h (2 Bft) O 90 ° 1 min 91 W/m² 3,5 °C 4,8 °C 6,4 km/h (2 Bft)
11.02.2026 09:01 21,8 °C 4,9 °C 46 % 91 % 985,4 hPa 0,0 l/m² 7,1 km/h (2 Bft) O 98 ° 2 min 97 W/m² 3,6 °C 4,3 °C 11,3 km/h (2 Bft)
11.02.2026 09:03 21,8 °C 4,9 °C 46 % 91 % 985,5 hPa 0,0 l/m² 5,4 km/h (2 Bft) O 97 ° 2 min 98 W/m² 3,6 °C 4,9 °C 6,4 km/h (2 Bft)
11.02.2026 09:04 21,7 °C 4,9 °C 46 % 91 % 985,5 hPa 0,0 l/m² 4,2 km/h (1 Bft) O-SO 109 ° 1 min 95 W/m² 3,6 °C 4,9 °C 6,4 km/h (2 Bft)
11.02.2026 09:05 21,7 °C 5,0 °C 46 % 91 % 985,4 hPa 0,0 l/m² 4,7 km/h (1 Bft) O 101 ° 1 min 93 W/m² 3,7 °C 5,0 °C 6,4 km/h (2 Bft)
11.02.2026 09:06 21,7 °C 5,0 °C 46 % 91 % 985,4 hPa 0,0 l/m² 6,1 km/h (2 Bft) O-SO 106 ° 1 min 90 W/m² 3,7 °C 5,0 °C 9,7 km/h (2 Bft)
11.02.2026 09:07 21,8 °C 5,0 °C 46 % 91 % 985,4 hPa 0,0 l/m² 4,2 km/h (1 Bft) O-SO 117 ° 1 min 88 W/m² 3,7 °C 5,0 °C 6,4 km/h (2 Bft)
11.02.2026 09:08 21,7 °C 5,0 °C 46 % 91 % 985,4 hPa 0,0 l/m² 4,5 km/h (1 Bft) O-SO 117 ° 1 min 88 W/m² 3,7 °C 5,0 °C 6,4 km/h (2 Bft)
11.02.2026 09:09 21,7 °C 5,1 °C 46 % 91 % 985,4 hPa 0,0 l/m² 0,2 km/h (0 Bft) O-SO 117 ° 1 min 86 W/m² 3,8 °C 5,1 °C 1,6 km/h (1 Bft)
11.02.2026 09:11 21,7 °C 5,1 °C 46 % 91 % 985,4 hPa 0,0 l/m² 0,0 km/h (0 Bft) SO 126 ° 2 min 84 W/m² 3,8 °C 5,1 °C 0,0 km/h (0 Bft)
11.02.2026 09:13 21,7 °C 5,1 °C 46 % 91 % 985,4 hPa 0,0 l/m² 2,1 km/h (1 Bft) O-SO 115 ° 2 min 83 W/m² 3,8 °C 5,1 °C 6,4 km/h (2 Bft)
11.02.2026 09:14 21,8 °C 5,1 °C 46 % 91 % 985,4 hPa 0,0 l/m² 0,1 km/h (0 Bft) SO 126 ° 1 min 84 W/m² 3,8 °C 5,1 °C 1,6 km/h (1 Bft)
11.02.2026 09:15 21,8 °C 5,1 °C 46 % 91 % 985,3 hPa 0,0 l/m² 2,4 km/h (1 Bft) O-SO 107 ° 1 min 86 W/m² 3,8 °C 5,1 °C 4,8 km/h (1 Bft)
11.02.2026 09:16 21,8 °C 5,2 °C 46 % 91 % 985,4 hPa 0,0 l/m² 1,8 km/h (1 Bft) O-SO 107 ° 1 min 91 W/m² 3,9 °C 5,2 °C 4,8 km/h (1 Bft)
11.02.2026 09:17 21,7 °C 5,2 °C 46 % 91 % 985,3 hPa 0,0 l/m² 4,7 km/h (1 Bft) SO 138 ° 1 min 95 W/m² 3,9 °C 5,2 °C 6,4 km/h (2 Bft)
11.02.2026 09:18 21,8 °C 5,2 °C 46 % 90 % 985,4 hPa 0,0 l/m² 7,5 km/h (2 Bft) SO 142 ° 1 min 97 W/m² 3,7 °C 4,2 °C 11,3 km/h (2 Bft)
11.02.2026 09:19 21,8 °C 5,2 °C 46 % 90 % 985,4 hPa 0,0 l/m² 6,9 km/h (2 Bft) SO 130 ° 1 min 105 W/m² 3,7 °C 4,8 °C 9,7 km/h (2 Bft)
11.02.2026 09:21 21,8 °C 5,3 °C 46 % 91 % 985,4 hPa 0,0 l/m² 4,2 km/h (1 Bft) O-SO 109 ° 2 min 102 W/m² 4,0 °C 5,3 °C 9,7 km/h (2 Bft)
11.02.2026 09:23 21,8 °C 5,3 °C 46 % 91 % 985,3 hPa 0,0 l/m² 1,8 km/h (1 Bft) SO 128 ° 2 min 104 W/m² 4,0 °C 5,3 °C 8,0 km/h (2 Bft)
11.02.2026 09:24 21,8 °C 5,3 °C 46 % 91 % 985,3 hPa 0,0 l/m² 4,1 km/h (1 Bft) SO 128 ° 1 min 111 W/m² 4,0 °C 5,3 °C 8,0 km/h (2 Bft)
11.02.2026 09:25 21,7 °C 5,3 °C 46 % 91 % 985,3 hPa 0,0 l/m² 3,9 km/h (1 Bft) O-SO 121 ° 1 min 107 W/m² 4,0 °C 5,3 °C 8,0 km/h (2 Bft)
11.02.2026 09:26 21,8 °C 5,4 °C 46 % 91 % 985,3 hPa 0,0 l/m² 4,9 km/h (1 Bft) O-SO 121 ° 1 min 105 W/m² 4,1 °C 5,4 °C 6,4 km/h (2 Bft)
11.02.2026 09:27 21,8 °C 5,4 °C 46 % 90 % 985,3 hPa 0,0 l/m² 5,8 km/h (2 Bft) SO 127 ° 1 min 105 W/m² 3,9 °C 5,4 °C 8,0 km/h (2 Bft)
11.02.2026 09:28 21,8 °C 5,5 °C 46 % 90 % 985,3 hPa 0,0 l/m² 5,6 km/h (2 Bft) SO 126 ° 1 min 105 W/m² 4,0 °C 5,5 °C 8,0 km/h (2 Bft)
11.02.2026 09:29 21,8 °C 5,5 °C 46 % 91 % 985,3 hPa 0,0 l/m² 5,2 km/h (1 Bft) SO 130 ° 1 min 105 W/m² 4,2 °C 5,5 °C 9,7 km/h (2 Bft)
11.02.2026 09:31 21,8 °C 5,6 °C 46 % 91 % 985,2 hPa 0,0 l/m² 2,8 km/h (1 Bft) SO 127 ° 2 min 107 W/m² 4,2 °C 5,6 °C 8,0 km/h (2 Bft)
11.02.2026 09:33 21,8 °C 5,7 °C 46 % 91 % 985,3 hPa 0,0 l/m² 5,2 km/h (1 Bft) SO 138 ° 2 min 113 W/m² 4,3 °C 5,7 °C 6,4 km/h (2 Bft)
11.02.2026 09:34 21,8 °C 5,7 °C 46 % 91 % 985,3 hPa 0,0 l/m² 5,1 km/h (1 Bft) SO 138 ° 1 min 116 W/m² 4,3 °C 5,7 °C 6,4 km/h (2 Bft)
11.02.2026 09:35 21,8 °C 5,7 °C 46 % 90 % 985,2 hPa 0,0 l/m² 3,4 km/h (1 Bft) O-SO 121 ° 1 min 118 W/m² 4,2 °C 5,7 °C 4,8 km/h (1 Bft)
11.02.2026 09:36 21,8 °C 5,7 °C 46 % 90 % 985,3 hPa 0,0 l/m² 3,0 km/h (1 Bft) O-SO 118 ° 1 min 121 W/m² 4,2 °C 5,7 °C 6,4 km/h (2 Bft)
11.02.2026 09:37 21,8 °C 5,7 °C 46 % 90 % 985,3 hPa 0,0 l/m² 4,9 km/h (1 Bft) SO 128 ° 1 min 123 W/m² 4,2 °C 5,7 °C 6,4 km/h (2 Bft)
11.02.2026 09:38 21,8 °C 5,8 °C 46 % 90 % 985,2 hPa 0,0 l/m² 4,5 km/h (1 Bft) SO 128 ° 1 min 125 W/m² 4,3 °C 5,8 °C 6,4 km/h (2 Bft)
11.02.2026 09:39 21,8 °C 5,8 °C 46 % 90 % 985,2 hPa 0,0 l/m² 3,7 km/h (1 Bft) SO 130 ° 1 min 127 W/m² 4,3 °C 5,8 °C 6,4 km/h (2 Bft)
11.02.2026 09:41 21,8 °C 5,8 °C 46 % 90 % 985,3 hPa 0,0 l/m² 4,9 km/h (1 Bft) SO 128 ° 2 min 132 W/m² 4,3 °C 5,8 °C 8,0 km/h (2 Bft)
11.02.2026 09:43 21,8 °C 5,9 °C 46 % 90 % 985,3 hPa 0,0 l/m² 2,8 km/h (1 Bft) O-SO 112 ° 2 min 135 W/m² 4,4 °C 5,9 °C 6,4 km/h (2 Bft)
11.02.2026 09:44 21,8 °C 5,9 °C 46 % 90 % 985,3 hPa 0,0 l/m² 3,8 km/h (1 Bft) SO 132 ° 1 min 135 W/m² 4,4 °C 5,9 °C 4,8 km/h (1 Bft)
11.02.2026 09:46 21,8 °C 6,0 °C 46 % 90 % 985,3 hPa 0,0 l/m² 2,5 km/h (1 Bft) O-SO 114 ° 2 min 141 W/m² 4,5 °C 6,0 °C 4,8 km/h (1 Bft)
11.02.2026 09:47 21,8 °C 6,0 °C 46 % 90 % 985,3 hPa 0,0 l/m² 3,8 km/h (1 Bft) O-SO 112 ° 1 min 142 W/m² 4,5 °C 6,0 °C 6,4 km/h (2 Bft)
11.02.2026 09:48 21,8 °C 6,1 °C 46 % 90 % 985,3 hPa 0,0 l/m² 0,3 km/h (0 Bft) O-SO 107 ° 1 min 148 W/m² 4,6 °C 6,1 °C 3,2 km/h (1 Bft)
11.02.2026 09:49 21,8 °C 6,1 °C 46 % 90 % 985,3 hPa 0,0 l/m² 4,7 km/h (1 Bft) O-SO 122 ° 1 min 148 W/m² 4,6 °C 6,1 °C 6,4 km/h (2 Bft)
11.02.2026 09:51 21,8 °C 6,2 °C 46 % 90 % 985,4 hPa 0,0 l/m² 7,1 km/h (2 Bft) SO 128 ° 2 min 197 W/m² 4,7 °C 5,6 °C 12,9 km/h (3 Bft)
11.02.2026 09:53 21,8 °C 6,2 °C 46 % 90 % 985,3 hPa 0,0 l/m² 4,0 km/h (1 Bft) O-SO 121 ° 2 min 195 W/m² 4,7 °C 6,2 °C 8,0 km/h (2 Bft)
11.02.2026 09:54 21,8 °C 6,3 °C 46 % 90 % 985,3 hPa 0,0 l/m² 0,0 km/h (0 Bft) SO 132 ° 1 min 192 W/m² 4,8 °C 6,3 °C 0,0 km/h (0 Bft)
11.02.2026 09:55 21,8 °C 6,3 °C 46 % 90 % 985,3 hPa 0,0 l/m² 0,5 km/h (0 Bft) SO 129 ° 1 min 183 W/m² 4,8 °C 6,3 °C 1,6 km/h (1 Bft)
11.02.2026 09:56 21,8 °C 6,3 °C 46 % 90 % 985,3 hPa 0,0 l/m² 1,0 km/h (0 Bft) O-SO 105 ° 1 min 185 W/m² 4,8 °C 6,3 °C 3,2 km/h (1 Bft)
11.02.2026 09:57 21,8 °C 6,4 °C 46 % 90 % 985,3 hPa 0,0 l/m² 4,0 km/h (1 Bft) O-SO 115 ° 1 min 197 W/m² 4,9 °C 6,4 °C 9,7 km/h (2 Bft)
11.02.2026 09:58 21,8 °C 6,4 °C 46 % 90 % 985,4 hPa 0,0 l/m² 7,5 km/h (2 Bft) O-SO 119 ° 1 min 188 W/m² 4,9 °C 5,5 °C 12,9 km/h (3 Bft)
11.02.2026 09:59 21,8 °C 6,4 °C 46 % 90 % 985,4 hPa 0,0 l/m² 3,3 km/h (1 Bft) O-SO 114 ° 1 min 179 W/m² 4,9 °C 6,4 °C 4,8 km/h (1 Bft)
11.02.2026 10:01 21,8 °C 6,5 °C 46 % 90 % 985,4 hPa 0,0 l/m² 0,1 km/h (0 Bft) O-SO 114 ° 2 min 151 W/m² 5,0 °C 6,5 °C 1,6 km/h (1 Bft)
11.02.2026 10:03 21,8 °C 6,6 °C 46 % 89 % 985,3 hPa 0,0 l/m² 2,5 km/h (1 Bft) SO 124 ° 2 min 142 W/m² 4,9 °C 6,6 °C 6,4 km/h (2 Bft)
11.02.2026 10:04 21,8 °C 6,6 °C 46 % 89 % 985,4 hPa 0,0 l/m² 0,3 km/h (0 Bft) SO 134 ° 1 min 139 W/m² 4,9 °C 6,6 °C 3,2 km/h (1 Bft)
11.02.2026 10:05 21,8 °C 6,6 °C 46 % 89 % 985,4 hPa 0,0 l/m² 2,9 km/h (1 Bft) SO 124 ° 1 min 137 W/m² 4,9 °C 6,6 °C 4,8 km/h (1 Bft)
11.02.2026 10:06 21,8 °C 6,7 °C 46 % 89 % 985,4 hPa 0,0 l/m² 0,0 km/h (0 Bft) SO 124 ° 1 min 139 W/m² 5,0 °C 6,7 °C 0,0 km/h (0 Bft)
11.02.2026 10:08 21,8 °C 6,7 °C 46 % 89 % 985,3 hPa 0,0 l/m² 0,2 km/h (0 Bft) SO 126 ° 2 min 144 W/m² 5,0 °C 6,7 °C 1,6 km/h (1 Bft)
11.02.2026 10:09 21,8 °C 6,7 °C 46 % 89 % 985,3 hPa 0,0 l/m² 0,0 km/h (0 Bft) SO 140 ° 1 min 148 W/m² 5,0 °C 6,7 °C 0,0 km/h (0 Bft)
11.02.2026 10:11 21,8 °C 6,8 °C 46 % 89 % 985,4 hPa 0,0 l/m² 1,3 km/h (1 Bft) S-SO 148 ° 2 min 156 W/m² 5,1 °C 6,8 °C 4,8 km/h (1 Bft)
11.02.2026 10:13 21,8 °C 6,8 °C 46 % 89 % 985,4 hPa 0,0 l/m² 0,0 km/h (0 Bft) S-SO 148 ° 2 min 160 W/m² 5,1 °C 6,8 °C 0,0 km/h (0 Bft)
11.02.2026 10:14 21,8 °C 6,8 °C 46 % 89 % 985,4 hPa 0,0 l/m² 0,1 km/h (0 Bft) O-SO 106 ° 1 min 160 W/m² 5,1 °C 6,8 °C 1,6 km/h (1 Bft)
11.02.2026 10:16 21,8 °C 6,8 °C 46 % 89 % 985,3 hPa 0,0 l/m² 0,2 km/h (0 Bft) SO 132 ° 2 min 158 W/m² 5,1 °C 6,8 °C 1,6 km/h (1 Bft)
11.02.2026 10:17 21,8 °C 6,8 °C 46 % 89 % 985,3 hPa 0,0 l/m² 0,0 km/h (0 Bft) SO 132 ° 1 min 156 W/m² 5,1 °C 6,8 °C 0,0 km/h (0 Bft)
11.02.2026 10:18 21,8 °C 6,9 °C 46 % 89 % 985,3 hPa 0,0 l/m² 0,0 km/h (0 Bft) SO 129 ° 1 min 156 W/m² 5,2 °C 6,9 °C 0,0 km/h (0 Bft)
11.02.2026 10:19 21,8 °C 6,9 °C 46 % 89 % 985,3 hPa 0,0 l/m² 1,9 km/h (1 Bft) O-SO 118 ° 1 min 155 W/m² 5,2 °C 6,9 °C 4,8 km/h (1 Bft)
11.02.2026 10:21 21,8 °C 6,9 °C 46 % 88 % 985,3 hPa 0,0 l/m² 1,5 km/h (1 Bft) SO 131 ° 2 min 155 W/m² 5,1 °C 6,9 °C 6,4 km/h (2 Bft)
11.02.2026 10:23 21,8 °C 7,0 °C 46 % 88 % 985,3 hPa 0,0 l/m² 2,9 km/h (1 Bft) SO 129 ° 2 min 153 W/m² 5,2 °C 7,0 °C 6,4 km/h (2 Bft)
11.02.2026 10:24 21,8 °C 7,0 °C 46 % 88 % 985,2 hPa 0,0 l/m² 7,6 km/h (2 Bft) SO 144 ° 1 min 153 W/m² 5,2 °C 6,0 °C 12,9 km/h (3 Bft)
11.02.2026 10:25 21,8 °C 7,1 °C 46 % 88 % 985,2 hPa 0,0 l/m² 6,2 km/h (2 Bft) SO 134 ° 1 min 153 W/m² 5,2 °C 7,1 °C 8,0 km/h (2 Bft)
11.02.2026 10:26 21,8 °C 7,1 °C 46 % 88 % 985,3 hPa 0,0 l/m² 5,9 km/h (2 Bft) SO 134 ° 1 min 153 W/m² 5,2 °C 7,1 °C 11,3 km/h (2 Bft)
11.02.2026 10:27 21,8 °C 7,1 °C 46 % 88 % 985,3 hPa 0,0 l/m² 5,6 km/h (2 Bft) SO 132 ° 1 min 153 W/m² 5,2 °C 7,1 °C 8,0 km/h (2 Bft)
11.02.2026 10:28 21,8 °C 7,1 °C 46 % 88 % 985,3 hPa 0,0 l/m² 2,3 km/h (1 Bft) SO 124 ° 1 min 151 W/m² 5,2 °C 7,1 °C 6,4 km/h (2 Bft)
11.02.2026 10:29 21,8 °C 7,1 °C 46 % 88 % 985,3 hPa 0,0 l/m² 5,8 km/h (2 Bft) S-SO 156 ° 1 min 149 W/m² 5,2 °C 7,1 °C 11,3 km/h (2 Bft)
11.02.2026 10:31 21,8 °C 7,2 °C 46 % 88 % 985,3 hPa 0,0 l/m² 5,6 km/h (2 Bft) S-SO 148 ° 2 min 146 W/m² 5,3 °C 7,2 °C 8,0 km/h (2 Bft)
11.02.2026 10:33 21,8 °C 7,2 °C 46 % 87 % 985,3 hPa 0,0 l/m² 4,1 km/h (1 Bft) SO 138 ° 2 min 142 W/m² 5,2 °C 7,2 °C 11,3 km/h (2 Bft)
11.02.2026 10:34 21,8 °C 7,2 °C 46 % 87 % 985,3 hPa 0,0 l/m² 0,3 km/h (0 Bft) SO 132 ° 1 min 142 W/m² 5,2 °C 7,2 °C 3,2 km/h (1 Bft)
11.02.2026 10:35 21,8 °C 7,3 °C 46 % 87 % 985,3 hPa 0,0 l/m² 1,6 km/h (1 Bft) O-SO 120 ° 1 min 144 W/m² 5,3 °C 7,3 °C 4,8 km/h (1 Bft)
11.02.2026 10:36 21,8 °C 7,3 °C 46 % 87 % 985,3 hPa 0,0 l/m² 2,3 km/h (1 Bft) SO 135 ° 1 min 144 W/m² 5,3 °C 7,3 °C 4,8 km/h (1 Bft)
11.02.2026 10:37 21,8 °C 7,3 °C 46 % 87 % 985,3 hPa 0,0 l/m² 2,2 km/h (1 Bft) SO 133 ° 1 min 146 W/m² 5,3 °C 7,3 °C 4,8 km/h (1 Bft)
11.02.2026 10:38 21,8 °C 7,3 °C 46 % 87 % 985,3 hPa 0,0 l/m² 6,9 km/h (2 Bft) SO 134 ° 1 min 146 W/m² 5,3 °C 6,9 °C 11,3 km/h (2 Bft)
11.02.2026 10:39 21,8 °C 7,3 °C 46 % 87 % 985,3 hPa 0,0 l/m² 8,8 km/h (2 Bft) SO 129 ° 1 min 146 W/m² 5,3 °C 5,4 °C 11,3 km/h (2 Bft)
11.02.2026 10:41 21,8 °C 7,3 °C 46 % 87 % 985,3 hPa 0,0 l/m² 4,1 km/h (1 Bft) SO 144 ° 2 min 146 W/m² 5,3 °C 7,3 °C 6,4 km/h (2 Bft)
11.02.2026 10:43 21,8 °C 7,3 °C 46 % 87 % 985,3 hPa 0,0 l/m² 2,4 km/h (1 Bft) O-SO 112 ° 2 min 149 W/m² 5,3 °C 7,3 °C 6,4 km/h (2 Bft)
11.02.2026 10:44 21,8 °C 7,3 °C 46 % 86 % 985,3 hPa 0,0 l/m² 6,9 km/h (2 Bft) O-SO 110 ° 1 min 153 W/m² 5,1 °C 6,9 °C 9,7 km/h (2 Bft)
11.02.2026 10:45 21,8 °C 7,3 °C 46 % 86 % 985,3 hPa 0,0 l/m² 5,0 km/h (1 Bft) O-SO 111 ° 1 min 155 W/m² 5,1 °C 7,3 °C 9,7 km/h (2 Bft)
11.02.2026 10:46 21,8 °C 7,4 °C 46 % 86 % 985,3 hPa 0,0 l/m² 5,2 km/h (1 Bft) O-SO 123 ° 1 min 158 W/m² 5,2 °C 7,4 °C 9,7 km/h (2 Bft)
11.02.2026 10:47 21,8 °C 7,4 °C 46 % 86 % 985,3 hPa 0,0 l/m² 0,3 km/h (0 Bft) SO 146 ° 1 min 160 W/m² 5,2 °C 7,4 °C 1,6 km/h (1 Bft)
11.02.2026 10:48 21,8 °C 7,4 °C 46 % 86 % 985,3 hPa 0,0 l/m² 0,5 km/h (0 Bft) O-SO 113 ° 1 min 162 W/m² 5,2 °C 7,4 °C 3,2 km/h (1 Bft)
11.02.2026 10:49 21,8 °C 7,4 °C 46 % 86 % 985,3 hPa 0,0 l/m² 4,2 km/h (1 Bft) O-SO 116 ° 1 min 163 W/m² 5,2 °C 7,4 °C 6,4 km/h (2 Bft)
11.02.2026 10:51 21,8 °C 7,4 °C 46 % 86 % 985,3 hPa 0,0 l/m² 1,9 km/h (1 Bft) SO 124 ° 2 min 174 W/m² 5,2 °C 7,4 °C 6,4 km/h (2 Bft)
11.02.2026 10:53 21,8 °C 7,5 °C 46 % 86 % 985,3 hPa 0,0 l/m² 4,0 km/h (1 Bft) SO 134 ° 2 min 181 W/m² 5,3 °C 7,5 °C 6,4 km/h (2 Bft)
11.02.2026 10:54 21,8 °C 7,5 °C 46 % 86 % 985,3 hPa 0,0 l/m² 3,4 km/h (1 Bft) O-SO 123 ° 1 min 183 W/m² 5,3 °C 7,5 °C 4,8 km/h (1 Bft)
11.02.2026 10:55 21,8 °C 7,5 °C 46 % 86 % 985,3 hPa 0,0 l/m² 4,7 km/h (1 Bft) SO 126 ° 1 min 183 W/m² 5,3 °C 7,5 °C 8,0 km/h (2 Bft)
11.02.2026 10:56 21,8 °C 7,5 °C 46 % 86 % 985,3 hPa 0,0 l/m² 4,5 km/h (1 Bft) SO 125 ° 1 min 179 W/m² 5,3 °C 7,5 °C 8,0 km/h (2 Bft)
11.02.2026 10:57 21,8 °C 7,6 °C 46 % 86 % 985,2 hPa 0,0 l/m² 3,5 km/h (1 Bft) SO 125 ° 1 min 178 W/m² 5,4 °C 7,6 °C 4,8 km/h (1 Bft)
11.02.2026 10:58 21,8 °C 7,6 °C 46 % 86 % 985,3 hPa 0,0 l/m² 1,0 km/h (0 Bft) S-SO 148 ° 1 min 172 W/m² 5,4 °C 7,6 °C 4,8 km/h (1 Bft)
11.02.2026 10:59 21,8 °C 7,6 °C 46 % 86 % 985,3 hPa 0,0 l/m² 0,2 km/h (0 Bft) S-SO 147 ° 1 min 169 W/m² 5,4 °C 7,6 °C 1,6 km/h (1 Bft)
11.02.2026 11:01 21,8 °C 7,6 °C 46 % 86 % 985,2 hPa 0,0 l/m² 5,3 km/h (1 Bft) S-SO 153 ° 2 min 162 W/m² 5,4 °C 7,6 °C 8,0 km/h (2 Bft)
11.02.2026 11:03 21,8 °C 7,7 °C 46 % 86 % 985,2 hPa 0,0 l/m² 6,2 km/h (2 Bft) SO 141 ° 2 min 148 W/m² 5,5 °C 7,7 °C 9,7 km/h (2 Bft)
11.02.2026 11:04 21,8 °C 7,7 °C 46 % 86 % 985,3 hPa 0,0 l/m² 5,1 km/h (1 Bft) S-SO 162 ° 1 min 144 W/m² 5,5 °C 7,7 °C 8,0 km/h (2 Bft)
11.02.2026 11:05 21,8 °C 7,7 °C 46 % 86 % 985,3 hPa 0,0 l/m² 4,8 km/h (1 Bft) S-SO 155 ° 1 min 141 W/m² 5,5 °C 7,7 °C 6,4 km/h (2 Bft)
11.02.2026 11:06 21,8 °C 7,7 °C 46 % 86 % 985,3 hPa 0,0 l/m² 2,0 km/h (1 Bft) S-SO 154 ° 1 min 139 W/m² 5,5 °C 7,7 °C 4,8 km/h (1 Bft)
11.02.2026 11:07 21,8 °C 7,7 °C 46 % 86 % 985,2 hPa 0,0 l/m² 0,7 km/h (0 Bft) S-SO 155 ° 1 min 135 W/m² 5,5 °C 7,7 °C 4,8 km/h (1 Bft)
11.02.2026 11:08 21,8 °C 7,7 °C 46 % 86 % 985,3 hPa 0,0 l/m² 5,8 km/h (2 Bft) SO 132 ° 1 min 134 W/m² 5,5 °C 7,7 °C 9,7 km/h (2 Bft)
11.02.2026 11:09 21,8 °C 7,7 °C 46 % 86 % 985,3 hPa 0,0 l/m² 7,4 km/h (2 Bft) SO 139 ° 1 min 132 W/m² 5,5 °C 6,9 °C 11,3 km/h (2 Bft)
11.02.2026 11:11 21,8 °C 7,8 °C 46 % 86 % 985,3 hPa 0,0 l/m² 5,7 km/h (2 Bft) S-SO 156 ° 2 min 130 W/m² 5,6 °C 7,8 °C 9,7 km/h (2 Bft)
11.02.2026 11:13 21,7 °C 7,8 °C 46 % 86 % 985,2 hPa 0,0 l/m² 7,6 km/h (2 Bft) S-SO 155 ° 2 min 130 W/m² 5,6 °C 6,8 °C 12,9 km/h (3 Bft)
11.02.2026 11:14 21,8 °C 7,8 °C 46 % 86 % 985,3 hPa 0,0 l/m² 5,0 km/h (1 Bft) S-SO 159 ° 1 min 130 W/m² 5,6 °C 7,8 °C 6,4 km/h (2 Bft)
11.02.2026 11:15 21,8 °C 7,8 °C 46 % 85 % 985,3 hPa 0,0 l/m² 4,4 km/h (1 Bft) S-SO 149 ° 1 min 132 W/m² 5,4 °C 7,8 °C 8,0 km/h (2 Bft)
11.02.2026 11:16 21,8 °C 7,8 °C 46 % 85 % 985,3 hPa 0,0 l/m² 2,6 km/h (1 Bft) S-SO 150 ° 1 min 132 W/m² 5,4 °C 7,8 °C 8,0 km/h (2 Bft)
11.02.2026 11:17 21,8 °C 7,8 °C 46 % 85 % 985,2 hPa 0,0 l/m² 9,8 km/h (2 Bft) S-SO 159 ° 1 min 130 W/m² 5,4 °C 5,3 °C 11,3 km/h (2 Bft)
11.02.2026 11:18 21,7 °C 7,8 °C 46 % 85 % 985,3 hPa 0,0 l/m² 6,4 km/h (2 Bft) S 171 ° 1 min 128 W/m² 5,4 °C 7,8 °C 9,7 km/h (2 Bft)
11.02.2026 11:19 21,8 °C 7,8 °C 46 % 85 % 985,3 hPa 0,0 l/m² 6,5 km/h (2 Bft) S 171 ° 1 min 123 W/m² 5,4 °C 7,7 °C 9,7 km/h (2 Bft)
11.02.2026 11:21 21,7 °C 7,8 °C 46 % 85 % 985,2 hPa 0,0 l/m² 6,5 km/h (2 Bft) SO 146 ° 2 min 113 W/m² 5,4 °C 7,7 °C 9,7 km/h (2 Bft)
11.02.2026 11:23 21,7 °C 7,8 °C 46 % 85 % 985,2 hPa 0,0 l/m² 7,6 km/h (2 Bft) S-SO 163 ° 2 min 104 W/m² 5,4 °C 6,8 °C 11,3 km/h (2 Bft)
11.02.2026 11:24 21,7 °C 7,8 °C 46 % 85 % 985,2 hPa 0,0 l/m² 9,2 km/h (2 Bft) S-SO 149 ° 1 min 102 W/m² 5,4 °C 5,7 °C 12,9 km/h (3 Bft)
11.02.2026 11:25 21,7 °C 7,8 °C 46 % 85 % 985,2 hPa 0,0 l/m² 5,8 km/h (2 Bft) S-SO 150 ° 1 min 95 W/m² 5,4 °C 7,8 °C 9,7 km/h (2 Bft)
11.02.2026 11:26 21,7 °C 7,8 °C 46 % 85 % 985,3 hPa 0,0 l/m² 6,8 km/h (2 Bft) S 170 ° 1 min 91 W/m² 5,4 °C 7,5 °C 8,0 km/h (2 Bft)
11.02.2026 11:27 21,7 °C 7,8 °C 46 % 85 % 985,2 hPa 0,0 l/m² 7,5 km/h (2 Bft) S-SO 159 ° 1 min 88 W/m² 5,4 °C 6,9 °C 9,7 km/h (2 Bft)
11.02.2026 11:28 21,7 °C 7,8 °C 46 % 85 % 985,2 hPa 0,0 l/m² 6,4 km/h (2 Bft) S-SO 161 ° 1 min 84 W/m² 5,4 °C 7,8 °C 8,0 km/h (2 Bft)
11.02.2026 11:29 21,7 °C 7,7 °C 46 % 85 % 985,2 hPa 0,0 l/m² 6,9 km/h (2 Bft) S-SO 161 ° 1 min 81 W/m² 5,3 °C 7,3 °C 8,0 km/h (2 Bft)
11.02.2026 11:31 21,8 °C 7,7 °C 46 % 85 % 985,2 hPa 0,0 l/m² 6,4 km/h (2 Bft) S-SO 147 ° 2 min 77 W/m² 5,3 °C 7,7 °C 9,7 km/h (2 Bft)
11.02.2026 11:33 21,7 °C 7,7 °C 46 % 85 % 985,2 hPa 0,0 l/m² 5,1 km/h (1 Bft) S-SO 150 ° 2 min 83 W/m² 5,3 °C 7,7 °C 8,0 km/h (2 Bft)
11.02.2026 11:34 21,7 °C 7,7 °C 46 % 85 % 985,2 hPa 0,0 l/m² 0,6 km/h (0 Bft) S-SO 151 ° 1 min 86 W/m² 5,3 °C 7,7 °C 3,2 km/h (1 Bft)
11.02.2026 11:35 21,7 °C 7,7 °C 46 % 85 % 985,2 hPa 0,0 l/m² 0,7 km/h (0 Bft) S-SO 148 ° 1 min 91 W/m² 5,3 °C 7,7 °C 3,2 km/h (1 Bft)
11.02.2026 11:36 21,7 °C 7,7 °C 46 % 85 % 985,2 hPa 0,0 l/m² 2,7 km/h (1 Bft) S-SO 150 ° 1 min 98 W/m² 5,3 °C 7,7 °C 4,8 km/h (1 Bft)
11.02.2026 11:37 21,7 °C 7,7 °C 46 % 85 % 985,2 hPa 0,0 l/m² 0,1 km/h (0 Bft) S-SO 150 ° 1 min 111 W/m² 5,3 °C 7,7 °C 1,6 km/h (1 Bft)
11.02.2026 11:38 21,7 °C 7,7 °C 46 % 85 % 985,2 hPa 0,0 l/m² 0,5 km/h (0 Bft) S-SO 151 ° 1 min 116 W/m² 5,3 °C 7,7 °C 3,2 km/h (1 Bft)
11.02.2026 11:39 21,7 °C 7,7 °C 46 % 85 % 985,1 hPa 0,0 l/m² 0,0 km/h (0 Bft) S-SO 151 ° 1 min 121 W/m² 5,3 °C 7,7 °C 0,0 km/h (0 Bft)
11.02.2026 11:41 21,7 °C 7,7 °C 46 % 85 % 985,1 hPa 0,2 l/m² 0,1 km/h (0 Bft) S-SO 152 ° 2 min 128 W/m² 5,3 °C 7,7 °C 1,6 km/h (1 Bft)
11.02.2026 11:43 21,7 °C 7,7 °C 46 % 86 % 985,0 hPa 0,0 l/m² 0,0 km/h (0 Bft) S-SO 152 ° 2 min 134 W/m² 5,5 °C 7,7 °C 0,0 km/h (0 Bft)
11.02.2026 11:44 21,7 °C 7,7 °C 46 % 86 % 985,0 hPa 0,0 l/m² 0,0 km/h (0 Bft) S-SO 152 ° 1 min 134 W/m² 5,5 °C 7,7 °C 0,0 km/h (0 Bft)
11.02.2026 11:45 21,7 °C 7,7 °C 46 % 86 % 985,1 hPa 0,0 l/m² 0,0 km/h (0 Bft) S-SO 152 ° 1 min 134 W/m² 5,5 °C 7,7 °C 0,0 km/h (0 Bft)
11.02.2026 11:46 21,7 °C 7,7 °C 46 % 86 % 985,1 hPa 0,0 l/m² 0,0 km/h (0 Bft) S-SO 152 ° 1 min 132 W/m² 5,5 °C 7,7 °C 0,0 km/h (0 Bft)
11.02.2026 11:47 21,7 °C 7,7 °C 46 % 86 % 985,0 hPa 0,0 l/m² 0,0 km/h (0 Bft) S-SO 152 ° 1 min 132 W/m² 5,5 °C 7,7 °C 0,0 km/h (0 Bft)
11.02.2026 11:48 21,7 °C 7,7 °C 46 % 86 % 985,0 hPa 0,0 l/m² 0,0 km/h (0 Bft) S-SO 152 ° 1 min 132 W/m² 5,5 °C 7,7 °C 0,0 km/h (0 Bft)
11.02.2026 11:49 21,7 °C 7,7 °C 46 % 86 % 985,0 hPa 0,0 l/m² 0,0 km/h (0 Bft) S-SO 152 ° 1 min 132 W/m² 5,5 °C 7,7 °C 0,0 km/h (0 Bft)
11.02.2026 11:51 21,7 °C 7,7 °C 46 % 86 % 985,0 hPa 0,0 l/m² 0,0 km/h (0 Bft) S-SO 152 ° 2 min 132 W/m² 5,5 °C 7,7 °C 0,0 km/h (0 Bft)
11.02.2026 11:53 21,7 °C 7,7 °C 46 % 86 % 985,0 hPa 0,0 l/m² 0,0 km/h (0 Bft) S-SO 152 ° 2 min 134 W/m² 5,5 °C 7,7 °C 0,0 km/h (0 Bft)
11.02.2026 11:54 21,7 °C 7,7 °C 46 % 86 % 985,0 hPa 0,0 l/m² 0,0 km/h (0 Bft) S-SO 155 ° 1 min 137 W/m² 5,5 °C 7,7 °C 0,0 km/h (0 Bft)
11.02.2026 11:55 21,7 °C 7,7 °C 46 % 86 % 984,9 hPa 0,0 l/m² 0,0 km/h (0 Bft) S-SO 155 ° 1 min 139 W/m² 5,5 °C 7,7 °C 0,0 km/h (0 Bft)
11.02.2026 11:56 21,7 °C 7,7 °C 46 % 86 % 985,0 hPa 0,0 l/m² 0,0 km/h (0 Bft) S-SO 155 ° 1 min 139 W/m² 5,5 °C 7,7 °C 0,0 km/h (0 Bft)
11.02.2026 11:57 21,7 °C 7,7 °C 46 % 86 % 985,0 hPa 0,0 l/m² 0,0 km/h (0 Bft) S-SO 154 ° 1 min 141 W/m² 5,5 °C 7,7 °C 0,0 km/h (0 Bft)
11.02.2026 11:58 21,7 °C 7,7 °C 46 % 87 % 985,0 hPa 0,0 l/m² 0,0 km/h (0 Bft) S-SO 154 ° 1 min 139 W/m² 5,7 °C 7,7 °C 0,0 km/h (0 Bft)
11.02.2026 11:59 21,7 °C 7,7 °C 46 % 87 % 985,0 hPa 0,0 l/m² 0,0 km/h (0 Bft) S-SO 154 ° 1 min 137 W/m² 5,7 °C 7,7 °C 0,0 km/h (0 Bft)
11.02.2026 12:00 21,7 °C 7,8 °C 46 % 87 % 984,9 hPa 0,0 l/m² 0,0 km/h (0 Bft) N 0 ° 1 min 134 W/m² 5,8 °C 7,8 °C 0,0 km/h (0 Bft)
11.02.2026 12:06 21,7 °C 7,8 °C 46 % 87 % 985,0 hPa 0,0 l/m² 0,0 km/h (0 Bft) S-SO 155 ° 6 min 121 W/m² 5,8 °C 7,8 °C 0,0 km/h (0 Bft)
11.02.2026 12:07 21,7 °C 7,8 °C 46 % 87 % 985,0 hPa 0,0 l/m² 0,0 km/h (0 Bft) S-SO 155 ° 1 min 123 W/m² 5,8 °C 7,8 °C 0,0 km/h (0 Bft)
11.02.2026 12:08 21,7 °C 7,8 °C 46 % 87 % 985,0 hPa 0,0 l/m² 0,0 km/h (0 Bft) S-SO 155 ° 1 min 125 W/m² 5,8 °C 7,8 °C 0,0 km/h (0 Bft)
11.02.2026 12:10 21,7 °C 7,8 °C 46 % 87 % 984,9 hPa 0,0 l/m² 0,3 km/h (0 Bft) S-SO 161 ° 2 min 123 W/m² 5,8 °C 7,8 °C 1,6 km/h (1 Bft)
11.02.2026 12:11 21,7 °C 7,8 °C 46 % 87 % 984,9 hPa 0,0 l/m² 1,3 km/h (1 Bft) S-SO 150 ° 1 min 121 W/m² 5,8 °C 7,8 °C 3,2 km/h (1 Bft)
11.02.2026 12:12 21,7 °C 7,8 °C 46 % 87 % 984,9 hPa 0,0 l/m² 1,1 km/h (1 Bft) S-SO 163 ° 1 min 121 W/m² 5,8 °C 7,8 °C 6,4 km/h (2 Bft)
11.02.2026 12:14 21,7 °C 7,8 °C 46 % 87 % 984,8 hPa 0,0 l/m² 0,0 km/h (0 Bft) S-SO 163 ° 2 min 125 W/m² 5,8 °C 7,8 °C 1,6 km/h (1 Bft)
11.02.2026 12:15 21,7 °C 7,8 °C 46 % 87 % 984,8 hPa 0,0 l/m² 0,0 km/h (0 Bft) S-SO 163 ° 1 min 125 W/m² 5,8 °C 7,8 °C 0,0 km/h (0 Bft)
11.02.2026 12:17 21,7 °C 7,8 °C 46 % 87 % 984,8 hPa 0,0 l/m² 0,0 km/h (0 Bft) S-SO 163 ° 2 min 123 W/m² 5,8 °C 7,8 °C 1,6 km/h (1 Bft)
11.02.2026 12:19 21,7 °C 7,8 °C 46 % 87 % 984,8 hPa 0,0 l/m² 0,0 km/h (0 Bft) S-SO 163 ° 2 min 118 W/m² 5,8 °C 7,8 °C 1,6 km/h (1 Bft)
11.02.2026 12:21 21,7 °C 7,8 °C 46 % 87 % 984,8 hPa 0,0 l/m² 0,5 km/h (0 Bft) S-SO 148 ° 2 min 109 W/m² 5,8 °C 7,8 °C 3,2 km/h (1 Bft)
11.02.2026 12:22 21,7 °C 7,9 °C 46 % 87 % 984,8 hPa 0,0 l/m² 0,0 km/h (0 Bft) S-SO 148 ° 1 min 105 W/m² 5,9 °C 7,9 °C 0,0 km/h (0 Bft)
11.02.2026 12:23 21,7 °C 7,9 °C 46 % 87 % 984,8 hPa 0,0 l/m² 0,0 km/h (0 Bft) S-SO 148 ° 1 min 100 W/m² 5,9 °C 7,9 °C 0,0 km/h (0 Bft)
11.02.2026 12:25 21,7 °C 7,9 °C 46 % 87 % 984,8 hPa 0,0 l/m² 1,3 km/h (1 Bft) S-SO 152 ° 2 min 90 W/m² 5,9 °C 7,9 °C 3,2 km/h (1 Bft)
11.02.2026 12:27 21,7 °C 7,9 °C 46 % 87 % 984,8 hPa 0,0 l/m² 0,0 km/h (0 Bft) S-SO 153 ° 2 min 86 W/m² 5,9 °C 7,9 °C 0,0 km/h (0 Bft)
11.02.2026 12:29 21,7 °C 7,9 °C 46 % 87 % 984,7 hPa 0,0 l/m² 0,0 km/h (0 Bft) S-SO 150 ° 2 min 83 W/m² 5,9 °C 7,9 °C 0,0 km/h (0 Bft)
11.02.2026 12:31 21,7 °C 7,9 °C 46 % 87 % 984,8 hPa 0,0 l/m² 0,0 km/h (0 Bft) S 173 ° 2 min 79 W/m² 5,9 °C 7,9 °C 0,0 km/h (0 Bft)
11.02.2026 12:32 21,7 °C 7,9 °C 46 % 87 % 984,8 hPa 0,0 l/m² 0,0 km/h (0 Bft) S 173 ° 1 min 79 W/m² 5,9 °C 7,9 °C 0,0 km/h (0 Bft)
11.02.2026 12:33 21,7 °C 7,9 °C 46 % 87 % 984,7 hPa 0,0 l/m² 0,0 km/h (0 Bft) S 172 ° 1 min 79 W/m² 5,9 °C 7,9 °C 0,0 km/h (0 Bft)
11.02.2026 12:35 21,7 °C 7,9 °C 46 % 87 % 984,8 hPa 0,0 l/m² 0,0 km/h (0 Bft) S 170 ° 2 min 84 W/m² 5,9 °C 7,9 °C 0,0 km/h (0 Bft)
11.02.2026 12:37 21,7 °C 7,9 °C 46 % 87 % 984,7 hPa 0,0 l/m² 0,0 km/h (0 Bft) S 174 ° 2 min 93 W/m² 5,9 °C 7,9 °C 0,0 km/h (0 Bft)
11.02.2026 12:39 21,7 °C 7,8 °C 46 % 87 % 984,7 hPa 0,0 l/m² 0,0 km/h (0 Bft) S 173 ° 2 min 100 W/m² 5,8 °C 7,8 °C 0,0 km/h (0 Bft)
11.02.2026 12:41 21,7 °C 7,8 °C 46 % 87 % 984,7 hPa 0,0 l/m² 0,4 km/h (0 Bft) S-SO 166 ° 2 min 97 W/m² 5,8 °C 7,8 °C 6,4 km/h (2 Bft)
11.02.2026 12:42 21,7 °C 7,8 °C 46 % 87 % 984,7 hPa 0,0 l/m² 0,0 km/h (0 Bft) S-SO 166 ° 1 min 95 W/m² 5,8 °C 7,8 °C 0,0 km/h (0 Bft)
11.02.2026 12:43 21,7 °C 7,8 °C 46 % 87 % 984,7 hPa 0,0 l/m² 0,0 km/h (0 Bft) S-SO 167 ° 1 min 93 W/m² 5,8 °C 7,8 °C 0,0 km/h (0 Bft)
11.02.2026 12:45 21,7 °C 7,8 °C 46 % 87 % 984,7 hPa 0,0 l/m² 0,0 km/h (0 Bft) S-SO 167 ° 2 min 86 W/m² 5,8 °C 7,8 °C 0,0 km/h (0 Bft)
11.02.2026 12:48 21,7 °C 7,8 °C 46 % 87 % 984,8 hPa 0,0 l/m² 0,0 km/h (0 Bft) S-SO 167 ° 3 min 77 W/m² 5,8 °C 7,8 °C 0,0 km/h (0 Bft)
11.02.2026 12:50 21,7 °C 7,8 °C 46 % 87 % 984,7 hPa 0,0 l/m² 0,0 km/h (0 Bft) S-SO 167 ° 2 min 72 W/m² 5,8 °C 7,8 °C 0,0 km/h (0 Bft)
11.02.2026 12:52 21,7 °C 7,8 °C 46 % 88 % 984,7 hPa 0,0 l/m² 0,0 km/h (0 Bft) S-SO 167 ° 2 min 70 W/m² 5,9 °C 7,8 °C 0,0 km/h (0 Bft)
11.02.2026 12:53 21,7 °C 7,8 °C 46 % 88 % 984,7 hPa 0,0 l/m² 0,0 km/h (0 Bft) S-SO 166 ° 1 min 70 W/m² 5,9 °C 7,8 °C 0,0 km/h (0 Bft)
11.02.2026 12:54 21,7 °C 7,8 °C 46 % 88 % 984,7 hPa 0,0 l/m² 0,0 km/h (0 Bft) S-SO 166 ° 1 min 70 W/m² 5,9 °C 7,8 °C 0,0 km/h (0 Bft)
11.02.2026 12:56 21,7 °C 7,8 °C 46 % 88 % 984,7 hPa 0,0 l/m² 0,0 km/h (0 Bft) S-SO 168 ° 2 min 62 W/m² 5,9 °C 7,8 °C 0,0 km/h (0 Bft)
11.02.2026 12:58 21,7 °C 7,8 °C 46 % 88 % 984,7 hPa 0,2 l/m² 0,0 km/h (0 Bft) S 169 ° 2 min 56 W/m² 5,9 °C 7,8 °C 0,0 km/h (0 Bft)
11.02.2026 13:00 21,7 °C 7,8 °C 46 % 88 % 984,7 hPa 0,0 l/m² 0,0 km/h (0 Bft) S 169 ° 2 min 56 W/m² 5,9 °C 7,8 °C 0,0 km/h (0 Bft)
11.02.2026 13:02 21,7 °C 7,8 °C 46 % 88 % 984,7 hPa 0,0 l/m² 0,0 km/h (0 Bft) S 169 ° 2 min 56 W/m² 5,9 °C 7,8 °C 0,0 km/h (0 Bft)
11.02.2026 13:03 21,7 °C 7,8 °C 46 % 88 % 984,7 hPa 0,0 l/m² 0,0 km/h (0 Bft) S 169 ° 1 min 56 W/m² 5,9 °C 7,8 °C 0,0 km/h (0 Bft)
11.02.2026 13:04 21,7 °C 7,7 °C 46 % 88 % 984,7 hPa 0,0 l/m² 0,0 km/h (0 Bft) S 169 ° 1 min 54 W/m² 5,8 °C 7,7 °C 0,0 km/h (0 Bft)
11.02.2026 13:06 21,7 °C 7,8 °C 46 % 88 % 984,7 hPa 0,0 l/m² 0,0 km/h (0 Bft) S 170 ° 2 min 53 W/m² 5,9 °C 7,8 °C 0,0 km/h (0 Bft)
11.02.2026 13:08 21,7 °C 7,7 °C 46 % 88 % 984,7 hPa 0,0 l/m² 0,0 km/h (0 Bft) S 170 ° 0 min 51 W/m² 5,8 °C 7,7 °C 0,0 km/h (0 Bft)
11.02.2026 13:10 21,7 °C 7,7 °C 46 % 88 % 984,7 hPa 0,0 l/m² 0,0 km/h (0 Bft) S 170 ° 0 min 49 W/m² 5,8 °C 7,7 °C 0,0 km/h (0 Bft)
11.02.2026 13:12 21,7 °C 7,7 °C 46 % 88 % 984,7 hPa 0,0 l/m² 0,0 km/h (0 Bft) S 170 ° 0 min 51 W/m² 5,8 °C 7,7 °C 0,0 km/h (0 Bft)
11.02.2026 13:13 21,7 °C 7,7 °C 46 % 88 % 984,7 hPa 0,0 l/m² 0,0 km/h (0 Bft) S 170 ° 1 min 54 W/m² 5,8 °C 7,7 °C 0,0 km/h (0 Bft)
11.02.2026 13:14 21,7 °C 7,7 °C 46 % 88 % 984,7 hPa 0,0 l/m² 0,0 km/h (0 Bft) S 170 ° 1 min 56 W/m² 5,8 °C 7,7 °C 0,0 km/h (0 Bft)
11.02.2026 13:15 21,7 °C 7,7 °C 46 % 88 % 984,7 hPa 0,0 l/m² 0,0 km/h (0 Bft) S 170 ° 1 min 60 W/m² 5,8 °C 7,7 °C 0,0 km/h (0 Bft)
11.02.2026 13:17 21,7 °C 7,7 °C 46 % 88 % 984,6 hPa 0,0 l/m² 0,0 km/h (0 Bft) S 170 ° 2 min 69 W/m² 5,8 °C 7,7 °C 0,0 km/h (0 Bft)
11.02.2026 13:19 21,7 °C 7,7 °C 47 % 88 % 984,7 hPa 0,0 l/m² 0,0 km/h (0 Bft) S 170 ° 2 min 72 W/m² 5,8 °C 7,7 °C 0,0 km/h (0 Bft)
11.02.2026 13:21 21,7 °C 7,6 °C 47 % 88 % 984,6 hPa 0,0 l/m² 0,0 km/h (0 Bft) S 170 ° 2 min 76 W/m² 5,7 °C 7,6 °C 0,0 km/h (0 Bft)
11.02.2026 13:22 21,7 °C 7,6 °C 47 % 88 % 984,6 hPa 0,0 l/m² 0,0 km/h (0 Bft) S 170 ° 1 min 74 W/m² 5,7 °C 7,6 °C 0,0 km/h (0 Bft)
11.02.2026 13:23 21,7 °C 7,7 °C 46 % 88 % 984,7 hPa 0,0 l/m² 0,0 km/h (0 Bft) S 170 ° 1 min 74 W/m² 5,8 °C 7,7 °C 0,0 km/h (0 Bft)
11.02.2026 13:25 21,7 °C 7,6 °C 46 % 88 % 984,6 hPa 0,0 l/m² 0,0 km/h (0 Bft) S 170 ° 2 min 76 W/m² 5,7 °C 7,6 °C 0,0 km/h (0 Bft)
11.02.2026 13:27 21,7 °C 7,6 °C 47 % 88 % 984,6 hPa 0,0 l/m² 0,0 km/h (0 Bft) S 170 ° 2 min 77 W/m² 5,7 °C 7,6 °C 0,0 km/h (0 Bft)
11.02.2026 13:29 21,7 °C 7,6 °C 47 % 88 % 984,6 hPa 0,0 l/m² 0,0 km/h (0 Bft) S 170 ° 2 min 79 W/m² 5,7 °C 7,6 °C 0,0 km/h (0 Bft)
11.02.2026 13:31 21,7 °C 7,6 °C 47 % 88 % 984,6 hPa 0,0 l/m² 0,0 km/h (0 Bft) S 170 ° 2 min 79 W/m² 5,7 °C 7,6 °C 0,0 km/h (0 Bft)
11.02.2026 13:32 21,7 °C 7,6 °C 47 % 88 % 984,6 hPa 0,0 l/m² 0,0 km/h (0 Bft) S 170 ° 1 min 79 W/m² 5,7 °C 7,6 °C 0,0 km/h (0 Bft)
11.02.2026 13:33 21,7 °C 7,6 °C 47 % 88 % 984,7 hPa 0,0 l/m² 0,0 km/h (0 Bft) S 170 ° 1 min 77 W/m² 5,7 °C 7,6 °C 0,0 km/h (0 Bft)
11.02.2026 13:35 21,7 °C 7,7 °C 47 % 88 % 984,5 hPa 0,0 l/m² 0,0 km/h (0 Bft) S 170 ° 2 min 77 W/m² 5,8 °C 7,7 °C 0,0 km/h (0 Bft)
11.02.2026 13:37 21,7 °C 7,6 °C 46 % 89 % 984,6 hPa 0,2 l/m² 0,0 km/h (0 Bft) S 170 ° 2 min 77 W/m² 5,9 °C 7,6 °C 0,0 km/h (0 Bft)
11.02.2026 13:39 21,7 °C 7,6 °C 47 % 89 % 984,6 hPa 0,0 l/m² 0,0 km/h (0 Bft) S 170 ° 2 min 79 W/m² 5,9 °C 7,6 °C 0,0 km/h (0 Bft)
11.02.2026 13:41 21,7 °C 7,7 °C 47 % 89 % 984,5 hPa 0,0 l/m² 0,0 km/h (0 Bft) S 170 ° 2 min 77 W/m² 6,0 °C 7,7 °C 0,0 km/h (0 Bft)
11.02.2026 13:42 21,7 °C 7,7 °C 47 % 89 % 984,5 hPa 0,0 l/m² 0,0 km/h (0 Bft) S 170 ° 1 min 74 W/m² 6,0 °C 7,7 °C 0,0 km/h (0 Bft)
11.02.2026 13:43 21,7 °C 7,7 °C 47 % 89 % 984,6 hPa 0,0 l/m² 0,0 km/h (0 Bft) S 170 ° 1 min 74 W/m² 6,0 °C 7,7 °C 0,0 km/h (0 Bft)
11.02.2026 13:45 21,7 °C 7,7 °C 47 % 89 % 984,5 hPa 0,0 l/m² 0,0 km/h (0 Bft) S 170 ° 2 min 70 W/m² 6,0 °C 7,7 °C 0,0 km/h (0 Bft)
11.02.2026 13:47 21,7 °C 7,7 °C 47 % 89 % 984,5 hPa 0,0 l/m² 0,0 km/h (0 Bft) S 169 ° 2 min 69 W/m² 6,0 °C 7,7 °C 0,0 km/h (0 Bft)
11.02.2026 13:49 21,7 °C 7,7 °C 47 % 89 % 984,5 hPa 0,0 l/m² 0,0 km/h (0 Bft) S 170 ° 2 min 72 W/m² 6,0 °C 7,7 °C 0,0 km/h (0 Bft)
11.02.2026 13:51 21,7 °C 7,7 °C 47 % 89 % 984,5 hPa 0,0 l/m² 0,0 km/h (0 Bft) S 170 ° 2 min 83 W/m² 6,0 °C 7,7 °C 0,0 km/h (0 Bft)
11.02.2026 13:52 21,7 °C 7,7 °C 47 % 89 % 984,5 hPa 0,0 l/m² 0,0 km/h (0 Bft) S 170 ° 1 min 84 W/m² 6,0 °C 7,7 °C 0,0 km/h (0 Bft)
11.02.2026 13:53 21,7 °C 7,7 °C 47 % 89 % 984,4 hPa 0,0 l/m² 0,0 km/h (0 Bft) S 170 ° 1 min 86 W/m² 6,0 °C 7,7 °C 0,0 km/h (0 Bft)
11.02.2026 13:55 21,7 °C 7,8 °C 47 % 89 % 984,5 hPa 0,0 l/m² 0,0 km/h (0 Bft) S 170 ° 2 min 86 W/m² 6,1 °C 7,8 °C 0,0 km/h (0 Bft)
11.02.2026 13:57 21,7 °C 7,8 °C 47 % 89 % 984,5 hPa 0,0 l/m² 0,0 km/h (0 Bft) S 170 ° 2 min 90 W/m² 6,1 °C 7,8 °C 0,0 km/h (0 Bft)
11.02.2026 13:59 21,7 °C 7,8 °C 47 % 90 % 984,5 hPa 0,0 l/m² 0,0 km/h (0 Bft) S 170 ° 2 min 84 W/m² 6,3 °C 7,8 °C 0,0 km/h (0 Bft)
11.02.2026 14:01 21,7 °C 7,8 °C 47 % 90 % 984,4 hPa 0,0 l/m² 0,0 km/h (0 Bft) S 170 ° 2 min 74 W/m² 6,3 °C 7,8 °C 0,0 km/h (0 Bft)
11.02.2026 14:02 21,7 °C 7,8 °C 47 % 90 % 984,4 hPa 0,0 l/m² 0,0 km/h (0 Bft) S 169 ° 1 min 70 W/m² 6,3 °C 7,8 °C 0,0 km/h (0 Bft)
11.02.2026 14:03 21,7 °C 7,8 °C 47 % 90 % 984,5 hPa 0,0 l/m² 0,0 km/h (0 Bft) S 170 ° 1 min 69 W/m² 6,3 °C 7,8 °C 0,0 km/h (0 Bft)
11.02.2026 14:04 21,7 °C 7,8 °C 47 % 90 % 984,4 hPa 0,0 l/m² 0,0 km/h (0 Bft) S 169 ° 1 min 67 W/m² 6,3 °C 7,8 °C 0,0 km/h (0 Bft)
11.02.2026 14:06 21,7 °C 7,8 °C 47 % 90 % 984,4 hPa 0,0 l/m² 0,0 km/h (0 Bft) S 170 ° 2 min 63 W/m² 6,3 °C 7,8 °C 0,0 km/h (0 Bft)
11.02.2026 14:08 21,7 °C 7,8 °C 47 % 90 % 984,5 hPa 0,0 l/m² 0,0 km/h (0 Bft) S 170 ° 2 min 60 W/m² 6,3 °C 7,8 °C 0,0 km/h (0 Bft)
11.02.2026 14:10 21,7 °C 7,8 °C 47 % 90 % 984,5 hPa 0,0 l/m² 0,0 km/h (0 Bft) S 170 ° 2 min 56 W/m² 6,3 °C 7,8 °C 0,0 km/h (0 Bft)
11.02.2026 14:12 21,7 °C 7,8 °C 47 % 90 % 984,4 hPa 0,0 l/m² 0,0 km/h (0 Bft) S 170 ° 2 min 56 W/m² 6,3 °C 7,8 °C 0,0 km/h (0 Bft)
11.02.2026 14:13 21,7 °C 7,8 °C 47 % 90 % 984,4 hPa 0,0 l/m² 0,0 km/h (0 Bft) S 170 ° 1 min 54 W/m² 6,3 °C 7,8 °C 0,0 km/h (0 Bft)
11.02.2026 14:14 21,7 °C 7,7 °C 47 % 90 % 984,5 hPa 0,0 l/m² 0,0 km/h (0 Bft) S 170 ° 1 min 53 W/m² 6,2 °C 7,7 °C 0,0 km/h (0 Bft)
11.02.2026 14:16 21,7 °C 7,7 °C 47 % 90 % 984,5 hPa 0,0 l/m² 3,2 km/h (1 Bft) S 174 ° 0 min 51 W/m² 6,2 °C 7,7 °C 8,0 km/h (2 Bft)
11.02.2026 14:18 21,7 °C 7,7 °C 47 % 90 % 984,4 hPa 0,0 l/m² 4,8 km/h (1 Bft) S 181 ° 0 min 51 W/m² 6,2 °C 7,7 °C 8,0 km/h (2 Bft)
11.02.2026 14:20 21,7 °C 7,7 °C 47 % 90 % 984,4 hPa 0,0 l/m² 3,7 km/h (1 Bft) S 180 ° 2 min 53 W/m² 6,2 °C 7,7 °C 6,4 km/h (2 Bft)
11.02.2026 14:22 21,7 °C 7,7 °C 47 % 90 % 984,4 hPa 0,0 l/m² 0,0 km/h (0 Bft) S 180 ° 2 min 60 W/m² 6,2 °C 7,7 °C 0,0 km/h (0 Bft)
11.02.2026 14:23 21,7 °C 7,7 °C 47 % 90 % 984,4 hPa 0,0 l/m² 3,6 km/h (1 Bft) S 182 ° 1 min 62 W/m² 6,2 °C 7,7 °C 4,8 km/h (1 Bft)
11.02.2026 14:24 21,7 °C 7,6 °C 47 % 90 % 984,4 hPa 0,0 l/m² 0,6 km/h (0 Bft) S 182 ° 1 min 63 W/m² 6,1 °C 7,6 °C 3,2 km/h (1 Bft)
11.02.2026 14:26 21,7 °C 7,6 °C 47 % 90 % 984,4 hPa 0,0 l/m² 0,0 km/h (0 Bft) S 182 ° 2 min 65 W/m² 6,1 °C 7,6 °C 0,0 km/h (0 Bft)
11.02.2026 14:28 21,7 °C 7,6 °C 47 % 90 % 984,4 hPa 0,0 l/m² 0,0 km/h (0 Bft) S 181 ° 2 min 70 W/m² 6,1 °C 7,6 °C 0,0 km/h (0 Bft)
11.02.2026 14:30 21,7 °C 7,6 °C 47 % 90 % 984,4 hPa 0,0 l/m² 0,0 km/h (0 Bft) S 174 ° 2 min 72 W/m² 6,1 °C 7,6 °C 0,0 km/h (0 Bft)
11.02.2026 14:32 21,7 °C 7,6 °C 47 % 90 % 984,4 hPa 0,0 l/m² 0,0 km/h (0 Bft) S 174 ° 2 min 76 W/m² 6,1 °C 7,6 °C 0,0 km/h (0 Bft)
11.02.2026 14:33 21,7 °C 7,6 °C 47 % 90 % 984,4 hPa 0,0 l/m² 0,0 km/h (0 Bft) S 174 ° 1 min 76 W/m² 6,1 °C 7,6 °C 0,0 km/h (0 Bft)
11.02.2026 14:34 21,7 °C 7,6 °C 47 % 90 % 984,4 hPa 0,0 l/m² 0,0 km/h (0 Bft) S 174 ° 1 min 77 W/m² 6,1 °C 7,6 °C 0,0 km/h (0 Bft)
11.02.2026 14:36 21,7 °C 7,6 °C 47 % 90 % 984,4 hPa 0,0 l/m² 0,0 km/h (0 Bft) S 174 ° 2 min 77 W/m² 6,1 °C 7,6 °C 0,0 km/h (0 Bft)
11.02.2026 14:38 21,7 °C 7,6 °C 47 % 90 % 984,3 hPa 0,0 l/m² 0,0 km/h (0 Bft) S 174 ° 2 min 81 W/m² 6,1 °C 7,6 °C 0,0 km/h (0 Bft)
11.02.2026 14:40 21,7 °C 7,6 °C 47 % 90 % 984,3 hPa 0,0 l/m² 0,0 km/h (0 Bft) S 174 ° 2 min 83 W/m² 6,1 °C 7,6 °C 0,0 km/h (0 Bft)
11.02.2026 14:42 21,7 °C 7,6 °C 47 % 90 % 984,3 hPa 0,0 l/m² 0,0 km/h (0 Bft) S 174 ° 2 min 81 W/m² 6,1 °C 7,6 °C 0,0 km/h (0 Bft)
11.02.2026 14:43 21,7 °C 7,5 °C 47 % 90 % 984,3 hPa 0,0 l/m² 0,0 km/h (0 Bft) S 174 ° 1 min 83 W/m² 6,0 °C 7,5 °C 0,0 km/h (0 Bft)
11.02.2026 14:44 21,7 °C 7,6 °C 47 % 90 % 984,4 hPa 0,0 l/m² 0,0 km/h (0 Bft) S 174 ° 1 min 79 W/m² 6,1 °C 7,6 °C 0,0 km/h (0 Bft)
11.02.2026 14:46 21,7 °C 7,5 °C 47 % 90 % 984,4 hPa 0,0 l/m² 0,0 km/h (0 Bft) S 174 ° 2 min 77 W/m² 6,0 °C 7,5 °C 0,0 km/h (0 Bft)
11.02.2026 14:48 21,7 °C 7,6 °C 47 % 90 % 984,3 hPa 0,0 l/m² 0,0 km/h (0 Bft) S 174 ° 2 min 72 W/m² 6,1 °C 7,6 °C 0,0 km/h (0 Bft)
11.02.2026 14:50 21,7 °C 7,6 °C 47 % 90 % 984,4 hPa 0,0 l/m² 0,0 km/h (0 Bft) S 174 ° 2 min 67 W/m² 6,1 °C 7,6 °C 0,0 km/h (0 Bft)
11.02.2026 14:52 21,7 °C 7,6 °C 47 % 90 % 984,4 hPa 0,0 l/m² 0,0 km/h (0 Bft) S 175 ° 2 min 74 W/m² 6,1 °C 7,6 °C 0,0 km/h (0 Bft)
11.02.2026 14:53 21,7 °C 7,6 °C 47 % 90 % 984,4 hPa 0,0 l/m² 0,0 km/h (0 Bft) S 175 ° 1 min 77 W/m² 6,1 °C 7,6 °C 0,0 km/h (0 Bft)
11.02.2026 14:54 21,7 °C 7,6 °C 46 % 90 % 984,4 hPa 0,0 l/m² 0,0 km/h (0 Bft) S 175 ° 1 min 79 W/m² 6,1 °C 7,6 °C 0,0 km/h (0 Bft)
11.02.2026 14:56 21,7 °C 7,6 °C 46 % 90 % 984,4 hPa 0,0 l/m² 0,0 km/h (0 Bft) S 175 ° 2 min 84 W/m² 6,1 °C 7,6 °C 0,0 km/h (0 Bft)
11.02.2026 14:58 21,7 °C 7,6 °C 46 % 90 % 984,4 hPa 0,0 l/m² 0,0 km/h (0 Bft) S 175 ° 2 min 93 W/m² 6,1 °C 7,6 °C 0,0 km/h (0 Bft)
11.02.2026 15:00 21,7 °C 7,6 °C 46 % 90 % 984,3 hPa 0,0 l/m² 0,0 km/h (0 Bft) S 175 ° 2 min 97 W/m² 6,1 °C 7,6 °C 0,0 km/h (0 Bft)
11.02.2026 15:02 21,7 °C 7,6 °C 46 % 90 % 984,3 hPa 0,0 l/m² 0,0 km/h (0 Bft) S 175 ° 2 min 102 W/m² 6,1 °C 7,6 °C 0,0 km/h (0 Bft)
11.02.2026 15:03 21,7 °C 7,6 °C 46 % 90 % 984,3 hPa 0,0 l/m² 0,0 km/h (0 Bft) S 176 ° 1 min 98 W/m² 6,1 °C 7,6 °C 0,0 km/h (0 Bft)
11.02.2026 15:04 21,7 °C 7,6 °C 46 % 90 % 984,4 hPa 0,0 l/m² 0,0 km/h (0 Bft) S 178 ° 1 min 95 W/m² 6,1 °C 7,6 °C 0,0 km/h (0 Bft)
11.02.2026 15:06 21,7 °C 7,6 °C 46 % 90 % 984,3 hPa 0,0 l/m² 0,0 km/h (0 Bft) S 186 ° 2 min 98 W/m² 6,1 °C 7,6 °C 0,0 km/h (0 Bft)
11.02.2026 15:08 21,7 °C 7,6 °C 47 % 90 % 984,4 hPa 0,0 l/m² 0,0 km/h (0 Bft) S-SW 192 ° 2 min 104 W/m² 6,1 °C 7,6 °C 0,0 km/h (0 Bft)
11.02.2026 15:10 21,6 °C 7,6 °C 47 % 91 % 984,4 hPa 0,0 l/m² 0,0 km/h (0 Bft) S-SW 192 ° 2 min 95 W/m² 6,2 °C 7,6 °C 0,0 km/h (0 Bft)
11.02.2026 15:12 21,7 °C 7,7 °C 47 % 91 % 984,4 hPa 0,0 l/m² 0,0 km/h (0 Bft) S-SW 192 ° 2 min 102 W/m² 6,3 °C 7,7 °C 0,0 km/h (0 Bft)
11.02.2026 15:13 21,7 °C 7,6 °C 47 % 91 % 984,4 hPa 0,0 l/m² 0,0 km/h (0 Bft) S-SW 192 ° 1 min 97 W/m² 6,2 °C 7,6 °C 0,0 km/h (0 Bft)
11.02.2026 15:14 21,6 °C 7,7 °C 47 % 91 % 984,4 hPa 0,0 l/m² 0,0 km/h (0 Bft) S-SW 192 ° 1 min 93 W/m² 6,3 °C 7,7 °C 0,0 km/h (0 Bft)
11.02.2026 15:16 21,7 °C 7,7 °C 47 % 91 % 984,4 hPa 0,0 l/m² 0,0 km/h (0 Bft) S-SW 192 ° 2 min 95 W/m² 6,3 °C 7,7 °C 0,0 km/h (0 Bft)
11.02.2026 15:18 21,7 °C 7,7 °C 47 % 91 % 984,5 hPa 0,0 l/m² 0,0 km/h (0 Bft) S-SW 198 ° 2 min 104 W/m² 6,3 °C 7,7 °C 0,0 km/h (0 Bft)
11.02.2026 15:20 21,6 °C 7,7 °C 47 % 91 % 984,4 hPa 0,0 l/m² 0,0 km/h (0 Bft) SW 216 ° 2 min 95 W/m² 6,3 °C 7,7 °C 0,0 km/h (0 Bft)
11.02.2026 15:22 21,6 °C 7,7 °C 47 % 91 % 984,4 hPa 0,0 l/m² 1,2 km/h (1 Bft) SW 219 ° 2 min 97 W/m² 6,3 °C 7,7 °C 8,0 km/h (2 Bft)
11.02.2026 15:23 21,6 °C 7,7 °C 47 % 91 % 984,4 hPa 0,0 l/m² 4,4 km/h (1 Bft) SW 221 ° 1 min 95 W/m² 6,3 °C 7,7 °C 6,4 km/h (2 Bft)
11.02.2026 15:24 21,6 °C 7,8 °C 47 % 91 % 984,4 hPa 0,0 l/m² 0,7 km/h (0 Bft) SW 222 ° 1 min 95 W/m² 6,4 °C 7,8 °C 3,2 km/h (1 Bft)
11.02.2026 15:26 21,7 °C 7,8 °C 47 % 91 % 984,4 hPa 0,0 l/m² 0,0 km/h (0 Bft) SW 222 ° 2 min 79 W/m² 6,4 °C 7,8 °C 0,0 km/h (0 Bft)
11.02.2026 15:28 21,7 °C 7,8 °C 47 % 91 % 984,5 hPa 0,0 l/m² 0,9 km/h (0 Bft) S-SW 209 ° 2 min 67 W/m² 6,4 °C 7,8 °C 6,4 km/h (2 Bft)
11.02.2026 15:30 21,6 °C 7,8 °C 47 % 91 % 984,5 hPa 0,0 l/m² 1,9 km/h (1 Bft) SW 214 ° 2 min 60 W/m² 6,4 °C 7,8 °C 6,4 km/h (2 Bft)
11.02.2026 15:32 21,6 °C 7,8 °C 47 % 91 % 984,4 hPa 0,0 l/m² 4,2 km/h (1 Bft) W-SW 248 ° 2 min 56 W/m² 6,4 °C 7,8 °C 11,3 km/h (2 Bft)
11.02.2026 15:33 21,6 °C 7,8 °C 47 % 91 % 984,4 hPa 0,0 l/m² 7,8 km/h (2 Bft) W-SW 252 ° 1 min 58 W/m² 6,4 °C 6,7 °C 11,3 km/h (2 Bft)
11.02.2026 15:34 21,6 °C 7,8 °C 47 % 91 % 984,5 hPa 0,0 l/m² 10,2 km/h (2 Bft) SW 226 ° 1 min 56 W/m² 6,4 °C 5,0 °C 16,1 km/h (3 Bft)
11.02.2026 15:36 21,6 °C 7,8 °C 47 % 91 % 984,5 hPa 0,0 l/m² 6,8 km/h (2 Bft) SW 225 ° 2 min 63 W/m² 6,4 °C 7,5 °C 9,7 km/h (2 Bft)
11.02.2026 15:38 21,6 °C 7,8 °C 47 % 91 % 984,5 hPa 0,0 l/m² 5,9 km/h (2 Bft) W-SW 241 ° 2 min 63 W/m² 6,4 °C 7,8 °C 9,7 km/h (2 Bft)
11.02.2026 15:40 21,6 °C 7,8 °C 47 % 91 % 984,5 hPa 0,0 l/m² 7,4 km/h (2 Bft) SW 225 ° 2 min 62 W/m² 6,4 °C 7,0 °C 11,3 km/h (2 Bft)
11.02.2026 15:42 21,6 °C 7,8 °C 47 % 91 % 984,5 hPa 0,0 l/m² 7,1 km/h (2 Bft) SW 225 ° 2 min 62 W/m² 6,4 °C 7,2 °C 11,3 km/h (2 Bft)
11.02.2026 15:43 21,6 °C 7,8 °C 47 % 91 % 984,5 hPa 0,0 l/m² 8,8 km/h (2 Bft) W-SW 247 ° 1 min 62 W/m² 6,4 °C 6,0 °C 11,3 km/h (2 Bft)
11.02.2026 15:45 21,6 °C 7,8 °C 47 % 91 % 984,5 hPa 0,0 l/m² 9,2 km/h (2 Bft) SW 230 ° 2 min 60 W/m² 6,4 °C 5,7 °C 12,9 km/h (3 Bft)
11.02.2026 15:47 21,6 °C 7,7 °C 47 % 91 % 984,5 hPa 0,0 l/m² 5,0 km/h (1 Bft) SW 228 ° 2 min 54 W/m² 6,3 °C 7,7 °C 8,0 km/h (2 Bft)
11.02.2026 15:49 21,6 °C 7,7 °C 47 % 91 % 984,6 hPa 0,0 l/m² 3,9 km/h (1 Bft) SW 216 ° 0 min 49 W/m² 6,3 °C 7,7 °C 9,7 km/h (2 Bft)
11.02.2026 15:51 21,7 °C 7,7 °C 47 % 91 % 984,6 hPa 0,0 l/m² 6,7 km/h (2 Bft) SW 227 ° 0 min 49 W/m² 6,3 °C 7,5 °C 9,7 km/h (2 Bft)
11.02.2026 15:52 21,7 °C 7,7 °C 47 % 91 % 984,6 hPa 0,0 l/m² 8,9 km/h (2 Bft) SW 216 ° 0 min 49 W/m² 6,3 °C 5,8 °C 12,9 km/h (3 Bft)
11.02.2026 15:53 21,6 °C 7,7 °C 47 % 91 % 984,5 hPa 0,0 l/m² 8,6 km/h (2 Bft) SW 220 ° 0 min 47 W/m² 6,3 °C 6,0 °C 11,3 km/h (2 Bft)
11.02.2026 15:55 21,6 °C 7,7 °C 47 % 91 % 984,5 hPa 0,0 l/m² 7,2 km/h (2 Bft) SW 229 ° 0 min 44 W/m² 6,3 °C 7,1 °C 11,3 km/h (2 Bft)
11.02.2026 15:57 21,6 °C 7,6 °C 47 % 91 % 984,6 hPa 0,0 l/m² 8,9 km/h (2 Bft) SW 221 ° 0 min 35 W/m² 6,2 °C 5,7 °C 12,9 km/h (3 Bft)
11.02.2026 15:59 21,6 °C 7,6 °C 47 % 91 % 984,6 hPa 0,0 l/m² 7,1 km/h (2 Bft) SW 230 ° 0 min 28 W/m² 6,2 °C 7,0 °C 14,5 km/h (3 Bft)
11.02.2026 16:01 21,6 °C 7,6 °C 47 % 90 % 984,6 hPa 0,0 l/m² 7,5 km/h (2 Bft) SW 224 ° 0 min 25 W/m² 6,1 °C 6,7 °C 11,3 km/h (2 Bft)
11.02.2026 16:02 21,6 °C 7,6 °C 47 % 90 % 984,6 hPa 0,0 l/m² 8,5 km/h (2 Bft) SW 236 ° 0 min 25 W/m² 6,1 °C 6,0 °C 11,3 km/h (2 Bft)
11.02.2026 16:03 21,6 °C 7,5 °C 47 % 90 % 984,5 hPa 0,0 l/m² 5,9 km/h (2 Bft) S-SW 209 ° 0 min 26 W/m² 6,0 °C 7,5 °C 11,3 km/h (2 Bft)
11.02.2026 16:04 21,6 °C 7,6 °C 47 % 90 % 984,5 hPa 0,0 l/m² 5,5 km/h (2 Bft) SW 236 ° 0 min 26 W/m² 6,1 °C 7,6 °C 9,7 km/h (2 Bft)
11.02.2026 16:05 21,6 °C 7,5 °C 47 % 90 % 984,6 hPa 0,0 l/m² 5,3 km/h (1 Bft) SW 232 ° 0 min 26 W/m² 6,0 °C 7,5 °C 6,4 km/h (2 Bft)
11.02.2026 16:06 21,6 °C 7,5 °C 47 % 90 % 984,5 hPa 0,0 l/m² 3,7 km/h (1 Bft) SW 233 ° 0 min 26 W/m² 6,0 °C 7,5 °C 6,4 km/h (2 Bft)
11.02.2026 16:08 21,6 °C 7,4 °C 47 % 90 % 984,5 hPa 0,0 l/m² 6,1 km/h (2 Bft) SW 223 ° 0 min 26 W/m² 5,9 °C 7,4 °C 9,7 km/h (2 Bft)
11.02.2026 16:09 21,6 °C 7,4 °C 47 % 90 % 984,5 hPa 0,0 l/m² 10,4 km/h (2 Bft) SW 231 ° 0 min 26 W/m² 5,9 °C 4,5 °C 14,5 km/h (3 Bft)
11.02.2026 16:11 21,6 °C 7,4 °C 47 % 90 % 984,5 hPa 0,0 l/m² 7,2 km/h (2 Bft) SW 235 ° 0 min 28 W/m² 5,9 °C 6,8 °C 12,9 km/h (3 Bft)
11.02.2026 16:12 21,6 °C 7,4 °C 47 % 90 % 984,5 hPa 0,0 l/m² 6,4 km/h (2 Bft) W-SW 252 ° 0 min 32 W/m² 5,9 °C 7,4 °C 11,3 km/h (2 Bft)
11.02.2026 16:13 21,6 °C 7,4 °C 47 % 90 % 984,5 hPa 0,0 l/m² 6,9 km/h (2 Bft) SW 224 ° 0 min 32 W/m² 5,9 °C 7,0 °C 8,0 km/h (2 Bft)
11.02.2026 16:15 21,6 °C 7,4 °C 47 % 90 % 984,5 hPa 0,0 l/m² 5,2 km/h (1 Bft) SW 232 ° 0 min 32 W/m² 5,9 °C 7,4 °C 8,0 km/h (2 Bft)
11.02.2026 16:16 21,6 °C 7,4 °C 47 % 90 % 984,5 hPa 0,0 l/m² 5,3 km/h (1 Bft) SW 234 ° 0 min 32 W/m² 5,9 °C 7,4 °C 8,0 km/h (2 Bft)
11.02.2026 16:17 21,5 °C 7,4 °C 47 % 91 % 984,4 hPa 0,0 l/m² 5,8 km/h (2 Bft) SW 236 ° 0 min 32 W/m² 6,0 °C 7,4 °C 6,4 km/h (2 Bft)
11.02.2026 16:18 21,6 °C 7,4 °C 47 % 90 % 984,5 hPa 0,0 l/m² 5,6 km/h (2 Bft) W-SW 252 ° 0 min 32 W/m² 5,9 °C 7,4 °C 8,0 km/h (2 Bft)
11.02.2026 16:19 21,5 °C 7,4 °C 47 % 91 % 984,4 hPa 0,0 l/m² 9,5 km/h (2 Bft) SW 235 ° 0 min 33 W/m² 6,0 °C 5,1 °C 12,9 km/h (3 Bft)
11.02.2026 16:21 21,5 °C 7,4 °C 47 % 91 % 984,6 hPa 0,0 l/m² 7,6 km/h (2 Bft) SW 230 ° 0 min 30 W/m² 6,0 °C 6,4 °C 11,3 km/h (2 Bft)
11.02.2026 16:22 21,6 °C 7,3 °C 47 % 91 % 984,6 hPa 0,0 l/m² 8,4 km/h (2 Bft) W-SW 239 ° 0 min 30 W/m² 5,9 °C 5,7 °C 12,9 km/h (3 Bft)
11.02.2026 16:23 21,6 °C 7,3 °C 47 % 91 % 984,6 hPa 0,0 l/m² 6,1 km/h (2 Bft) SW 235 ° 0 min 30 W/m² 5,9 °C 7,3 °C 8,0 km/h (2 Bft)
11.02.2026 16:25 21,5 °C 7,3 °C 47 % 91 % 984,5 hPa 0,0 l/m² 5,0 km/h (1 Bft) SW 225 ° 0 min 30 W/m² 5,9 °C 7,3 °C 9,7 km/h (2 Bft)
11.02.2026 16:26 21,5 °C 7,3 °C 47 % 91 % 984,4 hPa 0,0 l/m² 5,5 km/h (2 Bft) SW 232 ° 0 min 30 W/m² 5,9 °C 7,3 °C 9,7 km/h (2 Bft)
11.02.2026 16:27 21,5 °C 7,3 °C 47 % 90 % 984,5 hPa 0,0 l/m² 6,5 km/h (2 Bft) SW 230 ° 0 min 30 W/m² 5,8 °C 7,2 °C 11,3 km/h (2 Bft)
11.02.2026 16:28 21,5 °C 7,3 °C 47 % 90 % 984,5 hPa 0,0 l/m² 7,5 km/h (2 Bft) SW 236 ° 0 min 30 W/m² 5,8 °C 6,4 °C 11,3 km/h (2 Bft)
11.02.2026 16:29 21,5 °C 7,3 °C 47 % 90 % 984,5 hPa 0,0 l/m² 7,6 km/h (2 Bft) SW 228 ° 0 min 30 W/m² 5,8 °C 6,3 °C 9,7 km/h (2 Bft)
11.02.2026 16:31 21,5 °C 7,2 °C 47 % 90 % 984,4 hPa 0,0 l/m² 6,2 km/h (2 Bft) SW 230 ° 0 min 32 W/m² 5,7 °C 7,2 °C 8,0 km/h (2 Bft)
11.02.2026 16:32 21,5 °C 7,2 °C 47 % 91 % 984,5 hPa 0,0 l/m² 5,4 km/h (2 Bft) SW 232 ° 0 min 32 W/m² 5,8 °C 7,2 °C 8,0 km/h (2 Bft)
11.02.2026 16:33 21,5 °C 7,2 °C 47 % 91 % 984,5 hPa 0,0 l/m² 7,7 km/h (2 Bft) SW 230 ° 0 min 32 W/m² 5,8 °C 6,1 °C 9,7 km/h (2 Bft)
11.02.2026 16:35 21,5 °C 7,2 °C 47 % 91 % 984,4 hPa 0,0 l/m² 4,5 km/h (1 Bft) SW 236 ° 0 min 30 W/m² 5,8 °C 7,2 °C 8,0 km/h (2 Bft)
11.02.2026 16:36 21,5 °C 7,2 °C 47 % 90 % 984,5 hPa 0,0 l/m² 4,2 km/h (1 Bft) SW 235 ° 0 min 28 W/m² 5,7 °C 7,2 °C 4,8 km/h (1 Bft)
11.02.2026 16:37 21,5 °C 7,2 °C 47 % 90 % 984,5 hPa 0,0 l/m² 5,2 km/h (1 Bft) SW 228 ° 0 min 28 W/m² 5,7 °C 7,2 °C 8,0 km/h (2 Bft)
11.02.2026 16:38 21,5 °C 7,2 °C 47 % 90 % 984,4 hPa 0,0 l/m² 7,0 km/h (2 Bft) SW 219 ° 0 min 26 W/m² 5,7 °C 6,7 °C 12,9 km/h (3 Bft)
11.02.2026 16:39 21,5 °C 7,2 °C 47 % 90 % 984,4 hPa 0,0 l/m² 5,3 km/h (1 Bft) SW 226 ° 0 min 26 W/m² 5,7 °C 7,2 °C 8,0 km/h (2 Bft)
11.02.2026 16:41 21,5 °C 7,2 °C 47 % 90 % 984,5 hPa 0,0 l/m² 3,7 km/h (1 Bft) SW 232 ° 0 min 25 W/m² 5,7 °C 7,2 °C 9,7 km/h (2 Bft)
11.02.2026 16:42 21,4 °C 7,2 °C 47 % 90 % 984,5 hPa 0,0 l/m² 4,5 km/h (1 Bft) SW 232 ° 0 min 23 W/m² 5,7 °C 7,2 °C 6,4 km/h (2 Bft)
11.02.2026 16:43 21,4 °C 7,2 °C 47 % 90 % 984,5 hPa 0,0 l/m² 1,6 km/h (1 Bft) W-SW 237 ° 0 min 23 W/m² 5,7 °C 7,2 °C 4,8 km/h (1 Bft)
11.02.2026 16:45 21,4 °C 7,1 °C 47 % 91 % 984,5 hPa 0,0 l/m² 6,8 km/h (2 Bft) SW 229 ° 0 min 25 W/m² 5,7 °C 6,8 °C 8,0 km/h (2 Bft)
11.02.2026 16:47 21,4 °C 7,1 °C 47 % 91 % 984,5 hPa 0,0 l/m² 4,7 km/h (1 Bft) SW 225 ° 0 min 25 W/m² 5,7 °C 7,1 °C 9,7 km/h (2 Bft)
11.02.2026 16:48 21,4 °C 7,1 °C 47 % 91 % 984,5 hPa 0,0 l/m² 8,0 km/h (2 Bft) SW 223 ° 0 min 25 W/m² 5,7 °C 5,8 °C 9,7 km/h (2 Bft)
11.02.2026 16:49 21,4 °C 7,1 °C 47 % 91 % 984,5 hPa 0,0 l/m² 5,9 km/h (2 Bft) SW 229 ° 0 min 25 W/m² 5,7 °C 7,1 °C 6,4 km/h (2 Bft)
11.02.2026 16:51 21,4 °C 7,1 °C 47 % 91 % 984,5 hPa 0,0 l/m² 4,7 km/h (1 Bft) S-SW 209 ° 0 min 21 W/m² 5,7 °C 7,1 °C 9,7 km/h (2 Bft)
11.02.2026 16:52 21,4 °C 7,1 °C 47 % 91 % 984,5 hPa 0,0 l/m² 5,1 km/h (1 Bft) SW 217 ° 0 min 21 W/m² 5,7 °C 7,1 °C 6,4 km/h (2 Bft)
11.02.2026 16:53 21,4 °C 7,1 °C 47 % 91 % 984,5 hPa 0,0 l/m² 5,9 km/h (2 Bft) SW 217 ° 0 min 21 W/m² 5,7 °C 7,1 °C 8,0 km/h (2 Bft)
11.02.2026 16:54 21,4 °C 7,1 °C 47 % 91 % 984,5 hPa 0,0 l/m² 4,9 km/h (1 Bft) SW 217 ° 0 min 18 W/m² 5,7 °C 7,1 °C 6,4 km/h (2 Bft)
11.02.2026 16:55 21,4 °C 7,1 °C 47 % 91 % 984,5 hPa 0,0 l/m² 6,0 km/h (2 Bft) SW 224 ° 0 min 16 W/m² 5,7 °C 7,1 °C 8,0 km/h (2 Bft)
11.02.2026 16:56 21,4 °C 7,1 °C 47 % 91 % 984,5 hPa 0,0 l/m² 5,3 km/h (1 Bft) SW 229 ° 0 min 14 W/m² 5,7 °C 7,1 °C 8,0 km/h (2 Bft)
11.02.2026 16:57 21,4 °C 7,0 °C 47 % 91 % 984,5 hPa 0,0 l/m² 2,3 km/h (1 Bft) SW 230 ° 0 min 12 W/m² 5,6 °C 7,0 °C 6,4 km/h (2 Bft)
11.02.2026 16:58 21,4 °C 7,1 °C 47 % 91 % 984,5 hPa 0,0 l/m² 3,0 km/h (1 Bft) SW 229 ° 0 min 12 W/m² 5,7 °C 7,1 °C 6,4 km/h (2 Bft)
11.02.2026 16:59 21,5 °C 7,1 °C 47 % 91 % 984,6 hPa 0,0 l/m² 2,0 km/h (1 Bft) SW 229 ° 0 min 11 W/m² 5,7 °C 7,1 °C 4,8 km/h (1 Bft)
11.02.2026 17:01 21,4 °C 7,0 °C 47 % 91 % 984,4 hPa 0,0 l/m² 3,2 km/h (1 Bft) SW 227 ° 0 min 9 W/m² 5,6 °C 7,0 °C 6,4 km/h (2 Bft)
11.02.2026 17:03 21,4 °C 7,0 °C 47 % 91 % 984,5 hPa 0,0 l/m² 5,0 km/h (1 Bft) S-SW 208 ° 0 min 7 W/m² 5,6 °C 7,0 °C 8,0 km/h (2 Bft)
11.02.2026 17:04 21,4 °C 7,0 °C 47 % 91 % 984,5 hPa 0,0 l/m² 5,8 km/h (2 Bft) S-SW 213 ° 0 min 7 W/m² 5,6 °C 7,0 °C 6,4 km/h (2 Bft)
11.02.2026 17:05 21,4 °C 7,0 °C 47 % 91 % 984,5 hPa 0,0 l/m² 4,5 km/h (1 Bft) S-SW 213 ° 0 min 5 W/m² 5,6 °C 7,0 °C 6,4 km/h (2 Bft)
11.02.2026 17:06 21,4 °C 6,9 °C 47 % 91 % 984,5 hPa 0,0 l/m² 3,9 km/h (1 Bft) S-SW 213 ° 0 min 5 W/m² 5,5 °C 6,9 °C 4,8 km/h (1 Bft)
11.02.2026 17:07 21,4 °C 6,9 °C 47 % 91 % 984,5 hPa 0,0 l/m² 0,8 km/h (0 Bft) S-SW 213 ° 0 min 5 W/m² 5,5 °C 6,9 °C 4,8 km/h (1 Bft)
11.02.2026 17:08 21,4 °C 6,9 °C 47 % 91 % 984,5 hPa 0,0 l/m² 0,1 km/h (0 Bft) S-SW 213 ° 0 min 5 W/m² 5,5 °C 6,9 °C 1,6 km/h (1 Bft)
11.02.2026 17:09 21,4 °C 6,9 °C 47 % 91 % 984,6 hPa 0,0 l/m² 0,0 km/h (0 Bft) S-SW 213 ° 0 min 0 W/m² 5,5 °C 6,9 °C 0,0 km/h (0 Bft)
11.02.2026 17:11 21,4 °C 6,8 °C 47 % 91 % 984,4 hPa 0,0 l/m² 0,0 km/h (0 Bft) S-SW 213 ° 0 min 0 W/m² 5,4 °C 6,8 °C 0,0 km/h (0 Bft)
11.02.2026 17:13 21,4 °C 6,8 °C 47 % 91 % 984,5 hPa 0,0 l/m² 1,4 km/h (1 Bft) S-SW 212 ° 0 min 0 W/m² 5,4 °C 6,8 °C 4,8 km/h (1 Bft)
11.02.2026 17:14 21,4 °C 6,8 °C 47 % 91 % 984,4 hPa 0,0 l/m² 3,9 km/h (1 Bft) S-SW 212 ° 0 min 0 W/m² 5,4 °C 6,8 °C 4,8 km/h (1 Bft)
11.02.2026 17:15 21,4 °C 6,8 °C 47 % 91 % 984,5 hPa 0,0 l/m² 1,2 km/h (1 Bft) S-SW 212 ° 0 min 0 W/m² 5,4 °C 6,8 °C 4,8 km/h (1 Bft)
11.02.2026 17:17 21,4 °C 6,7 °C 47 % 91 % 984,4 hPa 0,0 l/m² 0,0 km/h (0 Bft) S-SW 212 ° 0 min 0 W/m² 5,3 °C 6,7 °C 1,6 km/h (1 Bft)
11.02.2026 17:18 21,4 °C 6,7 °C 47 % 91 % 984,4 hPa 0,0 l/m² 1,4 km/h (1 Bft) S-SW 212 ° 0 min 0 W/m² 5,3 °C 6,7 °C 4,8 km/h (1 Bft)
11.02.2026 17:19 21,4 °C 6,7 °C 47 % 91 % 984,5 hPa 0,0 l/m² 1,8 km/h (1 Bft) S-SW 212 ° 0 min 0 W/m² 5,3 °C 6,7 °C 6,4 km/h (2 Bft)
11.02.2026 17:21 21,4 °C 6,7 °C 47 % 91 % 984,5 hPa 0,0 l/m² 3,9 km/h (1 Bft) S-SW 212 ° 0 min 0 W/m² 5,3 °C 6,7 °C 4,8 km/h (1 Bft)
11.02.2026 17:23 21,4 °C 6,7 °C 47 % 91 % 984,5 hPa 0,0 l/m² 0,0 km/h (0 Bft) S-SW 212 ° 0 min 0 W/m² 5,3 °C 6,7 °C 0,0 km/h (0 Bft)
11.02.2026 17:24 21,4 °C 6,6 °C 47 % 91 % 984,5 hPa 0,0 l/m² 0,0 km/h (0 Bft) S-SW 212 ° 0 min 0 W/m² 5,2 °C 6,6 °C 0,0 km/h (0 Bft)
11.02.2026 17:25 21,4 °C 6,6 °C 47 % 91 % 984,5 hPa 0,0 l/m² 0,0 km/h (0 Bft) S-SW 212 ° 0 min 0 W/m² 5,2 °C 6,6 °C 0,0 km/h (0 Bft)
11.02.2026 17:26 21,4 °C 6,6 °C 47 % 91 % 984,5 hPa 0,0 l/m² 0,0 km/h (0 Bft) S-SW 212 ° 0 min 0 W/m² 5,2 °C 6,6 °C 0,0 km/h (0 Bft)
11.02.2026 17:27 21,4 °C 6,6 °C 47 % 91 % 984,5 hPa 0,0 l/m² 0,0 km/h (0 Bft) S-SW 212 ° 0 min 0 W/m² 5,2 °C 6,6 °C 0,0 km/h (0 Bft)
11.02.2026 17:28 21,4 °C 6,6 °C 47 % 91 % 984,6 hPa 0,0 l/m² 0,2 km/h (0 Bft) SW 215 ° 0 min 0 W/m² 5,2 °C 6,6 °C 1,6 km/h (1 Bft)
11.02.2026 17:29 21,4 °C 6,6 °C 47 % 91 % 984,5 hPa 0,0 l/m² 4,0 km/h (1 Bft) SW 215 ° 0 min 0 W/m² 5,2 °C 6,6 °C 4,8 km/h (1 Bft)
11.02.2026 17:31 21,4 °C 6,6 °C 47 % 91 % 984,6 hPa 0,0 l/m² 3,1 km/h (1 Bft) SW 216 ° 0 min 0 W/m² 5,2 °C 6,6 °C 4,8 km/h (1 Bft)
11.02.2026 17:33 21,4 °C 6,6 °C 47 % 91 % 984,5 hPa 0,0 l/m² 0,1 km/h (0 Bft) SW 216 ° 0 min 0 W/m² 5,2 °C 6,6 °C 3,2 km/h (1 Bft)
11.02.2026 17:34 21,4 °C 6,6 °C 47 % 91 % 984,5 hPa 0,0 l/m² 0,0 km/h (0 Bft) SW 216 ° 0 min 0 W/m² 5,2 °C 6,6 °C 0,0 km/h (0 Bft)
11.02.2026 17:35 21,4 °C 6,6 °C 47 % 91 % 984,6 hPa 0,0 l/m² 0,0 km/h (0 Bft) SW 216 ° 0 min 0 W/m² 5,2 °C 6,6 °C 0,0 km/h (0 Bft)
11.02.2026 17:36 21,4 °C 6,6 °C 47 % 91 % 984,5 hPa 0,0 l/m² 0,0 km/h (0 Bft) SW 217 ° 0 min 0 W/m² 5,2 °C 6,6 °C 0,0 km/h (0 Bft)
11.02.2026 17:37 21,4 °C 6,6 °C 47 % 91 % 984,5 hPa 0,0 l/m² 0,0 km/h (0 Bft) SW 217 ° 0 min 0 W/m² 5,2 °C 6,6 °C 0,0 km/h (0 Bft)
11.02.2026 17:38 21,4 °C 6,6 °C 47 % 91 % 984,5 hPa 0,0 l/m² 0,1 km/h (0 Bft) SW 232 ° 0 min 0 W/m² 5,2 °C 6,6 °C 1,6 km/h (1 Bft)
11.02.2026 17:39 21,4 °C 6,6 °C 47 % 91 % 984,5 hPa 0,0 l/m² 2,5 km/h (1 Bft) W-SW 239 ° 0 min 0 W/m² 5,2 °C 6,6 °C 6,4 km/h (2 Bft)
11.02.2026 17:41 21,4 °C 6,6 °C 47 % 91 % 984,6 hPa 0,0 l/m² 3,3 km/h (1 Bft) W-SW 242 ° 0 min 0 W/m² 5,2 °C 6,6 °C 6,4 km/h (2 Bft)
11.02.2026 17:43 21,3 °C 6,6 °C 46 % 91 % 984,6 hPa 0,0 l/m² 4,5 km/h (1 Bft) W-SW 240 ° 0 min 0 W/m² 5,2 °C 6,6 °C 6,4 km/h (2 Bft)
11.02.2026 17:44 21,3 °C 6,6 °C 47 % 91 % 984,5 hPa 0,0 l/m² 3,6 km/h (1 Bft) W-SW 240 ° 0 min 0 W/m² 5,2 °C 6,6 °C 4,8 km/h (1 Bft)
11.02.2026 17:45 21,4 °C 6,6 °C 46 % 91 % 984,5 hPa 0,0 l/m² 3,9 km/h (1 Bft) W-SW 240 ° 0 min 0 W/m² 5,2 °C 6,6 °C 4,8 km/h (1 Bft)
11.02.2026 17:46 21,3 °C 6,6 °C 47 % 91 % 984,5 hPa 0,0 l/m² 5,9 km/h (2 Bft) W-SW 239 ° 0 min 0 W/m² 5,2 °C 6,6 °C 6,4 km/h (2 Bft)
11.02.2026 17:47 21,3 °C 6,6 °C 46 % 91 % 984,6 hPa 0,0 l/m² 4,5 km/h (1 Bft) W-SW 239 ° 0 min 0 W/m² 5,2 °C 6,6 °C 6,4 km/h (2 Bft)
11.02.2026 17:48 21,3 °C 6,6 °C 46 % 91 % 984,6 hPa 0,0 l/m² 4,7 km/h (1 Bft) W-SW 240 ° 0 min 0 W/m² 5,2 °C 6,6 °C 6,4 km/h (2 Bft)
11.02.2026 17:49 21,3 °C 6,6 °C 46 % 91 % 984,7 hPa 0,0 l/m² 7,3 km/h (2 Bft) SW 223 ° 0 min 0 W/m² 5,2 °C 5,8 °C 12,9 km/h (3 Bft)
11.02.2026 17:51 21,4 °C 6,6 °C 46 % 91 % 984,6 hPa 0,0 l/m² 4,6 km/h (1 Bft) SW 222 ° 0 min 0 W/m² 5,2 °C 6,6 °C 6,4 km/h (2 Bft)
11.02.2026 17:53 21,3 °C 6,5 °C 47 % 91 % 984,6 hPa 0,0 l/m² 6,5 km/h (2 Bft) W-SW 247 ° 0 min 0 W/m² 5,1 °C 6,4 °C 11,3 km/h (2 Bft)
11.02.2026 17:54 21,4 °C 6,6 °C 47 % 91 % 984,6 hPa 0,0 l/m² 5,4 km/h (2 Bft) SW 223 ° 0 min 0 W/m² 5,2 °C 6,6 °C 6,4 km/h (2 Bft)
11.02.2026 17:55 21,3 °C 6,5 °C 47 % 91 % 984,6 hPa 0,0 l/m² 7,2 km/h (2 Bft) SW 219 ° 0 min 0 W/m² 5,1 °C 5,8 °C 8,0 km/h (2 Bft)
11.02.2026 17:56 21,4 °C 6,6 °C 47 % 91 % 984,6 hPa 0,0 l/m² 6,2 km/h (2 Bft) SW 227 ° 0 min 0 W/m² 5,2 °C 6,6 °C 8,0 km/h (2 Bft)
11.02.2026 17:57 21,3 °C 6,5 °C 47 % 91 % 984,6 hPa 0,0 l/m² 5,5 km/h (2 Bft) SW 236 ° 0 min 0 W/m² 5,1 °C 6,5 °C 8,0 km/h (2 Bft)
11.02.2026 17:58 21,3 °C 6,5 °C 46 % 91 % 984,6 hPa 0,0 l/m² 5,8 km/h (2 Bft) SW 235 ° 0 min 0 W/m² 5,1 °C 6,5 °C 8,0 km/h (2 Bft)
11.02.2026 17:59 21,3 °C 6,5 °C 46 % 91 % 984,6 hPa 0,0 l/m² 5,5 km/h (2 Bft) SW 233 ° 0 min 0 W/m² 5,1 °C 6,5 °C 6,4 km/h (2 Bft)
11.02.2026 18:01 21,3 °C 6,5 °C 46 % 91 % 984,6 hPa 0,0 l/m² 0,2 km/h (0 Bft) W-SW 238 ° 0 min 0 W/m² 5,1 °C 6,5 °C 3,2 km/h (1 Bft)
11.02.2026 18:03 21,3 °C 6,5 °C 46 % 91 % 984,6 hPa 0,0 l/m² 0,0 km/h (0 Bft) W-SW 238 ° 0 min 0 W/m² 5,1 °C 6,5 °C 0,0 km/h (0 Bft)
11.02.2026 18:04 21,3 °C 6,5 °C 46 % 92 % 984,5 hPa 0,0 l/m² 0,0 km/h (0 Bft) W-SW 238 ° 0 min 0 W/m² 5,3 °C 6,5 °C 0,0 km/h (0 Bft)
11.02.2026 18:05 21,3 °C 6,5 °C 46 % 92 % 984,5 hPa 0,0 l/m² 1,8 km/h (1 Bft) W-SW 238 ° 0 min 0 W/m² 5,3 °C 6,5 °C 6,4 km/h (2 Bft)
11.02.2026 18:06 21,3 °C 6,5 °C 46 % 92 % 984,6 hPa 0,0 l/m² 1,5 km/h (1 Bft) W-SW 238 ° 0 min 0 W/m² 5,3 °C 6,5 °C 4,8 km/h (1 Bft)
11.02.2026 18:08 21,3 °C 6,4 °C 46 % 92 % 984,5 hPa 0,0 l/m² 0,4 km/h (0 Bft) W-SW 238 ° 0 min 0 W/m² 5,2 °C 6,4 °C 3,2 km/h (1 Bft)
11.02.2026 18:09 21,3 °C 6,5 °C 46 % 92 % 984,5 hPa 0,0 l/m² 2,9 km/h (1 Bft) W-SW 238 ° 0 min 0 W/m² 5,3 °C 6,5 °C 3,2 km/h (1 Bft)
11.02.2026 18:10 21,3 °C 6,4 °C 46 % 92 % 984,5 hPa 0,0 l/m² 0,0 km/h (0 Bft) W-SW 238 ° 0 min 0 W/m² 5,2 °C 6,4 °C 0,0 km/h (0 Bft)
11.02.2026 18:12 21,3 °C 6,4 °C 46 % 92 % 984,6 hPa 0,0 l/m² 3,4 km/h (1 Bft) SW 225 ° 0 min 0 W/m² 5,2 °C 6,4 °C 8,0 km/h (2 Bft)
11.02.2026 18:13 21,3 °C 6,4 °C 46 % 92 % 984,6 hPa 0,0 l/m² 4,7 km/h (1 Bft) SW 225 ° 0 min 0 W/m² 5,2 °C 6,4 °C 4,8 km/h (1 Bft)
11.02.2026 18:14 21,3 °C 6,4 °C 46 % 92 % 984,6 hPa 0,0 l/m² 5,4 km/h (2 Bft) SW 225 ° 0 min 0 W/m² 5,2 °C 6,4 °C 6,4 km/h (2 Bft)
11.02.2026 18:15 21,3 °C 6,4 °C 46 % 92 % 984,5 hPa 0,0 l/m² 4,6 km/h (1 Bft) SW 225 ° 0 min 0 W/m² 5,2 °C 6,4 °C 4,8 km/h (1 Bft)
11.02.2026 18:16 21,3 °C 6,4 °C 46 % 91 % 984,5 hPa 0,0 l/m² 2,3 km/h (1 Bft) SW 225 ° 0 min 0 W/m² 5,0 °C 6,4 °C 4,8 km/h (1 Bft)
11.02.2026 18:17 21,3 °C 6,4 °C 46 % 92 % 984,5 hPa 0,0 l/m² 0,1 km/h (0 Bft) SW 225 ° 0 min 0 W/m² 5,2 °C 6,4 °C 1,6 km/h (1 Bft)
11.02.2026 18:18 21,3 °C 6,4 °C 46 % 91 % 984,6 hPa 0,0 l/m² 0,0 km/h (0 Bft) SW 225 ° 0 min 0 W/m² 5,0 °C 6,4 °C 0,0 km/h (0 Bft)
11.02.2026 18:19 21,3 °C 6,4 °C 46 % 91 % 984,5 hPa 0,0 l/m² 0,0 km/h (0 Bft) SW 225 ° 0 min 0 W/m² 5,0 °C 6,4 °C 0,0 km/h (0 Bft)
11.02.2026 18:21 21,3 °C 6,4 °C 47 % 91 % 984,6 hPa 0,0 l/m² 0,0 km/h (0 Bft) SW 225 ° 0 min 0 W/m² 5,0 °C 6,4 °C 0,0 km/h (0 Bft)
11.02.2026 18:23 21,3 °C 6,4 °C 47 % 92 % 984,6 hPa 0,0 l/m² 0,0 km/h (0 Bft) SW 225 ° 0 min 0 W/m² 5,2 °C 6,4 °C 0,0 km/h (0 Bft)
11.02.2026 18:24 21,3 °C 6,4 °C 47 % 92 % 984,5 hPa 0,0 l/m² 0,0 km/h (0 Bft) SW 225 ° 0 min 0 W/m² 5,2 °C 6,4 °C 0,0 km/h (0 Bft)
11.02.2026 18:25 21,3 °C 6,4 °C 47 % 92 % 984,5 hPa 0,0 l/m² 0,0 km/h (0 Bft) SW 225 ° 0 min 0 W/m² 5,2 °C 6,4 °C 0,0 km/h (0 Bft)
11.02.2026 18:26 21,3 °C 6,4 °C 47 % 92 % 984,5 hPa 0,0 l/m² 0,0 km/h (0 Bft) SW 225 ° 0 min 0 W/m² 5,2 °C 6,4 °C 0,0 km/h (0 Bft)
11.02.2026 18:27 21,3 °C 6,4 °C 47 % 92 % 984,6 hPa 0,0 l/m² 0,0 km/h (0 Bft) SW 225 ° 0 min 0 W/m² 5,2 °C 6,4 °C 0,0 km/h (0 Bft)
11.02.2026 18:28 21,3 °C 6,4 °C 47 % 92 % 984,6 hPa 0,0 l/m² 0,0 km/h (0 Bft) SW 225 ° 0 min 0 W/m² 5,2 °C 6,4 °C 0,0 km/h (0 Bft)
11.02.2026 18:29 21,3 °C 6,4 °C 47 % 92 % 984,5 hPa 0,0 l/m² 0,0 km/h (0 Bft) SW 225 ° 0 min 0 W/m² 5,2 °C 6,4 °C 0,0 km/h (0 Bft)
11.02.2026 18:31 21,3 °C 6,4 °C 47 % 92 % 984,6 hPa 0,0 l/m² 0,0 km/h (0 Bft) SW 225 ° 0 min 0 W/m² 5,2 °C 6,4 °C 0,0 km/h (0 Bft)
11.02.2026 18:33 21,3 °C 6,4 °C 47 % 92 % 984,5 hPa 0,0 l/m² 0,0 km/h (0 Bft) SW 225 ° 0 min 0 W/m² 5,2 °C 6,4 °C 0,0 km/h (0 Bft)
11.02.2026 18:34 21,3 °C 6,4 °C 47 % 92 % 984,6 hPa 0,0 l/m² 0,0 km/h (0 Bft) SW 225 ° 0 min 0 W/m² 5,2 °C 6,4 °C 0,0 km/h (0 Bft)
11.02.2026 18:35 21,3 °C 6,4 °C 47 % 92 % 984,6 hPa 0,0 l/m² 0,0 km/h (0 Bft) SW 225 ° 0 min 0 W/m² 5,2 °C 6,4 °C 0,0 km/h (0 Bft)
11.02.2026 18:36 21,3 °C 6,3 °C 47 % 92 % 984,5 hPa 0,0 l/m² 0,0 km/h (0 Bft) SW 225 ° 0 min 0 W/m² 5,1 °C 6,3 °C 0,0 km/h (0 Bft)
11.02.2026 18:37 21,3 °C 6,3 °C 47 % 92 % 984,6 hPa 0,0 l/m² 0,0 km/h (0 Bft) SW 225 ° 0 min 0 W/m² 5,1 °C 6,3 °C 0,0 km/h (0 Bft)
11.02.2026 18:38 21,4 °C 6,3 °C 47 % 92 % 984,6 hPa 0,0 l/m² 0,0 km/h (0 Bft) SW 225 ° 0 min 0 W/m² 5,1 °C 6,3 °C 0,0 km/h (0 Bft)
11.02.2026 18:39 21,3 °C 6,3 °C 47 % 92 % 984,6 hPa 0,0 l/m² 0,0 km/h (0 Bft) SW 225 ° 0 min 0 W/m² 5,1 °C 6,3 °C 0,0 km/h (0 Bft)
11.02.2026 18:41 21,3 °C 6,3 °C 47 % 92 % 984,5 hPa 0,0 l/m² 0,0 km/h (0 Bft) SW 225 ° 0 min 0 W/m² 5,1 °C 6,3 °C 0,0 km/h (0 Bft)
11.02.2026 18:43 21,3 °C 6,2 °C 47 % 91 % 984,6 hPa 0,0 l/m² 0,0 km/h (0 Bft) SW 225 ° 0 min 0 W/m² 4,8 °C 6,2 °C 0,0 km/h (0 Bft)
11.02.2026 18:44 21,4 °C 6,2 °C 47 % 91 % 984,6 hPa 0,0 l/m² 0,0 km/h (0 Bft) SW 225 ° 0 min 0 W/m² 4,8 °C 6,2 °C 0,0 km/h (0 Bft)
11.02.2026 18:46 21,4 °C 6,2 °C 47 % 92 % 984,6 hPa 0,0 l/m² 0,0 km/h (0 Bft) SW 225 ° 0 min 0 W/m² 5,0 °C 6,2 °C 0,0 km/h (0 Bft)
11.02.2026 18:47 21,3 °C 6,1 °C 47 % 91 % 984,6 hPa 0,0 l/m² 0,0 km/h (0 Bft) SW 225 ° 0 min 0 W/m² 4,7 °C 6,1 °C 0,0 km/h (0 Bft)
11.02.2026 18:48 21,4 °C 6,1 °C 47 % 91 % 984,5 hPa 0,0 l/m² 0,0 km/h (0 Bft) SW 225 ° 0 min 0 W/m² 4,7 °C 6,1 °C 0,0 km/h (0 Bft)
11.02.2026 18:49 21,3 °C 6,1 °C 48 % 91 % 984,6 hPa 0,0 l/m² 0,0 km/h (0 Bft) SW 225 ° 0 min 0 W/m² 4,7 °C 6,1 °C 0,0 km/h (0 Bft)
11.02.2026 18:50 21,3 °C 6,1 °C 47 % 91 % 984,6 hPa 0,0 l/m² 0,0 km/h (0 Bft) SW 225 ° 0 min 0 W/m² 4,7 °C 6,1 °C 0,0 km/h (0 Bft)
11.02.2026 18:52 21,3 °C 6,0 °C 48 % 91 % 984,6 hPa 0,0 l/m² 0,0 km/h (0 Bft) SW 225 ° 0 min 0 W/m² 4,6 °C 6,0 °C 0,0 km/h (0 Bft)
11.02.2026 18:53 21,3 °C 6,0 °C 47 % 91 % 984,6 hPa 0,0 l/m² 0,0 km/h (0 Bft) SW 225 ° 0 min 0 W/m² 4,6 °C 6,0 °C 0,0 km/h (0 Bft)
11.02.2026 18:54 21,3 °C 5,9 °C 48 % 91 % 984,7 hPa 0,0 l/m² 0,0 km/h (0 Bft) SW 225 ° 0 min 0 W/m² 4,5 °C 5,9 °C 0,0 km/h (0 Bft)
11.02.2026 18:55 21,3 °C 5,9 °C 48 % 92 % 984,6 hPa 0,0 l/m² 0,0 km/h (0 Bft) SW 225 ° 0 min 0 W/m² 4,7 °C 5,9 °C 0,0 km/h (0 Bft)
11.02.2026 18:56 21,3 °C 5,9 °C 48 % 92 % 984,7 hPa 0,0 l/m² 0,0 km/h (0 Bft) SW 225 ° 0 min 0 W/m² 4,7 °C 5,9 °C 0,0 km/h (0 Bft)
11.02.2026 18:57 21,3 °C 5,9 °C 47 % 92 % 984,6 hPa 0,0 l/m² 0,0 km/h (0 Bft) SW 225 ° 0 min 0 W/m² 4,7 °C 5,9 °C 0,0 km/h (0 Bft)
11.02.2026 18:58 21,4 °C 5,9 °C 48 % 92 % 984,6 hPa 0,0 l/m² 0,0 km/h (0 Bft) SW 225 ° 0 min 0 W/m² 4,7 °C 5,9 °C 0,0 km/h (0 Bft)
11.02.2026 18:59 21,3 °C 5,9 °C 48 % 92 % 984,6 hPa 0,0 l/m² 0,0 km/h (0 Bft) SW 225 ° 0 min 0 W/m² 4,7 °C 5,9 °C 0,0 km/h (0 Bft)
11.02.2026 19:01 21,3 °C 5,9 °C 48 % 92 % 984,6 hPa 0,0 l/m² 0,0 km/h (0 Bft) SW 225 ° 0 min 0 W/m² 4,7 °C 5,9 °C 0,0 km/h (0 Bft)
11.02.2026 19:03 21,3 °C 5,8 °C 48 % 92 % 984,7 hPa 0,0 l/m² 0,0 km/h (0 Bft) SW 225 ° 0 min 0 W/m² 4,6 °C 5,8 °C 0,0 km/h (0 Bft)
11.02.2026 19:04 21,3 °C 5,8 °C 48 % 92 % 984,7 hPa 0,0 l/m² 0,0 km/h (0 Bft) SW 225 ° 0 min 0 W/m² 4,6 °C 5,8 °C 0,0 km/h (0 Bft)
11.02.2026 19:05 21,3 °C 5,8 °C 48 % 92 % 984,7 hPa 0,0 l/m² 0,0 km/h (0 Bft) SW 225 ° 0 min 0 W/m² 4,6 °C 5,8 °C 0,0 km/h (0 Bft)
11.02.2026 19:06 21,3 °C 5,8 °C 48 % 92 % 984,6 hPa 0,0 l/m² 0,0 km/h (0 Bft) SW 225 ° 0 min 0 W/m² 4,6 °C 5,8 °C 0,0 km/h (0 Bft)
11.02.2026 19:07 21,3 °C 5,8 °C 48 % 92 % 984,7 hPa 0,0 l/m² 0,0 km/h (0 Bft) SW 225 ° 0 min 0 W/m² 4,6 °C 5,8 °C 0,0 km/h (0 Bft)
11.02.2026 19:08 21,3 °C 5,8 °C 48 % 92 % 984,6 hPa 0,0 l/m² 0,0 km/h (0 Bft) SW 225 ° 0 min 0 W/m² 4,6 °C 5,8 °C 0,0 km/h (0 Bft)
11.02.2026 19:09 21,3 °C 5,8 °C 48 % 92 % 984,7 hPa 0,0 l/m² 0,0 km/h (0 Bft) SW 225 ° 0 min 0 W/m² 4,6 °C 5,8 °C 0,0 km/h (0 Bft)
11.02.2026 19:11 21,3 °C 5,8 °C 47 % 92 % 984,7 hPa 0,0 l/m² 0,0 km/h (0 Bft) SW 225 ° 0 min 0 W/m² 4,6 °C 5,8 °C 0,0 km/h (0 Bft)
11.02.2026 19:13 21,3 °C 5,7 °C 48 % 92 % 984,7 hPa 0,0 l/m² 0,0 km/h (0 Bft) SW 225 ° 0 min 0 W/m² 4,5 °C 5,7 °C 0,0 km/h (0 Bft)
11.02.2026 19:14 21,3 °C 5,7 °C 48 % 92 % 984,7 hPa 0,0 l/m² 0,0 km/h (0 Bft) SW 225 ° 0 min 0 W/m² 4,5 °C 5,7 °C 0,0 km/h (0 Bft)
11.02.2026 19:15 21,3 °C 5,7 °C 48 % 92 % 984,7 hPa 0,0 l/m² 0,0 km/h (0 Bft) SW 225 ° 0 min 0 W/m² 4,5 °C 5,7 °C 0,0 km/h (0 Bft)
11.02.2026 19:16 21,3 °C 5,7 °C 48 % 92 % 984,6 hPa 0,0 l/m² 0,0 km/h (0 Bft) SW 225 ° 0 min 0 W/m² 4,5 °C 5,7 °C 0,0 km/h (0 Bft)
11.02.2026 19:17 21,3 °C 5,8 °C 48 % 92 % 984,7 hPa 0,0 l/m² 0,0 km/h (0 Bft) SW 225 ° 0 min 0 W/m² 4,6 °C 5,8 °C 0,0 km/h (0 Bft)
11.02.2026 19:18 21,3 °C 5,7 °C 48 % 92 % 984,7 hPa 0,0 l/m² 0,0 km/h (0 Bft) SW 225 ° 0 min 0 W/m² 4,5 °C 5,7 °C 0,0 km/h (0 Bft)
11.02.2026 19:19 21,3 °C 5,7 °C 48 % 92 % 984,6 hPa 0,0 l/m² 0,0 km/h (0 Bft) SW 225 ° 0 min 0 W/m² 4,5 °C 5,7 °C 0,0 km/h (0 Bft)
11.02.2026 19:21 21,3 °C 5,8 °C 48 % 92 % 984,7 hPa 0,0 l/m² 0,0 km/h (0 Bft) SW 225 ° 0 min 0 W/m² 4,6 °C 5,8 °C 0,0 km/h (0 Bft)
11.02.2026 19:23 21,3 °C 5,8 °C 48 % 92 % 984,7 hPa 0,0 l/m² 0,0 km/h (0 Bft) SW 225 ° 0 min 0 W/m² 4,6 °C 5,8 °C 0,0 km/h (0 Bft)
11.02.2026 19:24 21,3 °C 5,8 °C 48 % 92 % 984,6 hPa 0,0 l/m² 0,0 km/h (0 Bft) SW 225 ° 0 min 0 W/m² 4,6 °C 5,8 °C 0,0 km/h (0 Bft)
11.02.2026 19:25 21,3 °C 5,8 °C 48 % 92 % 984,7 hPa 0,0 l/m² 0,0 km/h (0 Bft) SW 225 ° 0 min 0 W/m² 4,6 °C 5,8 °C 0,0 km/h (0 Bft)
11.02.2026 19:26 21,3 °C 5,8 °C 48 % 92 % 984,6 hPa 0,0 l/m² 0,0 km/h (0 Bft) SW 225 ° 0 min 0 W/m² 4,6 °C 5,8 °C 0,0 km/h (0 Bft)
11.02.2026 19:27 21,3 °C 5,8 °C 48 % 92 % 984,6 hPa 0,0 l/m² 0,0 km/h (0 Bft) SW 225 ° 0 min 0 W/m² 4,6 °C 5,8 °C 0,0 km/h (0 Bft)
11.02.2026 19:28 21,3 °C 5,8 °C 48 % 92 % 984,6 hPa 0,0 l/m² 0,0 km/h (0 Bft) SW 225 ° 0 min 0 W/m² 4,6 °C 5,8 °C 0,0 km/h (0 Bft)
11.02.2026 19:29 21,3 °C 5,8 °C 48 % 92 % 984,6 hPa 0,0 l/m² 0,0 km/h (0 Bft) SW 225 ° 0 min 0 W/m² 4,6 °C 5,8 °C 0,0 km/h (0 Bft)
11.02.2026 19:31 21,3 °C 5,8 °C 48 % 92 % 984,6 hPa 0,0 l/m² 0,0 km/h (0 Bft) SW 225 ° 0 min 0 W/m² 4,6 °C 5,8 °C 0,0 km/h (0 Bft)
11.02.2026 19:33 21,3 °C 5,8 °C 48 % 92 % 984,6 hPa 0,0 l/m² 0,0 km/h (0 Bft) SW 225 ° 0 min 0 W/m² 4,6 °C 5,8 °C 0,0 km/h (0 Bft)
11.02.2026 19:34 21,3 °C 5,8 °C 48 % 92 % 984,6 hPa 0,0 l/m² 0,0 km/h (0 Bft) SW 225 ° 0 min 0 W/m² 4,6 °C 5,8 °C 0,0 km/h (0 Bft)
11.02.2026 19:35 21,3 °C 5,8 °C 48 % 92 % 984,6 hPa 0,0 l/m² 0,0 km/h (0 Bft) SW 225 ° 0 min 0 W/m² 4,6 °C 5,8 °C 0,0 km/h (0 Bft)
11.02.2026 19:36 21,3 °C 5,8 °C 48 % 92 % 984,6 hPa 0,0 l/m² 0,0 km/h (0 Bft) SW 225 ° 0 min 0 W/m² 4,6 °C 5,8 °C 0,0 km/h (0 Bft)
11.02.2026 19:37 21,3 °C 5,8 °C 48 % 92 % 984,6 hPa 0,0 l/m² 0,0 km/h (0 Bft) SW 225 ° 0 min 0 W/m² 4,6 °C 5,8 °C 0,0 km/h (0 Bft)
11.02.2026 19:38 21,3 °C 5,8 °C 48 % 92 % 984,6 hPa 0,0 l/m² 0,0 km/h (0 Bft) SW 225 ° 0 min 0 W/m² 4,6 °C 5,8 °C 0,0 km/h (0 Bft)
11.02.2026 19:39 21,3 °C 5,8 °C 49 % 92 % 984,5 hPa 0,0 l/m² 0,0 km/h (0 Bft) SW 225 ° 0 min 0 W/m² 4,6 °C 5,8 °C 0,0 km/h (0 Bft)
11.02.2026 19:41 21,3 °C 5,8 °C 49 % 92 % 984,6 hPa 0,0 l/m² 0,0 km/h (0 Bft) SW 225 ° 0 min 0 W/m² 4,6 °C 5,8 °C 0,0 km/h (0 Bft)
11.02.2026 19:43 21,4 °C 5,8 °C 49 % 92 % 984,5 hPa 0,0 l/m² 0,0 km/h (0 Bft) SW 225 ° 0 min 0 W/m² 4,6 °C 5,8 °C 0,0 km/h (0 Bft)
11.02.2026 19:44 21,3 °C 5,8 °C 49 % 92 % 984,6 hPa 0,0 l/m² 0,0 km/h (0 Bft) SW 225 ° 0 min 0 W/m² 4,6 °C 5,8 °C 0,0 km/h (0 Bft)
11.02.2026 19:45 21,3 °C 5,7 °C 49 % 92 % 984,5 hPa 0,0 l/m² 0,0 km/h (0 Bft) SW 225 ° 0 min 0 W/m² 4,5 °C 5,7 °C 0,0 km/h (0 Bft)
11.02.2026 19:46 21,3 °C 5,7 °C 50 % 92 % 984,6 hPa 0,0 l/m² 0,0 km/h (0 Bft) SW 225 ° 0 min 0 W/m² 4,5 °C 5,7 °C 0,0 km/h (0 Bft)
11.02.2026 19:47 21,4 °C 5,7 °C 50 % 92 % 984,5 hPa 0,0 l/m² 0,0 km/h (0 Bft) SW 225 ° 0 min 0 W/m² 4,5 °C 5,7 °C 0,0 km/h (0 Bft)
11.02.2026 19:48 21,4 °C 5,7 °C 50 % 92 % 984,5 hPa 0,0 l/m² 0,0 km/h (0 Bft) SW 225 ° 0 min 0 W/m² 4,5 °C 5,7 °C 0,0 km/h (0 Bft)
11.02.2026 19:49 21,4 °C 5,7 °C 50 % 92 % 984,4 hPa 0,0 l/m² 0,0 km/h (0 Bft) SW 225 ° 0 min 0 W/m² 4,5 °C 5,7 °C 0,0 km/h (0 Bft)
11.02.2026 19:51 21,4 °C 5,7 °C 51 % 92 % 984,4 hPa 0,0 l/m² 0,0 km/h (0 Bft) SW 225 ° 0 min 0 W/m² 4,5 °C 5,7 °C 0,0 km/h (0 Bft)
11.02.2026 19:53 21,4 °C 5,7 °C 51 % 92 % 984,4 hPa 0,0 l/m² 0,0 km/h (0 Bft) SW 225 ° 0 min 0 W/m² 4,5 °C 5,7 °C 0,0 km/h (0 Bft)
11.02.2026 19:54 21,4 °C 5,7 °C 52 % 92 % 984,4 hPa 0,0 l/m² 0,0 km/h (0 Bft) SW 225 ° 0 min 0 W/m² 4,5 °C 5,7 °C 0,0 km/h (0 Bft)
11.02.2026 19:55 21,4 °C 5,7 °C 52 % 92 % 984,4 hPa 0,0 l/m² 0,0 km/h (0 Bft) SW 225 ° 0 min 0 W/m² 4,5 °C 5,7 °C 0,0 km/h (0 Bft)
11.02.2026 19:56 21,4 °C 5,7 °C 52 % 92 % 984,4 hPa 0,0 l/m² 0,0 km/h (0 Bft) SW 225 ° 0 min 0 W/m² 4,5 °C 5,7 °C 0,0 km/h (0 Bft)
11.02.2026 19:57 21,4 °C 5,7 °C 52 % 92 % 984,4 hPa 0,0 l/m² 0,0 km/h (0 Bft) SW 225 ° 0 min 0 W/m² 4,5 °C 5,7 °C 0,0 km/h (0 Bft)
11.02.2026 19:58 21,4 °C 5,7 °C 52 % 92 % 984,5 hPa 0,0 l/m² 0,0 km/h (0 Bft) SW 225 ° 0 min 0 W/m² 4,5 °C 5,7 °C 0,0 km/h (0 Bft)
11.02.2026 19:59 21,4 °C 5,7 °C 52 % 92 % 984,4 hPa 0,0 l/m² 0,0 km/h (0 Bft) SW 225 ° 0 min 0 W/m² 4,5 °C 5,7 °C 0,0 km/h (0 Bft)
11.02.2026 20:01 21,4 °C 5,7 °C 52 % 92 % 984,4 hPa 0,0 l/m² 0,0 km/h (0 Bft) SW 225 ° 0 min 0 W/m² 4,5 °C 5,7 °C 0,0 km/h (0 Bft)
11.02.2026 20:03 21,4 °C 5,7 °C 52 % 92 % 984,4 hPa 0,0 l/m² 0,0 km/h (0 Bft) SW 225 ° 0 min 0 W/m² 4,5 °C 5,7 °C 0,0 km/h (0 Bft)
11.02.2026 20:04 21,5 °C 5,7 °C 52 % 92 % 984,4 hPa 0,0 l/m² 0,0 km/h (0 Bft) SW 225 ° 0 min 0 W/m² 4,5 °C 5,7 °C 0,0 km/h (0 Bft)
11.02.2026 20:05 21,5 °C 5,7 °C 52 % 93 % 984,4 hPa 0,0 l/m² 0,0 km/h (0 Bft) SW 225 ° 0 min 0 W/m² 4,7 °C 5,7 °C 0,0 km/h (0 Bft)
11.02.2026 20:06 21,5 °C 5,7 °C 52 % 92 % 984,3 hPa 0,0 l/m² 0,0 km/h (0 Bft) SW 225 ° 0 min 0 W/m² 4,5 °C 5,7 °C 0,0 km/h (0 Bft)
11.02.2026 20:08 21,5 °C 5,7 °C 52 % 92 % 984,4 hPa 0,0 l/m² 0,0 km/h (0 Bft) SW 225 ° 0 min 0 W/m² 4,5 °C 5,7 °C 0,0 km/h (0 Bft)
11.02.2026 20:09 21,5 °C 5,7 °C 52 % 92 % 984,4 hPa 0,0 l/m² 0,0 km/h (0 Bft) SW 225 ° 0 min 0 W/m² 4,5 °C 5,7 °C 0,0 km/h (0 Bft)
11.02.2026 20:11 21,6 °C 5,6 °C 52 % 92 % 984,4 hPa 0,0 l/m² 0,0 km/h (0 Bft) SW 225 ° 0 min 0 W/m² 4,4 °C 5,6 °C 0,0 km/h (0 Bft)
11.02.2026 20:13 21,6 °C 5,6 °C 53 % 92 % 984,3 hPa 0,0 l/m² 0,0 km/h (0 Bft) SW 225 ° 0 min 0 W/m² 4,4 °C 5,6 °C 0,0 km/h (0 Bft)
11.02.2026 20:14 21,6 °C 5,6 °C 53 % 92 % 984,3 hPa 0,0 l/m² 0,0 km/h (0 Bft) S-SO 160 ° 0 min 0 W/m² 4,4 °C 5,6 °C 0,0 km/h (0 Bft)
11.02.2026 20:15 21,6 °C 5,6 °C 53 % 92 % 984,3 hPa 0,0 l/m² 0,0 km/h (0 Bft) S-SO 160 ° 0 min 0 W/m² 4,4 °C 5,6 °C 0,0 km/h (0 Bft)
11.02.2026 20:16 21,6 °C 5,5 °C 53 % 92 % 984,4 hPa 0,0 l/m² 0,0 km/h (0 Bft) S-SO 160 ° 0 min 0 W/m² 4,3 °C 5,5 °C 0,0 km/h (0 Bft)
11.02.2026 20:17 21,6 °C 5,5 °C 53 % 92 % 984,4 hPa 0,0 l/m² 0,0 km/h (0 Bft) S-SO 160 ° 0 min 0 W/m² 4,3 °C 5,5 °C 0,0 km/h (0 Bft)
11.02.2026 20:18 21,6 °C 5,4 °C 53 % 92 % 984,4 hPa 0,0 l/m² 0,0 km/h (0 Bft) S-SO 160 ° 0 min 0 W/m² 4,2 °C 5,4 °C 0,0 km/h (0 Bft)
11.02.2026 20:19 21,6 °C 5,4 °C 53 % 92 % 984,4 hPa 0,0 l/m² 0,0 km/h (0 Bft) S-SO 160 ° 0 min 0 W/m² 4,2 °C 5,4 °C 0,0 km/h (0 Bft)
11.02.2026 20:20 21,6 °C 5,4 °C 53 % 92 % 984,4 hPa 0,0 l/m² 0,0 km/h (0 Bft) S-SO 160 ° 0 min 0 W/m² 4,2 °C 5,4 °C 0,0 km/h (0 Bft)
11.02.2026 20:22 21,6 °C 5,4 °C 53 % 92 % 984,3 hPa 0,0 l/m² 0,0 km/h (0 Bft) S-SO 160 ° 0 min 0 W/m² 4,2 °C 5,4 °C 0,0 km/h (0 Bft)
11.02.2026 20:23 21,6 °C 5,3 °C 53 % 92 % 984,3 hPa 0,0 l/m² 0,0 km/h (0 Bft) S-SO 160 ° 0 min 0 W/m² 4,1 °C 5,3 °C 0,0 km/h (0 Bft)
11.02.2026 20:24 21,6 °C 5,4 °C 53 % 92 % 984,3 hPa 0,0 l/m² 0,0 km/h (0 Bft) S-SO 160 ° 0 min 0 W/m² 4,2 °C 5,4 °C 0,0 km/h (0 Bft)
11.02.2026 20:25 21,6 °C 5,3 °C 53 % 92 % 984,4 hPa 0,0 l/m² 0,0 km/h (0 Bft) S-SO 160 ° 0 min 0 W/m² 4,1 °C 5,3 °C 0,0 km/h (0 Bft)
11.02.2026 20:26 21,6 °C 5,3 °C 53 % 92 % 984,4 hPa 0,0 l/m² 0,0 km/h (0 Bft) S-SO 160 ° 0 min 0 W/m² 4,1 °C 5,3 °C 0,0 km/h (0 Bft)
11.02.2026 20:27 21,6 °C 5,3 °C 53 % 92 % 984,4 hPa 0,0 l/m² 0,0 km/h (0 Bft) S-SO 160 ° 0 min 0 W/m² 4,1 °C 5,3 °C 0,0 km/h (0 Bft)
11.02.2026 20:28 21,6 °C 5,3 °C 53 % 92 % 984,4 hPa 0,0 l/m² 0,0 km/h (0 Bft) S-SO 160 ° 0 min 0 W/m² 4,1 °C 5,3 °C 0,0 km/h (0 Bft)
11.02.2026 20:29 21,6 °C 5,3 °C 53 % 93 % 984,3 hPa 0,0 l/m² 0,0 km/h (0 Bft) S-SO 160 ° 0 min 0 W/m² 4,3 °C 5,3 °C 0,0 km/h (0 Bft)
11.02.2026 20:31 21,6 °C 5,3 °C 53 % 93 % 984,3 hPa 0,0 l/m² 0,0 km/h (0 Bft) S-SO 160 ° 0 min 0 W/m² 4,3 °C 5,3 °C 0,0 km/h (0 Bft)
11.02.2026 20:33 21,6 °C 5,3 °C 53 % 93 % 984,5 hPa 0,0 l/m² 0,0 km/h (0 Bft) S-SO 160 ° 0 min 0 W/m² 4,3 °C 5,3 °C 0,0 km/h (0 Bft)
11.02.2026 20:34 21,6 °C 5,3 °C 53 % 93 % 984,3 hPa 0,0 l/m² 0,0 km/h (0 Bft) S-SO 160 ° 0 min 0 W/m² 4,3 °C 5,3 °C 0,0 km/h (0 Bft)
11.02.2026 20:35 21,6 °C 5,4 °C 53 % 93 % 984,3 hPa 0,0 l/m² 0,0 km/h (0 Bft) S-SO 160 ° 0 min 0 W/m² 4,4 °C 5,4 °C 0,0 km/h (0 Bft)
11.02.2026 20:36 21,6 °C 5,4 °C 53 % 93 % 984,4 hPa 0,0 l/m² 0,0 km/h (0 Bft) S-SO 160 ° 0 min 0 W/m² 4,4 °C 5,4 °C 0,0 km/h (0 Bft)
11.02.2026 20:37 21,6 °C 5,4 °C 53 % 93 % 984,4 hPa 0,0 l/m² 0,0 km/h (0 Bft) S-SO 150 ° 0 min 0 W/m² 4,4 °C 5,4 °C 0,0 km/h (0 Bft)
11.02.2026 20:38 21,6 °C 5,4 °C 53 % 93 % 984,3 hPa 0,0 l/m² 0,0 km/h (0 Bft) S-SO 150 ° 0 min 0 W/m² 4,4 °C 5,4 °C 0,0 km/h (0 Bft)
11.02.2026 20:39 21,6 °C 5,4 °C 53 % 93 % 984,3 hPa 0,0 l/m² 0,0 km/h (0 Bft) S-SO 150 ° 0 min 0 W/m² 4,4 °C 5,4 °C 0,0 km/h (0 Bft)
11.02.2026 20:41 21,7 °C 5,3 °C 53 % 93 % 984,2 hPa 0,0 l/m² 0,0 km/h (0 Bft) S-SO 150 ° 0 min 0 W/m² 4,3 °C 5,3 °C 0,0 km/h (0 Bft)
11.02.2026 20:43 21,6 °C 5,3 °C 53 % 93 % 984,3 hPa 0,0 l/m² 0,0 km/h (0 Bft) S-SO 148 ° 0 min 0 W/m² 4,3 °C 5,3 °C 0,0 km/h (0 Bft)
11.02.2026 20:44 21,6 °C 5,3 °C 53 % 93 % 984,2 hPa 0,0 l/m² 0,0 km/h (0 Bft) S-SO 148 ° 0 min 0 W/m² 4,3 °C 5,3 °C 0,0 km/h (0 Bft)
11.02.2026 20:45 21,7 °C 5,3 °C 53 % 93 % 984,2 hPa 0,0 l/m² 0,0 km/h (0 Bft) S-SO 148 ° 0 min 0 W/m² 4,3 °C 5,3 °C 0,0 km/h (0 Bft)
11.02.2026 20:46 21,7 °C 5,3 °C 53 % 93 % 984,2 hPa 0,0 l/m² 0,0 km/h (0 Bft) S-SO 148 ° 0 min 0 W/m² 4,3 °C 5,3 °C 0,0 km/h (0 Bft)
11.02.2026 20:47 21,7 °C 5,3 °C 53 % 93 % 984,2 hPa 0,0 l/m² 0,0 km/h (0 Bft) S-SO 148 ° 0 min 0 W/m² 4,3 °C 5,3 °C 0,0 km/h (0 Bft)
11.02.2026 20:48 21,7 °C 5,3 °C 53 % 93 % 984,2 hPa 0,0 l/m² 0,0 km/h (0 Bft) S-SO 148 ° 0 min 0 W/m² 4,3 °C 5,3 °C 0,0 km/h (0 Bft)
11.02.2026 20:49 21,7 °C 5,3 °C 53 % 93 % 984,2 hPa 0,0 l/m² 0,0 km/h (0 Bft) S-SO 148 ° 0 min 0 W/m² 4,3 °C 5,3 °C 0,0 km/h (0 Bft)
11.02.2026 20:50 21,7 °C 5,3 °C 53 % 93 % 984,2 hPa 0,0 l/m² 0,0 km/h (0 Bft) S-SO 148 ° 0 min 0 W/m² 4,3 °C 5,3 °C 0,0 km/h (0 Bft)
11.02.2026 20:52 21,7 °C 5,3 °C 53 % 93 % 984,3 hPa 0,0 l/m² 0,0 km/h (0 Bft) S-SO 149 ° 0 min 0 W/m² 4,3 °C 5,3 °C 0,0 km/h (0 Bft)
11.02.2026 20:53 21,7 °C 5,3 °C 53 % 93 % 984,3 hPa 0,0 l/m² 0,0 km/h (0 Bft) S-SO 150 ° 0 min 0 W/m² 4,3 °C 5,3 °C 0,0 km/h (0 Bft)
11.02.2026 20:54 21,7 °C 5,4 °C 52 % 93 % 984,3 hPa 0,0 l/m² 0,0 km/h (0 Bft) S-SO 150 ° 0 min 0 W/m² 4,4 °C 5,4 °C 0,0 km/h (0 Bft)
11.02.2026 20:55 21,7 °C 5,4 °C 52 % 93 % 984,3 hPa 0,0 l/m² 0,0 km/h (0 Bft) S-SO 150 ° 0 min 0 W/m² 4,4 °C 5,4 °C 0,0 km/h (0 Bft)
11.02.2026 20:56 21,7 °C 5,4 °C 52 % 93 % 984,3 hPa 0,0 l/m² 0,0 km/h (0 Bft) S-SO 150 ° 0 min 0 W/m² 4,4 °C 5,4 °C 0,0 km/h (0 Bft)
11.02.2026 20:57 21,7 °C 5,4 °C 52 % 93 % 984,3 hPa 0,0 l/m² 0,0 km/h (0 Bft) S-SO 150 ° 0 min 0 W/m² 4,4 °C 5,4 °C 0,0 km/h (0 Bft)
11.02.2026 20:58 21,7 °C 5,5 °C 52 % 93 % 984,3 hPa 0,0 l/m² 0,0 km/h (0 Bft) S-SO 150 ° 0 min 0 W/m² 4,5 °C 5,5 °C 0,0 km/h (0 Bft)
11.02.2026 20:59 21,7 °C 5,5 °C 52 % 93 % 984,3 hPa 0,0 l/m² 0,0 km/h (0 Bft) S-SO 150 ° 0 min 0 W/m² 4,5 °C 5,5 °C 0,0 km/h (0 Bft)
11.02.2026 21:01 21,7 °C 5,5 °C 52 % 93 % 984,2 hPa 0,0 l/m² 0,0 km/h (0 Bft) S-SO 150 ° 0 min 0 W/m² 4,5 °C 5,5 °C 0,0 km/h (0 Bft)
11.02.2026 21:03 21,7 °C 5,6 °C 52 % 93 % 984,2 hPa 0,0 l/m² 0,0 km/h (0 Bft) S-SO 150 ° 0 min 0 W/m² 4,6 °C 5,6 °C 0,0 km/h (0 Bft)
11.02.2026 21:04 21,7 °C 5,6 °C 52 % 93 % 984,2 hPa 0,0 l/m² 0,0 km/h (0 Bft) S-SO 150 ° 0 min 0 W/m² 4,6 °C 5,6 °C 0,0 km/h (0 Bft)
11.02.2026 21:05 21,7 °C 5,6 °C 52 % 93 % 984,1 hPa 0,0 l/m² 0,0 km/h (0 Bft) S-SO 150 ° 0 min 0 W/m² 4,6 °C 5,6 °C 0,0 km/h (0 Bft)
11.02.2026 21:06 21,7 °C 5,5 °C 52 % 93 % 984,2 hPa 0,0 l/m² 0,0 km/h (0 Bft) S-SO 150 ° 0 min 0 W/m² 4,5 °C 5,5 °C 0,0 km/h (0 Bft)
11.02.2026 21:07 21,7 °C 5,5 °C 52 % 93 % 984,1 hPa 0,0 l/m² 0,0 km/h (0 Bft) S-SO 150 ° 0 min 0 W/m² 4,5 °C 5,5 °C 0,0 km/h (0 Bft)
11.02.2026 21:08 21,7 °C 5,5 °C 51 % 93 % 984,1 hPa 0,0 l/m² 0,0 km/h (0 Bft) S-SO 150 ° 0 min 0 W/m² 4,5 °C 5,5 °C 0,0 km/h (0 Bft)
11.02.2026 21:09 21,7 °C 5,5 °C 51 % 93 % 984,1 hPa 0,0 l/m² 0,0 km/h (0 Bft) S-SO 150 ° 0 min 0 W/m² 4,5 °C 5,5 °C 0,0 km/h (0 Bft)
11.02.2026 21:11 21,7 °C 5,6 °C 51 % 93 % 984,2 hPa 0,0 l/m² 0,0 km/h (0 Bft) S-SO 150 ° 0 min 0 W/m² 4,6 °C 5,6 °C 0,0 km/h (0 Bft)
11.02.2026 21:13 21,7 °C 5,5 °C 51 % 93 % 984,1 hPa 0,0 l/m² 0,0 km/h (0 Bft) S-SO 150 ° 0 min 0 W/m² 4,5 °C 5,5 °C 0,0 km/h (0 Bft)
11.02.2026 21:14 21,7 °C 5,5 °C 51 % 93 % 984,1 hPa 0,0 l/m² 0,0 km/h (0 Bft) S-SO 150 ° 0 min 0 W/m² 4,5 °C 5,5 °C 0,0 km/h (0 Bft)
11.02.2026 21:15 21,7 °C 5,5 °C 51 % 93 % 984,2 hPa 0,0 l/m² 0,0 km/h (0 Bft) S-SO 150 ° 0 min 0 W/m² 4,5 °C 5,5 °C 0,0 km/h (0 Bft)
11.02.2026 21:16 21,7 °C 5,5 °C 51 % 93 % 984,1 hPa 0,0 l/m² 0,0 km/h (0 Bft) S-SO 150 ° 0 min 0 W/m² 4,5 °C 5,5 °C 0,0 km/h (0 Bft)
11.02.2026 21:17 21,7 °C 5,4 °C 51 % 93 % 984,2 hPa 0,0 l/m² 0,0 km/h (0 Bft) S-SO 150 ° 0 min 0 W/m² 4,4 °C 5,4 °C 0,0 km/h (0 Bft)
11.02.2026 21:18 21,7 °C 5,5 °C 51 % 93 % 984,1 hPa 0,0 l/m² 0,0 km/h (0 Bft) S-SO 150 ° 0 min 0 W/m² 4,5 °C 5,5 °C 0,0 km/h (0 Bft)
11.02.2026 21:19 21,7 °C 5,5 °C 51 % 93 % 984,2 hPa 0,0 l/m² 0,0 km/h (0 Bft) S-SO 150 ° 0 min 0 W/m² 4,5 °C 5,5 °C 0,0 km/h (0 Bft)
11.02.2026 21:21 21,7 °C 5,4 °C 51 % 93 % 984,1 hPa 0,0 l/m² 0,0 km/h (0 Bft) S-SO 150 ° 0 min 0 W/m² 4,4 °C 5,4 °C 0,0 km/h (0 Bft)
11.02.2026 21:23 21,7 °C 5,4 °C 51 % 93 % 984,2 hPa 0,0 l/m² 0,0 km/h (0 Bft) S-SO 150 ° 0 min 0 W/m² 4,4 °C 5,4 °C 0,0 km/h (0 Bft)
11.02.2026 21:24 21,7 °C 5,5 °C 51 % 93 % 984,2 hPa 0,0 l/m² 0,0 km/h (0 Bft) S-SO 150 ° 0 min 0 W/m² 4,5 °C 5,5 °C 0,0 km/h (0 Bft)
11.02.2026 21:25 21,7 °C 5,5 °C 51 % 93 % 984,1 hPa 0,0 l/m² 0,0 km/h (0 Bft) S-SO 150 ° 0 min 0 W/m² 4,5 °C 5,5 °C 0,0 km/h (0 Bft)
11.02.2026 21:26 21,7 °C 5,4 °C 51 % 93 % 984,1 hPa 0,0 l/m² 0,0 km/h (0 Bft) S-SO 150 ° 0 min 0 W/m² 4,4 °C 5,4 °C 0,0 km/h (0 Bft)
11.02.2026 21:27 21,7 °C 5,5 °C 51 % 93 % 984,1 hPa 0,0 l/m² 0,0 km/h (0 Bft) S-SO 150 ° 0 min 0 W/m² 4,5 °C 5,5 °C 0,0 km/h (0 Bft)
11.02.2026 21:28 21,7 °C 5,4 °C 51 % 93 % 984,1 hPa 0,0 l/m² 0,0 km/h (0 Bft) S-SO 150 ° 0 min 0 W/m² 4,4 °C 5,4 °C 0,0 km/h (0 Bft)
11.02.2026 21:29 21,7 °C 5,5 °C 51 % 93 % 984,2 hPa 0,0 l/m² 0,0 km/h (0 Bft) S-SO 150 ° 0 min 0 W/m² 4,5 °C 5,5 °C 0,0 km/h (0 Bft)
11.02.2026 21:30 21,7 °C 5,4 °C 51 % 93 % 984,2 hPa 0,0 l/m² 0,0 km/h (0 Bft) S-SO 150 ° 0 min 0 W/m² 4,4 °C 5,4 °C 0,0 km/h (0 Bft)
11.02.2026 21:32 21,7 °C 5,4 °C 50 % 93 % 984,1 hPa 0,0 l/m² 0,0 km/h (0 Bft) S-SO 150 ° 0 min 0 W/m² 4,4 °C 5,4 °C 0,0 km/h (0 Bft)
11.02.2026 21:33 21,7 °C 5,4 °C 50 % 93 % 984,2 hPa 0,0 l/m² 0,0 km/h (0 Bft) S-SO 150 ° 0 min 0 W/m² 4,4 °C 5,4 °C 0,0 km/h (0 Bft)
11.02.2026 21:34 21,7 °C 5,4 °C 50 % 93 % 984,1 hPa 0,0 l/m² 0,0 km/h (0 Bft) S-SO 150 ° 0 min 0 W/m² 4,4 °C 5,4 °C 0,0 km/h (0 Bft)
11.02.2026 21:35 21,7 °C 5,5 °C 50 % 93 % 984,1 hPa 0,0 l/m² 0,0 km/h (0 Bft) S-SO 150 ° 0 min 0 W/m² 4,5 °C 5,5 °C 0,0 km/h (0 Bft)
11.02.2026 21:37 21,7 °C 5,4 °C 50 % 93 % 984,1 hPa 0,0 l/m² 0,0 km/h (0 Bft) S-SO 150 ° 0 min 0 W/m² 4,4 °C 5,4 °C 0,0 km/h (0 Bft)
11.02.2026 21:38 21,7 °C 5,5 °C 50 % 93 % 984,1 hPa 0,0 l/m² 0,0 km/h (0 Bft) S-SO 150 ° 0 min 0 W/m² 4,5 °C 5,5 °C 0,0 km/h (0 Bft)
11.02.2026 21:39 21,7 °C 5,4 °C 50 % 93 % 984,1 hPa 0,0 l/m² 0,0 km/h (0 Bft) S-SO 150 ° 0 min 0 W/m² 4,4 °C 5,4 °C 0,0 km/h (0 Bft)
11.02.2026 21:41 21,7 °C 5,4 °C 50 % 93 % 984,0 hPa 0,0 l/m² 0,0 km/h (0 Bft) S-SO 150 ° 0 min 0 W/m² 4,4 °C 5,4 °C 0,0 km/h (0 Bft)
11.02.2026 21:43 21,7 °C 5,4 °C 50 % 93 % 984,1 hPa 0,0 l/m² 0,0 km/h (0 Bft) S-SO 150 ° 0 min 0 W/m² 4,4 °C 5,4 °C 0,0 km/h (0 Bft)
11.02.2026 21:44 21,7 °C 5,4 °C 50 % 93 % 984,1 hPa 0,0 l/m² 0,0 km/h (0 Bft) S-SO 150 ° 0 min 0 W/m² 4,4 °C 5,4 °C 0,0 km/h (0 Bft)
11.02.2026 21:46 21,7 °C 5,4 °C 50 % 93 % 984,0 hPa 0,0 l/m² 0,0 km/h (0 Bft) S-SO 150 ° 0 min 0 W/m² 4,4 °C 5,4 °C 0,0 km/h (0 Bft)
11.02.2026 21:47 21,7 °C 5,4 °C 50 % 93 % 984,1 hPa 0,0 l/m² 0,0 km/h (0 Bft) S-SO 150 ° 0 min 0 W/m² 4,4 °C 5,4 °C 0,0 km/h (0 Bft)
11.02.2026 21:48 21,7 °C 5,4 °C 50 % 93 % 984,0 hPa 0,0 l/m² 0,0 km/h (0 Bft) S-SO 150 ° 0 min 0 W/m² 4,4 °C 5,4 °C 0,0 km/h (0 Bft)
11.02.2026 21:49 21,7 °C 5,4 °C 50 % 93 % 984,1 hPa 0,0 l/m² 0,0 km/h (0 Bft) S-SO 150 ° 0 min 0 W/m² 4,4 °C 5,4 °C 0,0 km/h (0 Bft)
11.02.2026 21:51 21,7 °C 5,4 °C 50 % 93 % 984,1 hPa 0,0 l/m² 0,0 km/h (0 Bft) S-SO 150 ° 0 min 0 W/m² 4,4 °C 5,4 °C 0,0 km/h (0 Bft)
11.02.2026 21:53 21,7 °C 5,3 °C 50 % 93 % 984,0 hPa 0,0 l/m² 0,0 km/h (0 Bft) S-SO 150 ° 0 min 0 W/m² 4,3 °C 5,3 °C 0,0 km/h (0 Bft)
11.02.2026 21:54 21,7 °C 5,4 °C 50 % 93 % 983,9 hPa 0,0 l/m² 0,0 km/h (0 Bft) S-SO 150 ° 0 min 0 W/m² 4,4 °C 5,4 °C 0,0 km/h (0 Bft)
11.02.2026 21:55 21,7 °C 5,3 °C 50 % 93 % 984,0 hPa 0,0 l/m² 0,0 km/h (0 Bft) S-SO 150 ° 0 min 0 W/m² 4,3 °C 5,3 °C 0,0 km/h (0 Bft)
11.02.2026 21:56 21,7 °C 5,3 °C 50 % 93 % 983,9 hPa 0,0 l/m² 0,0 km/h (0 Bft) S-SO 150 ° 0 min 0 W/m² 4,3 °C 5,3 °C 0,0 km/h (0 Bft)
11.02.2026 21:57 21,7 °C 5,3 °C 50 % 93 % 984,0 hPa 0,0 l/m² 0,0 km/h (0 Bft) S-SO 150 ° 0 min 0 W/m² 4,3 °C 5,3 °C 0,0 km/h (0 Bft)
11.02.2026 21:58 21,7 °C 5,3 °C 50 % 94 % 983,9 hPa 0,0 l/m² 0,0 km/h (0 Bft) S-SO 150 ° 0 min 0 W/m² 4,4 °C 5,3 °C 0,0 km/h (0 Bft)
11.02.2026 21:59 21,7 °C 5,3 °C 50 % 94 % 983,9 hPa 0,0 l/m² 0,0 km/h (0 Bft) S-SO 150 ° 0 min 0 W/m² 4,4 °C 5,3 °C 0,0 km/h (0 Bft)
11.02.2026 22:01 21,7 °C 5,3 °C 50 % 94 % 983,9 hPa 0,0 l/m² 0,0 km/h (0 Bft) S-SO 150 ° 0 min 0 W/m² 4,4 °C 5,3 °C 0,0 km/h (0 Bft)
11.02.2026 22:03 21,7 °C 5,4 °C 50 % 94 % 983,9 hPa 0,0 l/m² 0,0 km/h (0 Bft) S-SO 150 ° 0 min 0 W/m² 4,5 °C 5,4 °C 0,0 km/h (0 Bft)
11.02.2026 22:04 21,7 °C 5,4 °C 50 % 94 % 983,8 hPa 0,0 l/m² 0,0 km/h (0 Bft) S-SO 150 ° 0 min 0 W/m² 4,5 °C 5,4 °C 0,0 km/h (0 Bft)
11.02.2026 22:05 21,7 °C 5,4 °C 50 % 94 % 983,8 hPa 0,0 l/m² 0,0 km/h (0 Bft) S-SO 150 ° 0 min 0 W/m² 4,5 °C 5,4 °C 0,0 km/h (0 Bft)
11.02.2026 22:06 21,7 °C 5,4 °C 50 % 94 % 983,9 hPa 0,0 l/m² 0,0 km/h (0 Bft) S-SO 150 ° 0 min 0 W/m² 4,5 °C 5,4 °C 0,0 km/h (0 Bft)
11.02.2026 22:08 21,7 °C 5,4 °C 50 % 94 % 983,9 hPa 0,0 l/m² 0,0 km/h (0 Bft) S-SO 150 ° 0 min 0 W/m² 4,5 °C 5,4 °C 0,0 km/h (0 Bft)
11.02.2026 22:09 21,7 °C 5,4 °C 50 % 94 % 983,9 hPa 0,0 l/m² 0,0 km/h (0 Bft) S-SO 150 ° 0 min 0 W/m² 4,5 °C 5,4 °C 0,0 km/h (0 Bft)
11.02.2026 22:10 21,6 °C 5,5 °C 50 % 94 % 983,8 hPa 0,0 l/m² 0,0 km/h (0 Bft) S-SO 150 ° 0 min 0 W/m² 4,6 °C 5,5 °C 0,0 km/h (0 Bft)
11.02.2026 22:12 21,7 °C 5,5 °C 50 % 94 % 984,0 hPa 0,0 l/m² 0,0 km/h (0 Bft) S-SO 150 ° 0 min 0 W/m² 4,6 °C 5,5 °C 0,0 km/h (0 Bft)
11.02.2026 22:13 21,7 °C 5,5 °C 50 % 94 % 983,9 hPa 0,0 l/m² 0,0 km/h (0 Bft) S-SO 150 ° 0 min 0 W/m² 4,6 °C 5,5 °C 0,0 km/h (0 Bft)
11.02.2026 22:14 21,7 °C 5,5 °C 50 % 94 % 983,8 hPa 0,0 l/m² 0,0 km/h (0 Bft) S-SO 150 ° 0 min 0 W/m² 4,6 °C 5,5 °C 0,0 km/h (0 Bft)
11.02.2026 22:15 21,7 °C 5,5 °C 50 % 94 % 983,9 hPa 0,0 l/m² 0,0 km/h (0 Bft) S-SO 150 ° 0 min 0 W/m² 4,6 °C 5,5 °C 0,0 km/h (0 Bft)
11.02.2026 22:16 21,7 °C 5,5 °C 50 % 94 % 983,9 hPa 0,0 l/m² 0,0 km/h (0 Bft) S-SO 150 ° 0 min 0 W/m² 4,6 °C 5,5 °C 0,0 km/h (0 Bft)
11.02.2026 22:17 21,7 °C 5,5 °C 50 % 94 % 983,8 hPa 0,0 l/m² 0,0 km/h (0 Bft) S-SO 150 ° 0 min 0 W/m² 4,6 °C 5,5 °C 0,0 km/h (0 Bft)
11.02.2026 22:18 21,7 °C 5,5 °C 50 % 94 % 983,8 hPa 0,0 l/m² 0,0 km/h (0 Bft) S-SO 150 ° 0 min 0 W/m² 4,6 °C 5,5 °C 0,0 km/h (0 Bft)
11.02.2026 22:19 21,7 °C 5,6 °C 50 % 94 % 983,9 hPa 0,0 l/m² 0,0 km/h (0 Bft) S-SO 149 ° 0 min 0 W/m² 4,7 °C 5,6 °C 0,0 km/h (0 Bft)
11.02.2026 22:21 21,7 °C 5,6 °C 50 % 94 % 983,8 hPa 0,0 l/m² 0,0 km/h (0 Bft) O-NO 71 ° 0 min 0 W/m² 4,7 °C 5,6 °C 0,0 km/h (0 Bft)
11.02.2026 22:23 21,7 °C 5,6 °C 50 % 94 % 983,9 hPa 0,0 l/m² 0,0 km/h (0 Bft) O-NO 71 ° 0 min 0 W/m² 4,7 °C 5,6 °C 0,0 km/h (0 Bft)
11.02.2026 22:24 21,7 °C 5,6 °C 50 % 94 % 983,8 hPa 0,0 l/m² 0,0 km/h (0 Bft) O-NO 71 ° 0 min 0 W/m² 4,7 °C 5,6 °C 0,0 km/h (0 Bft)
11.02.2026 22:25 21,7 °C 5,6 °C 50 % 94 % 983,8 hPa 0,0 l/m² 0,0 km/h (0 Bft) O-NO 71 ° 0 min 0 W/m² 4,7 °C 5,6 °C 0,0 km/h (0 Bft)
11.02.2026 22:26 21,7 °C 5,7 °C 50 % 94 % 983,8 hPa 0,0 l/m² 0,0 km/h (0 Bft) NO 43 ° 0 min 0 W/m² 4,8 °C 5,7 °C 0,0 km/h (0 Bft)
11.02.2026 22:27 21,7 °C 5,7 °C 50 % 94 % 983,8 hPa 0,0 l/m² 0,2 km/h (0 Bft) NO 42 ° 0 min 0 W/m² 4,8 °C 5,7 °C 1,6 km/h (1 Bft)
11.02.2026 22:28 21,6 °C 5,7 °C 50 % 94 % 983,8 hPa 0,0 l/m² 0,0 km/h (0 Bft) NO 42 ° 0 min 0 W/m² 4,8 °C 5,7 °C 0,0 km/h (0 Bft)
11.02.2026 22:29 21,7 °C 5,7 °C 50 % 94 % 983,8 hPa 0,0 l/m² 0,0 km/h (0 Bft) NO 42 ° 0 min 0 W/m² 4,8 °C 5,7 °C 0,0 km/h (0 Bft)
11.02.2026 22:31 21,7 °C 5,7 °C 50 % 94 % 983,8 hPa 0,0 l/m² 0,0 km/h (0 Bft) NO 42 ° 0 min 0 W/m² 4,8 °C 5,7 °C 0,0 km/h (0 Bft)
11.02.2026 22:33 21,7 °C 5,7 °C 50 % 94 % 983,8 hPa 0,0 l/m² 0,0 km/h (0 Bft) NO 42 ° 0 min 0 W/m² 4,8 °C 5,7 °C 0,0 km/h (0 Bft)
11.02.2026 22:34 21,7 °C 5,7 °C 50 % 94 % 983,8 hPa 0,0 l/m² 0,0 km/h (0 Bft) NO 42 ° 0 min 0 W/m² 4,8 °C 5,7 °C 0,0 km/h (0 Bft)
11.02.2026 22:35 21,7 °C 5,7 °C 50 % 94 % 983,9 hPa 0,0 l/m² 0,0 km/h (0 Bft) NO 42 ° 0 min 0 W/m² 4,8 °C 5,7 °C 0,0 km/h (0 Bft)
11.02.2026 22:36 21,7 °C 5,7 °C 50 % 94 % 983,8 hPa 0,0 l/m² 0,0 km/h (0 Bft) NO 42 ° 0 min 0 W/m² 4,8 °C 5,7 °C 0,0 km/h (0 Bft)
11.02.2026 22:37 21,7 °C 5,7 °C 50 % 94 % 983,8 hPa 0,0 l/m² 0,0 km/h (0 Bft) NO 42 ° 0 min 0 W/m² 4,8 °C 5,7 °C 0,0 km/h (0 Bft)
11.02.2026 22:38 21,7 °C 5,7 °C 50 % 94 % 983,9 hPa 0,0 l/m² 0,0 km/h (0 Bft) NO 42 ° 0 min 0 W/m² 4,8 °C 5,7 °C 0,0 km/h (0 Bft)
11.02.2026 22:39 21,7 °C 5,7 °C 50 % 94 % 983,8 hPa 0,0 l/m² 0,0 km/h (0 Bft) NO 42 ° 0 min 0 W/m² 4,8 °C 5,7 °C 0,0 km/h (0 Bft)
11.02.2026 22:40 21,7 °C 5,7 °C 50 % 94 % 983,8 hPa 0,0 l/m² 0,0 km/h (0 Bft) NO 42 ° 0 min 0 W/m² 4,8 °C 5,7 °C 0,0 km/h (0 Bft)
11.02.2026 22:42 21,7 °C 5,7 °C 50 % 94 % 983,9 hPa 0,0 l/m² 0,5 km/h (0 Bft) S 180 ° 0 min 0 W/m² 4,8 °C 5,7 °C 4,8 km/h (1 Bft)
11.02.2026 22:43 21,7 °C 5,7 °C 50 % 94 % 983,8 hPa 0,0 l/m² 1,2 km/h (1 Bft) S 180 ° 0 min 0 W/m² 4,8 °C 5,7 °C 3,2 km/h (1 Bft)
11.02.2026 22:44 21,7 °C 5,7 °C 50 % 94 % 983,8 hPa 0,0 l/m² 0,0 km/h (0 Bft) S 180 ° 0 min 0 W/m² 4,8 °C 5,7 °C 0,0 km/h (0 Bft)
11.02.2026 22:45 21,7 °C 5,7 °C 50 % 94 % 983,8 hPa 0,0 l/m² 0,0 km/h (0 Bft) S 180 ° 0 min 0 W/m² 4,8 °C 5,7 °C 0,0 km/h (0 Bft)
11.02.2026 22:46 21,7 °C 5,7 °C 50 % 94 % 983,8 hPa 0,0 l/m² 0,0 km/h (0 Bft) S 180 ° 0 min 0 W/m² 4,8 °C 5,7 °C 0,0 km/h (0 Bft)
11.02.2026 22:47 21,7 °C 5,7 °C 50 % 94 % 983,7 hPa 0,0 l/m² 0,0 km/h (0 Bft) S 180 ° 0 min 0 W/m² 4,8 °C 5,7 °C 0,0 km/h (0 Bft)
11.02.2026 22:48 21,7 °C 5,7 °C 50 % 94 % 983,7 hPa 0,0 l/m² 0,0 km/h (0 Bft) S 180 ° 0 min 0 W/m² 4,8 °C 5,7 °C 0,0 km/h (0 Bft)
11.02.2026 22:49 21,7 °C 5,7 °C 50 % 94 % 983,8 hPa 0,0 l/m² 0,0 km/h (0 Bft) S 180 ° 0 min 0 W/m² 4,8 °C 5,7 °C 0,0 km/h (0 Bft)
11.02.2026 22:51 21,7 °C 5,7 °C 50 % 94 % 983,8 hPa 0,0 l/m² 0,0 km/h (0 Bft) S 180 ° 0 min 0 W/m² 4,8 °C 5,7 °C 0,0 km/h (0 Bft)
11.02.2026 22:53 21,6 °C 5,7 °C 50 % 94 % 983,7 hPa 0,0 l/m² 0,0 km/h (0 Bft) S 180 ° 0 min 0 W/m² 4,8 °C 5,7 °C 0,0 km/h (0 Bft)
11.02.2026 22:54 21,7 °C 5,7 °C 50 % 94 % 983,7 hPa 0,0 l/m² 0,0 km/h (0 Bft) S 180 ° 0 min 0 W/m² 4,8 °C 5,7 °C 0,0 km/h (0 Bft)
11.02.2026 22:55 21,7 °C 5,7 °C 50 % 94 % 983,7 hPa 0,0 l/m² 0,0 km/h (0 Bft) S 180 ° 0 min 0 W/m² 4,8 °C 5,7 °C 0,0 km/h (0 Bft)
11.02.2026 22:56 21,6 °C 5,7 °C 50 % 94 % 983,7 hPa 0,0 l/m² 0,0 km/h (0 Bft) S 180 ° 0 min 0 W/m² 4,8 °C 5,7 °C 0,0 km/h (0 Bft)
11.02.2026 22:57 21,7 °C 5,7 °C 50 % 94 % 983,7 hPa 0,0 l/m² 0,0 km/h (0 Bft) S 180 ° 0 min 0 W/m² 4,8 °C 5,7 °C 0,0 km/h (0 Bft)
11.02.2026 22:58 21,6 °C 5,7 °C 50 % 94 % 983,7 hPa 0,0 l/m² 0,0 km/h (0 Bft) S 180 ° 0 min 0 W/m² 4,8 °C 5,7 °C 0,0 km/h (0 Bft)
11.02.2026 22:59 21,6 °C 5,7 °C 50 % 94 % 983,7 hPa 0,0 l/m² 0,0 km/h (0 Bft) S 184 ° 0 min 0 W/m² 4,8 °C 5,7 °C 0,0 km/h (0 Bft)
11.02.2026 23:01 21,6 °C 5,7 °C 50 % 94 % 983,6 hPa 0,0 l/m² 0,0 km/h (0 Bft) S 184 ° 0 min 0 W/m² 4,8 °C 5,7 °C 0,0 km/h (0 Bft)
11.02.2026 23:03 21,7 °C 5,7 °C 50 % 94 % 983,6 hPa 0,0 l/m² 0,4 km/h (0 Bft) S-SW 204 ° 0 min 0 W/m² 4,8 °C 5,7 °C 3,2 km/h (1 Bft)
11.02.2026 23:04 21,6 °C 5,7 °C 50 % 94 % 983,6 hPa 0,0 l/m² 0,0 km/h (0 Bft) S-SW 204 ° 0 min 0 W/m² 4,8 °C 5,7 °C 0,0 km/h (0 Bft)
11.02.2026 23:05 21,6 °C 5,7 °C 50 % 94 % 983,5 hPa 0,0 l/m² 0,0 km/h (0 Bft) S-SW 204 ° 0 min 0 W/m² 4,8 °C 5,7 °C 0,0 km/h (0 Bft)
11.02.2026 23:06 21,6 °C 5,7 °C 50 % 94 % 983,6 hPa 0,0 l/m² 0,0 km/h (0 Bft) S-SW 204 ° 0 min 0 W/m² 4,8 °C 5,7 °C 0,0 km/h (0 Bft)
11.02.2026 23:07 21,6 °C 5,7 °C 50 % 94 % 983,6 hPa 0,0 l/m² 0,0 km/h (0 Bft) S-SW 204 ° 0 min 0 W/m² 4,8 °C 5,7 °C 0,0 km/h (0 Bft)
11.02.2026 23:08 21,6 °C 5,8 °C 50 % 94 % 983,5 hPa 0,0 l/m² 0,0 km/h (0 Bft) S-SW 204 ° 0 min 0 W/m² 4,9 °C 5,8 °C 0,0 km/h (0 Bft)
11.02.2026 23:09 21,6 °C 5,8 °C 50 % 94 % 983,5 hPa 0,0 l/m² 0,1 km/h (0 Bft) S-SW 205 ° 0 min 0 W/m² 4,9 °C 5,8 °C 1,6 km/h (1 Bft)
11.02.2026 23:11 21,6 °C 5,8 °C 50 % 94 % 983,5 hPa 0,0 l/m² 0,0 km/h (0 Bft) S-SW 205 ° 0 min 0 W/m² 4,9 °C 5,8 °C 0,0 km/h (0 Bft)
11.02.2026 23:13 21,6 °C 5,9 °C 50 % 94 % 983,5 hPa 0,0 l/m² 0,2 km/h (0 Bft) SW 217 ° 0 min 0 W/m² 5,0 °C 5,9 °C 1,6 km/h (1 Bft)
11.02.2026 23:14 21,6 °C 5,9 °C 50 % 94 % 983,5 hPa 0,0 l/m² 0,0 km/h (0 Bft) SW 217 ° 0 min 0 W/m² 5,0 °C 5,9 °C 0,0 km/h (0 Bft)
11.02.2026 23:15 21,6 °C 6,0 °C 50 % 94 % 983,5 hPa 0,0 l/m² 0,0 km/h (0 Bft) SW 217 ° 0 min 0 W/m² 5,1 °C 6,0 °C 0,0 km/h (0 Bft)
11.02.2026 23:16 21,6 °C 6,1 °C 50 % 94 % 983,5 hPa 0,0 l/m² 0,0 km/h (0 Bft) N 0 ° 0 min 0 W/m² 5,2 °C 6,1 °C 0,0 km/h (0 Bft)
11.02.2026 23:17 21,6 °C 6,1 °C 50 % 94 % 983,4 hPa 0,0 l/m² 0,0 km/h (0 Bft) N 0 ° 0 min 0 W/m² 5,2 °C 6,1 °C 0,0 km/h (0 Bft)
11.02.2026 23:22 21,6 °C 6,2 °C 50 % 95 % 983,4 hPa 0,2 l/m² 0,0 km/h (0 Bft) SW 217 ° 0 min 0 W/m² 5,5 °C 6,2 °C 0,0 km/h (0 Bft)
11.02.2026 23:24 21,6 °C 6,2 °C 50 % 95 % 983,3 hPa 0,0 l/m² 0,0 km/h (0 Bft) SW 217 ° 0 min 0 W/m² 5,5 °C 6,2 °C 0,0 km/h (0 Bft)
11.02.2026 23:25 21,6 °C 6,2 °C 50 % 95 % 983,3 hPa 0,0 l/m² 0,0 km/h (0 Bft) S 187 ° 0 min 0 W/m² 5,5 °C 6,2 °C 0,0 km/h (0 Bft)
11.02.2026 23:27 21,6 °C 6,2 °C 50 % 94 % 983,4 hPa 0,0 l/m² 0,0 km/h (0 Bft) S 187 ° 0 min 0 W/m² 5,3 °C 6,2 °C 0,0 km/h (0 Bft)
11.02.2026 23:29 21,6 °C 6,1 °C 50 % 94 % 983,4 hPa 0,0 l/m² 0,0 km/h (0 Bft) S 187 ° 0 min 0 W/m² 5,2 °C 6,1 °C 0,0 km/h (0 Bft)
11.02.2026 23:30 21,6 °C 6,1 °C 50 % 94 % 983,4 hPa 0,0 l/m² 0,0 km/h (0 Bft) S 187 ° 0 min 0 W/m² 5,2 °C 6,1 °C 0,0 km/h (0 Bft)
11.02.2026 23:32 21,6 °C 6,1 °C 50 % 94 % 983,4 hPa 0,0 l/m² 0,0 km/h (0 Bft) S 187 ° 0 min 0 W/m² 5,2 °C 6,1 °C 0,0 km/h (0 Bft)
11.02.2026 23:33 21,6 °C 6,1 °C 49 % 94 % 983,4 hPa 0,0 l/m² 0,0 km/h (0 Bft) S 187 ° 0 min 0 W/m² 5,2 °C 6,1 °C 0,0 km/h (0 Bft)
11.02.2026 23:35 21,6 °C 6,1 °C 49 % 94 % 983,4 hPa 0,0 l/m² 0,0 km/h (0 Bft) S 187 ° 0 min 0 W/m² 5,2 °C 6,1 °C 0,0 km/h (0 Bft)
11.02.2026 23:37 21,6 °C 6,0 °C 49 % 94 % 983,4 hPa 0,0 l/m² 0,0 km/h (0 Bft) S 187 ° 0 min 0 W/m² 5,1 °C 6,0 °C 0,0 km/h (0 Bft)
11.02.2026 23:39 21,6 °C 6,0 °C 49 % 94 % 983,5 hPa 0,0 l/m² 0,0 km/h (0 Bft) S 187 ° 0 min 0 W/m² 5,1 °C 6,0 °C 0,0 km/h (0 Bft)
11.02.2026 23:40 21,6 °C 6,0 °C 50 % 94 % 983,4 hPa 0,0 l/m² 0,0 km/h (0 Bft) S 187 ° 0 min 0 W/m² 5,1 °C 6,0 °C 0,0 km/h (0 Bft)
11.02.2026 23:42 21,6 °C 6,0 °C 49 % 94 % 983,4 hPa 0,0 l/m² 0,0 km/h (0 Bft) S 187 ° 0 min 0 W/m² 5,1 °C 6,0 °C 0,0 km/h (0 Bft)
11.02.2026 23:44 21,6 °C 6,1 °C 49 % 94 % 983,4 hPa 0,0 l/m² 0,0 km/h (0 Bft) S 187 ° 0 min 0 W/m² 5,2 °C 6,1 °C 0,0 km/h (0 Bft)
11.02.2026 23:46 21,6 °C 6,1 °C 50 % 94 % 983,5 hPa 0,0 l/m² 0,0 km/h (0 Bft) S 187 ° 0 min 0 W/m² 5,2 °C 6,1 °C 0,0 km/h (0 Bft)
11.02.2026 23:48 21,6 °C 6,1 °C 49 % 94 % 983,4 hPa 0,0 l/m² 0,0 km/h (0 Bft) S 187 ° 0 min 0 W/m² 5,2 °C 6,1 °C 0,0 km/h (0 Bft)
11.02.2026 23:50 21,6 °C 6,1 °C 49 % 95 % 983,5 hPa 0,0 l/m² 0,0 km/h (0 Bft) S 187 ° 0 min 0 W/m² 5,4 °C 6,1 °C 0,0 km/h (0 Bft)
11.02.2026 23:51 21,6 °C 6,1 °C 49 % 95 % 983,4 hPa 0,0 l/m² 0,0 km/h (0 Bft) S 187 ° 0 min 0 W/m² 5,4 °C 6,1 °C 0,0 km/h (0 Bft)
11.02.2026 23:52 21,6 °C 6,1 °C 49 % 94 % 983,4 hPa 0,0 l/m² 0,0 km/h (0 Bft) S 187 ° 0 min 0 W/m² 5,2 °C 6,1 °C 0,0 km/h (0 Bft)
11.02.2026 23:54 21,6 °C 6,1 °C 49 % 94 % 983,4 hPa 0,0 l/m² 0,0 km/h (0 Bft) S 187 ° 0 min 0 W/m² 5,2 °C 6,1 °C 0,0 km/h (0 Bft)
11.02.2026 23:56 21,6 °C 6,1 °C 49 % 94 % 983,3 hPa 0,0 l/m² 0,0 km/h (0 Bft) S 187 ° 0 min 0 W/m² 5,2 °C 6,1 °C 0,0 km/h (0 Bft)
11.02.2026 23:57 21,6 °C 6,1 °C 49 % 94 % 983,4 hPa 0,0 l/m² 0,0 km/h (0 Bft) S 187 ° 0 min 0 W/m² 5,2 °C 6,1 °C 0,0 km/h (0 Bft)
11.02.2026 23:58 21,6 °C 6,1 °C 49 % 94 % 983,4 hPa 0,0 l/m² 0,0 km/h (0 Bft) S 187 ° 0 min 0 W/m² 5,2 °C 6,1 °C 0,0 km/h (0 Bft)
_ Min-Zeit 19:46 08:27 18:19 00:08 23:56 - 23:58 - - - - 02:00 08:37 23:58
Minimum _ 21,3 °C 3,3 °C 46 % 81 % 983,3 hPa - 0,0 km/h (0 Bft) - - - - 1,6 °C 1,4 °C 0,0 km/h (0 Bft)
_ Max-Zeit 11:31 12:37 20:53 23:51 00:00 23:22 16:09 - - 12:06 09:57 15:45 12:37 15:34
Maximum _ 21,8 °C 7,9 °C 53 % 95 % 990,4 hPa 0,2 l/m² 10,4 km/h
SW (2 Bft)
- - 6 min 197 W/m² 6,4 °C 7,9 °C 16,1 km/h
W-SW (3 Bft)
Durchschnitt _ 21,7 °C 5,7 °C 47 % 89 % 985,7 hPa #0,8 l/m² 2,2 km/h (1 Bft) O - #7:24 h 35 W/m² 4,1 °C 5,6 °C 3,8 km/h (1 Bft)
© 2009 Mathias Hoßbach